[[{"header":{"parameterUnit":"m.s-1","parameterCategory":1,"la1":30.6,"la2":29.2853,"lo1":-89.7004,"lo2":-87.6739,"dy":0.0162,"dx":0.0183,"nx":112,"ny":82,"refTime":"2024-08-07T18:00:00:Z","depth":0,"parameterNumber":2,"parameterNumberName":"U-component_of_WINDS"},"data":[0.0,0.0,0.0,0.0,0.0,0.0,0.0,0.0,0.0,0.0,0.0,0.0,0.0,0.0,0.0,0.0,0.0,0.0,0.0,0.0,0.0,0.0,0.0,0.0,0.0,0.0,0.0,0.0,0.0,0.0,0.0,0.0,0.0,0.0,0.0,0.0,0.0,0.0,0.0,0.0,0.0,0.0,0.0,0.0,0.0,0.0,0.0,0.0,0.0,0.0,0.0,0.0,0.0,0.0,0.0,0.0,0.0,0.0,0.0,0.0,0.0,0.0,0.0,0.0,0.0,0.0,0.0,0.0,0.0,0.0,0.0,0.0,0.0,0.0,0.0,0.0,0.0,0.0,0.0,0.0,0.0,0.0,0.0,0.0,0.0,0.0,0.0,0.0,0.0,0.0,1.3325,1.5242,1.7152,1.8196,1.7954,1.7684,1.6363,1.3591,0.0,0.0,0.0,0.0,0.0,0.0,0.0,0.0,0.0,0.0,0.0,0.0,0.0,0.0,0.0,0.0,0.0,0.0,0.0,0.0,0.0,0.0,0.0,0.0,0.0,0.0,0.0,0.0,0.0,0.0,0.0,0.0,0.0,0.0,0.0,0.0,0.0,0.0,0.0,0.0,0.0,0.0,0.0,0.0,0.0,0.0,0.0,0.0,0.0,0.0,0.0,0.0,0.0,0.0,0.0,0.0,0.0,0.0,0.0,0.0,0.0,0.0,0.0,0.0,0.0,0.0,0.0,0.0,0.0,0.0,0.0,0.0,0.0,0.0,0.0,0.0,0.0,0.0,0.0,0.0,0.0,0.0,0.0,0.0,0.0,0.0,0.0,0.0,0.0,0.0,0.0,0.0,0.0,0.0,0.0,0.0,0.0,0.0,0.0,0.0,0.0,0.0,0.0,0.0,1.3715,1.6654,1.8105,1.8351,1.6971,1.7616,1.6798,1.3766,0.0,0.0,0.0,0.0,0.0,0.0,0.0,0.0,0.0,0.0,0.0,0.0,0.0,0.0,0.0,0.0,0.0,0.0,0.0,0.0,0.0,0.0,0.0,0.0,0.0,0.0,0.0,0.0,0.0,0.0,0.0,0.0,0.0,0.0,0.0,0.0,0.0,0.0,0.0,0.0,0.0,0.0,0.0,0.0,0.0,0.0,0.0,0.0,0.0,0.0,0.0,0.0,0.0,0.0,0.0,0.0,0.0,0.0,0.0,0.0,0.0,0.0,0.0,0.0,0.0,0.0,0.0,0.0,0.0,0.0,0.0,0.0,0.0,0.0,0.0,0.0,0.0,0.0,0.0,0.0,0.0,0.0,0.0,0.0,0.0,0.0,0.0,0.0,0.0,0.0,0.0,0.0,0.0,0.0,0.0,0.0,0.0,0.0,0.0,0.0,0.0,0.0,0.0,1.3022,1.4428,1.6751,1.7702,1.7971,1.7509,1.7634,1.6516,1.3664,1.236,0.0,0.0,0.0,0.0,0.0,0.0,0.0,0.0,0.0,0.0,0.0,0.0,0.0,0.0,0.0,0.0,0.0,0.0,0.0,0.0,0.0,0.0,0.0,0.0,0.0,0.0,0.0,0.0,0.0,0.0,0.0,0.0,0.0,0.0,0.0,0.0,0.0,0.0,0.0,0.0,0.0,0.0,0.0,0.0,0.0,0.0,0.0,0.0,0.0,0.0,0.0,0.0,0.0,0.0,0.0,0.0,0.0,0.0,0.0,0.0,0.0,0.0,0.0,0.0,0.0,0.0,0.0,0.0,0.0,0.0,0.0,0.0,0.0,0.0,0.0,0.0,0.0,0.0,0.0,0.0,0.0,0.0,0.0,0.0,0.0,0.0,0.0,0.0,0.0,0.0,0.0,0.0,0.0,0.0,0.0,0.0,0.0,0.0,0.0,0.0,0.0,0.0,1.4086,1.5143,1.6341,1.7095,1.7545,1.7605,1.721,1.5906,1.3405,1.2032,0.0,0.0,0.0,0.0,0.0,0.0,0.0,0.0,0.0,0.0,0.0,0.0,0.0,0.0,0.0,0.0,0.0,0.0,0.0,0.0,0.0,0.0,0.0,0.0,0.0,0.0,0.0,0.0,0.0,0.0,0.0,0.0,0.0,0.0,0.0,0.0,0.0,0.0,0.0,0.0,0.0,0.0,0.0,0.0,0.0,0.0,0.0,0.0,0.0,0.0,0.0,0.0,0.0,0.0,0.0,0.0,0.0,0.0,0.0,0.0,0.0,0.0,0.0,0.0,0.0,0.0,0.0,0.0,0.0,0.0,0.0,0.0,0.0,0.0,0.0,0.0,0.0,0.0,0.0,0.0,0.0,0.0,0.0,0.0,0.0,0.0,0.0,0.0,0.0,0.0,0.0,0.0,0.0,0.0,0.0,0.0,0.0,0.0,0.0,0.0,0.0,0.0,1.4502,1.5791,1.5789,1.6799,1.7057,1.5957,1.5858,1.4947,1.2876,1.1153,0.0,0.0,0.0,0.0,0.0,0.0,0.0,0.0,0.0,0.0,0.0,0.0,0.0,0.0,0.0,0.0,0.0,0.0,0.0,0.0,0.0,0.0,0.0,0.0,0.0,0.0,0.0,0.0,0.0,0.0,0.0,0.0,0.0,0.0,0.0,0.0,0.0,0.0,0.0,0.0,0.0,0.0,0.0,0.0,0.0,0.0,0.0,0.0,0.0,0.0,0.0,0.0,0.0,0.0,0.0,0.0,0.0,0.0,0.0,0.0,0.0,0.0,0.0,0.0,0.0,0.0,0.0,0.0,0.0,0.0,0.0,0.0,0.0,0.0,0.0,0.0,0.0,0.0,0.0,0.0,0.0,0.0,0.0,0.0,0.0,0.0,0.0,0.0,0.0,0.0,0.0,0.0,0.0,0.0,0.0,0.0,0.0,0.0,0.0,0.0,0.0,0.0,1.3159,1.4281,1.5296,1.5519,1.5738,1.6228,1.5939,1.5008,1.3194,0.0,0.0,0.0,0.0,0.0,0.0,0.0,0.0,0.0,0.0,0.0,0.0,0.0,0.0,0.0,0.0,0.0,0.0,0.0,0.0,0.0,0.0,0.0,0.0,0.0,0.0,0.0,0.0,0.0,0.0,0.0,0.0,0.0,0.0,0.0,0.0,0.0,0.0,0.0,0.0,0.0,0.0,0.0,0.0,0.0,0.0,0.0,0.0,0.0,0.0,0.0,0.0,0.0,0.0,0.0,0.0,0.0,0.0,0.0,0.0,0.0,0.0,0.0,0.0,0.0,0.0,0.0,0.0,0.0,0.0,0.0,0.0,0.0,0.0,0.0,0.0,0.0,0.0,0.0,0.0,0.0,0.0,0.0,0.0,0.0,0.0,0.0,0.0,0.0,0.0,0.0,0.0,0.0,0.0,0.0,0.0,0.0,0.0,0.0,0.0,0.0,0.0,1.1597,1.2511,1.3456,1.4779,1.462,1.484,1.6021,1.5611,1.4671,1.3159,0.0,0.0,0.0,0.0,0.0,0.0,0.0,0.0,0.0,0.0,0.0,0.0,0.0,0.0,0.0,0.0,0.0,0.0,0.0,0.0,0.0,0.0,0.0,0.0,0.0,0.0,0.0,0.0,0.0,0.0,0.0,0.0,0.0,0.0,0.0,0.0,0.0,0.0,0.0,0.0,0.0,0.0,0.0,0.0,0.0,0.0,0.0,0.0,0.0,0.0,0.0,0.0,0.0,0.0,0.0,0.0,0.0,0.0,0.0,0.0,0.0,0.0,0.0,0.0,0.0,0.0,0.0,0.0,0.0,0.0,0.0,0.0,0.0,0.0,0.0,0.0,0.0,0.0,0.0,0.0,0.0,0.0,0.0,0.0,0.0,0.0,0.0,0.0,0.0,0.0,0.0,0.0,0.0,0.0,0.0,0.0,0.0,0.0,0.0,0.0,0.0,0.0,1.1651,1.2872,1.3796,1.4252,1.4323,1.4559,1.498,1.452,1.3727,0.0,0.0,0.0,0.0,0.0,0.0,0.0,0.0,0.0,0.0,0.0,0.0,0.0,0.0,0.0,0.0,0.0,0.0,0.0,0.0,0.0,0.0,0.0,0.0,0.0,0.0,0.0,0.0,0.0,0.0,0.0,0.0,0.0,0.0,0.0,0.0,0.0,0.0,0.0,0.0,0.0,0.0,0.0,0.0,0.0,0.0,0.0,0.0,0.0,0.0,0.0,0.0,0.0,0.0,0.0,0.0,0.0,0.0,0.0,0.0,0.0,0.0,0.0,0.0,0.0,0.0,0.0,0.0,0.0,0.0,0.0,0.0,0.0,0.0,0.0,0.0,0.0,0.0,0.0,0.0,0.0,0.0,0.0,0.0,0.0,0.0,0.0,0.0,0.0,0.0,0.0,0.0,0.0,0.0,0.0,0.0,0.0,0.0,0.0,0.0,0.0,0.0,0.0,1.1651,1.2872,1.3662,1.3807,1.3836,1.4052,1.4522,1.4427,1.383,1.2615,0.0,0.0,0.0,0.0,0.0,0.0,0.0,0.0,0.0,0.0,0.0,0.0,0.0,0.0,0.0,0.0,0.0,0.0,0.0,0.0,0.0,0.0,0.0,0.0,0.0,0.0,0.0,0.0,0.0,0.0,0.0,0.0,0.0,0.0,0.0,0.0,0.0,0.0,0.0,0.0,0.0,0.0,0.0,0.0,0.0,0.0,0.0,0.0,0.0,0.0,0.0,0.0,0.0,0.0,0.0,0.0,0.0,0.0,0.0,0.0,0.0,0.0,0.0,0.0,0.0,0.0,0.0,0.0,0.0,0.0,0.0,0.0,0.0,0.0,0.0,0.0,0.0,0.0,0.0,0.0,0.0,0.0,0.0,0.0,0.0,0.0,0.0,0.0,0.0,0.0,0.0,0.0,0.0,0.0,0.0,0.0,0.0,0.0,0.0,0.0,0.0,0.0,1.1567,1.2818,1.3563,1.3515,1.3573,1.3716,1.4046,1.4466,1.4013,1.2404,0.0,0.0,0.0,0.0,0.0,0.0,0.0,0.0,0.0,0.0,0.0,0.0,0.0,0.0,0.0,0.0,0.0,0.0,0.0,0.0,0.0,0.0,0.0,0.0,0.0,0.0,0.0,0.0,0.0,0.0,0.0,0.0,0.0,0.0,0.0,0.0,0.0,0.0,0.0,0.0,0.0,0.0,0.0,0.0,0.0,0.0,0.0,0.0,0.0,0.0,0.0,0.0,0.0,0.0,0.0,0.0,0.0,0.0,0.0,0.0,0.0,0.0,0.0,0.0,0.0,0.0,0.0,0.0,0.0,0.0,0.0,0.0,0.0,0.0,0.0,0.0,0.0,0.0,0.0,0.0,0.0,0.0,0.0,0.0,0.0,0.0,0.0,0.0,0.0,0.0,0.0,0.0,0.0,0.0,0.0,0.0,0.0,0.0,0.0,0.0,0.0,0.0,1.1483,1.2732,1.3515,1.3409,1.3515,1.3573,1.3563,1.4455,1.4159,1.2181,0.0,0.0,0.0,0.0,0.0,0.0,0.0,0.0,0.0,0.0,0.0,0.0,0.0,0.0,0.0,0.0,0.0,0.0,0.0,0.0,0.0,0.0,0.0,0.0,0.0,0.0,0.0,0.0,0.0,0.0,0.0,0.0,0.0,0.0,0.0,0.0,0.0,0.0,0.0,0.0,0.0,0.0,0.0,0.0,0.0,0.0,0.0,0.0,0.0,0.0,0.0,0.0,0.0,0.0,0.0,0.0,0.0,0.0,0.0,0.0,1.1259,1.0704,0.0,0.0,0.0,0.0,0.0,0.0,0.0,0.0,0.0,0.0,0.0,0.0,0.0,0.0,0.0,0.0,0.0,0.0,0.0,0.0,0.0,0.0,0.0,0.0,0.0,0.0,0.0,0.0,0.0,0.0,0.0,0.0,0.0,0.0,0.0,0.0,0.0,0.0,0.0,0.0,1.1446,1.2592,1.3266,1.3266,1.3266,1.3314,1.3409,1.3931,1.3712,1.2488,1.1903,0.0,0.0,0.0,0.0,0.0,0.0,0.0,0.0,0.0,0.0,0.0,0.0,0.0,0.0,0.0,0.0,0.0,0.0,0.0,0.0,0.0,0.0,0.0,0.0,0.0,0.0,0.0,0.0,0.0,0.0,0.0,0.0,0.0,0.0,0.0,0.0,0.0,0.0,0.0,0.0,0.0,0.0,0.0,0.0,0.0,0.0,0.0,0.0,0.0,0.0,0.0,0.0,0.0,0.0,0.0,0.0,0.0,0.0,0.0,1.3209,1.2586,0.0,0.0,0.0,0.0,0.0,0.0,0.0,0.0,0.0,0.0,0.0,0.0,0.0,0.0,0.0,0.0,0.0,0.0,0.0,0.0,0.0,0.0,0.0,0.0,0.0,0.0,0.0,0.0,0.0,0.0,0.0,0.0,0.0,0.0,0.0,0.0,0.0,0.0,0.0,0.0,1.1751,1.2673,1.317,1.3152,1.318,1.3218,1.3314,1.3732,1.3588,1.2593,1.2141,0.0,0.0,0.0,0.0,0.0,0.0,0.0,0.0,0.0,0.0,0.0,0.0,0.0,0.0,0.0,0.0,0.0,0.0,0.0,0.0,0.0,0.0,0.0,0.0,0.0,0.0,0.0,0.0,0.0,0.0,0.0,0.0,0.0,0.0,0.0,0.0,0.0,0.0,0.0,0.0,0.0,0.0,0.0,0.0,0.0,0.0,0.0,0.0,0.0,0.0,0.0,0.0,0.0,1.5773,1.6331,1.6224,1.6643,1.6714,1.636,1.5239,1.4792,1.4729,1.4204,0.0,0.0,0.0,0.0,0.0,0.0,0.0,0.0,0.0,0.0,0.0,0.0,0.0,0.0,0.0,0.0,0.0,0.0,0.0,0.0,0.0,0.0,1.5283,1.6458,1.6608,1.5799,1.3402,0.0,0.0,0.0,0.0,0.0,0.0,0.0,0.0,0.0,0.0,0.0,1.2167,1.2861,1.3252,1.3194,1.3213,1.3212,1.319,1.3647,1.3596,1.2745,1.2436,1.1762,0.0,0.0,0.0,0.0,0.0,0.0,0.0,0.0,0.0,0.0,0.0,0.0,0.0,0.0,0.0,0.0,0.0,0.0,0.0,0.0,0.0,0.0,0.0,0.0,0.0,0.0,0.0,0.0,0.0,0.0,0.0,0.0,1.2127,1.3024,0.0,0.0,0.0,0.0,0.0,0.0,0.0,0.0,0.0,0.0,0.0,0.0,0.0,1.4443,1.571,1.6613,1.728,1.7696,1.7871,1.7911,1.7855,1.7869,1.7767,1.7767,1.7585,0.0,1.6558,1.5299,0.0,0.0,0.0,0.0,0.0,0.0,0.0,0.0,0.0,0.0,0.0,0.0,0.0,0.0,0.0,0.0,0.0,0.0,0.0,0.0,0.0,0.0,1.7512,1.7122,1.7037,1.6656,1.5425,1.4631,1.3619,1.1879,1.1262,1.0819,0.0,0.0,0.0,0.0,0.0,0.0,1.2575,1.3132,1.3469,1.3428,1.3478,1.3372,1.3153,1.343,1.3457,1.3044,1.2833,1.248,1.188,1.0921,0.0,0.0,0.0,0.0,0.0,0.0,0.0,0.0,0.0,0.0,0.0,0.0,0.0,0.0,0.0,0.0,0.0,0.0,0.0,0.0,0.0,0.0,0.0,0.0,0.0,0.0,0.0,0.0,0.0,1.2288,1.3687,1.4408,1.4249,1.3651,0.0,0.0,0.0,0.0,0.0,0.0,0.0,0.0,0.0,1.5069,1.6001,1.6724,1.7359,1.7841,1.8261,1.8451,1.8696,1.8852,1.8852,1.8791,1.8811,1.8882,1.8801,1.8645,1.8342,1.6958,1.5684,1.4604,0.0,0.0,0.0,0.0,1.3616,1.3718,1.4625,1.5029,1.4996,1.4365,0.0,0.0,0.0,0.0,0.0,0.0,0.0,1.5676,1.7197,1.7544,1.751,1.7839,1.7611,1.7204,1.676,1.6222,1.5258,1.3617,1.3517,1.3379,1.2246,1.1431,0.0,0.0,0.0,1.2517,1.3453,1.372,1.3857,1.3857,1.3652,1.3326,1.289,1.2791,1.2559,1.2067,1.1874,1.1723,1.1617,1.1128,1.0518,0.0,0.0,0.0,0.0,0.0,0.0,0.0,0.0,0.0,0.0,0.0,0.0,0.0,0.0,0.0,0.0,0.0,0.0,0.0,0.0,0.0,0.0,0.0,0.0,0.0,0.0,0.0,0.0,1.3586,1.4822,1.5798,1.5619,1.5141,0.0,0.0,0.0,0.0,0.0,0.0,1.3935,1.5602,1.6709,1.7076,1.792,1.8409,1.8587,1.8608,1.8749,1.8975,1.9184,1.9387,1.9609,1.9609,1.9693,1.9861,1.9693,1.9634,1.9565,1.8338,1.6989,1.5655,1.6117,1.5689,1.4853,1.5456,1.5682,1.5791,1.6677,1.7052,1.7052,1.6255,1.5866,1.5444,1.3948,0.0,0.0,0.0,0.0,1.6469,1.8239,1.7937,1.7379,1.8217,1.8019,1.7557,1.7256,1.7081,1.6573,1.5048,1.5185,1.5233,1.3893,1.3022,0.0,1.3772,1.3488,1.3467,1.4267,1.4304,1.4297,1.4297,1.3854,1.3313,1.2733,1.2295,1.1775,1.1209,1.1091,1.1055,1.1138,1.1241,1.0903,1.0137,0.0,0.0,0.0,0.0,0.0,0.0,0.0,0.0,0.0,0.0,0.0,0.0,0.0,0.0,0.0,0.0,0.0,0.0,0.0,0.0,0.0,0.0,0.0,0.0,0.0,0.0,0.0,0.0,0.0,1.7357,1.6779,0.0,0.0,0.0,0.0,1.3676,1.5024,1.5958,1.6042,1.6982,1.7799,1.8477,1.8545,1.886,1.9538,1.8892,1.9099,2.0108,1.9599,1.9709,2.0498,2.0498,2.0498,2.0575,2.0498,2.0264,1.9814,1.8916,1.8262,1.7812,1.7478,1.7047,1.665,1.709,1.7376,1.7631,1.8221,1.8309,1.8209,1.8744,1.815,1.698,1.5967,1.5557,0.0,0.0,1.6148,1.6507,1.7734,1.7968,1.795,1.8004,1.7968,1.7658,1.6559,1.6882,1.6983,1.5625,1.5263,1.4988,1.4538,0.0,1.4093,1.4759,1.4429,1.4287,1.471,1.4792,1.4746,1.4746,1.4157,1.3497,1.2779,1.2123,1.1592,1.1226,1.1116,1.1049,1.099,1.1458,1.1447,1.106,1.0636,0.0,0.0,0.0,0.0,0.0,0.0,0.0,0.0,0.0,0.0,0.0,0.0,0.0,0.0,0.0,0.0,0.0,0.0,0.0,0.0,0.0,0.0,0.0,0.0,0.0,0.0,0.0,0.0,1.8055,1.7937,0.0,1.6826,1.635,1.5841,1.5201,1.5357,1.5695,1.6218,1.6946,1.7501,1.792,1.8257,1.8593,1.893,1.8979,1.9376,1.9963,2.0068,2.0323,2.0566,2.0566,2.0566,2.0566,2.0566,2.0478,2.0312,2.0,1.9463,1.8818,1.8672,1.8516,1.8389,1.8555,1.8674,1.8773,1.8921,1.9163,1.9222,1.9012,1.8144,1.7168,1.6807,1.6855,1.7054,1.7174,1.7206,1.736,1.8258,1.7945,1.7388,1.7872,1.7276,1.6489,1.6086,1.618,1.6034,1.4767,1.5536,1.6178,1.5594,1.4592,1.4138,1.4676,1.3774,1.3215,1.3582,1.3703,1.3888,1.424,1.3674,1.3063,1.2608,1.1647,1.08,1.0257,0.9948,0.9873,1.021,1.0379,1.0449,1.0416,1.0409,0.9797,0.0,0.0,0.0,0.0,0.0,0.0,0.0,0.0,0.0,0.0,0.0,0.0,0.0,0.0,0.0,0.0,0.0,0.0,0.0,0.0,0.0,0.0,0.0,0.0,0.0,0.0,1.7416,1.8761,1.8686,1.8374,1.7962,1.7194,1.648,1.5922,1.5889,1.6038,1.6388,1.7162,1.7709,1.8069,1.84,1.8742,1.9169,1.8924,1.917,2.0017,1.9734,1.9928,2.0509,2.0509,2.0678,2.1006,2.0678,2.0758,2.1006,2.0349,1.9938,1.9659,1.9373,1.9108,1.8873,1.8873,1.8864,1.892,1.8854,1.9104,1.9341,1.848,1.7862,1.7364,1.7151,1.7351,1.7579,1.75,1.7333,1.7261,1.8037,1.7245,1.6378,1.7134,1.6325,1.5401,1.5401,1.5401,1.5184,1.4377,1.5463,1.6249,1.5366,1.4471,1.4118,1.4775,1.3778,1.3058,1.3604,1.3437,1.3386,1.3623,1.3033,1.2486,1.2172,1.1343,1.0536,0.9735,0.9539,0.9465,0.951,0.9811,0.9995,1.0052,1.0052,0.9518,0.8522,0.0,0.0,0.0,0.0,0.0,0.0,0.0,0.0,0.0,0.0,0.0,0.0,0.0,0.0,0.0,0.0,0.0,0.0,0.0,0.0,0.0,0.0,0.0,1.5334,1.7237,1.8714,1.9368,1.8994,1.8539,1.8419,1.7511,1.6607,1.5682,1.6743,1.7179,1.6706,1.7805,1.8583,1.8948,1.8879,1.9392,2.0259,1.8535,1.8621,2.0343,1.8535,1.8698,2.0325,2.0325,2.0931,2.1802,2.0755,2.0931,2.1627,1.9742,1.9563,2.0252,1.9542,1.8745,1.8014,1.8006,1.8149,1.8249,1.8013,1.8199,1.8461,1.7485,1.7362,1.7596,1.702,1.6877,1.6877,1.686,1.6387,1.6073,1.6893,1.5946,1.5016,1.5806,1.5235,1.4545,1.453,1.453,1.453,1.453,1.4952,1.5002,1.384,1.3776,1.4164,1.508,1.4419,0.0,1.4684,1.3924,1.3216,1.2997,1.2389,1.1882,1.1546,1.1276,1.0729,0.9763,1.0008,0.9814,0.9008,0.9757,1.0156,1.0156,0.9598,0.9047,0.8594,0.0,0.0,0.0,0.0,0.0,0.0,0.0,0.0,0.0,0.0,0.0,0.0,0.0,0.0,0.0,0.0,0.0,0.0,0.0,0.0,0.0,1.4016,1.4815,1.5461,1.6968,1.8216,1.8573,1.9013,1.8896,1.7913,1.7535,1.709,1.6412,1.6553,1.6604,1.6522,1.6786,1.7052,1.7144,1.7152,1.7355,1.7861,1.7794,1.8057,1.8836,1.8659,1.8879,1.9392,1.9392,1.9563,1.9818,1.9478,1.9563,1.9742,1.9221,1.8793,1.8476,1.868,1.8573,1.8292,1.81,1.8238,1.863,1.8664,1.8725,1.8655,1.8547,1.7777,1.6973,1.6822,1.634,1.5728,1.5477,1.5321,1.5347,1.5242,1.5034,1.4836,1.4793,1.4387,1.3822,1.3652,1.3673,1.36,1.3025,1.3526,1.4072,1.4261,1.3754,1.3317,1.3584,1.2772,1.2123,1.2365,1.2029,1.1984,1.2409,1.1811,1.1447,1.1729,1.0843,1.0093,0.9738,0.935,0.9113,0.8857,0.9082,0.9387,0.973,0.9127,0.8785,0.0,0.0,0.0,0.0,0.0,0.0,0.0,0.0,0.0,0.0,0.0,0.0,0.0,0.0,0.0,0.0,0.0,0.0,0.0,0.0,0.0,0.0,1.411,1.4841,1.4604,1.6673,1.8222,1.842,1.8736,1.8602,1.7662,1.7371,1.6938,1.6089,1.6265,1.6337,1.6109,1.6386,1.663,1.6762,1.6769,1.7039,1.7682,1.7583,1.7846,1.8494,1.8377,1.8548,1.8894,1.8806,1.8982,1.9511,1.8982,1.9071,1.9423,1.8628,1.8281,1.8136,0.0,0.0,0.0,0.0,1.7123,1.7367,1.744,1.7448,1.7375,1.7448,1.6862,1.6124,1.6124,1.5801,1.535,1.516,1.4945,1.482,1.4867,1.4482,1.4101,1.4137,1.3621,1.3076,1.277,1.2858,1.2743,1.2177,1.2445,0.0,1.3302,1.3014,1.2821,1.3248,1.2459,1.1884,1.2172,1.1799,1.1532,1.1666,1.1288,1.1008,1.0863,1.0282,0.0,0.0,0.0,0.8519,0.8242,0.8229,0.0,0.0,0.0,0.0,0.0,0.0,0.0,0.0,0.7825,0.8055,0.0,0.0,0.0,0.0,0.0,0.0,0.0,0.0,0.0,0.0,0.0,0.0,0.0,0.0,0.0,0.0,1.3327,1.4156,1.354,1.6142,1.8151,1.8228,1.8036,1.7719,1.7339,1.6919,1.633,1.5335,1.5913,1.6235,1.5773,1.6535,0.0,0.0,0.0,1.7692,1.8603,1.7692,1.7692,1.8611,1.7692,1.7692,1.8519,1.8342,1.8788,1.9687,1.8696,1.8788,1.9687,1.7963,1.7785,1.8448,1.7799,1.6927,1.5928,1.5606,1.5398,1.5391,1.5354,0.0,0.0,1.5304,1.5304,1.5228,1.5228,1.5144,1.5144,1.5144,1.4643,1.4307,1.497,1.4034,1.3099,1.3627,1.3104,1.2454,1.2176,1.2093,1.1992,1.1808,1.1732,1.1706,1.1552,1.1929,1.2519,1.3382,1.2806,1.2497,1.3145,1.2452,1.1657,1.1036,1.0943,0.0,0.9472,0.968,0.9288,0.7887,0.8137,0.8057,0.7447,0.743,0.743,0.7372,0.7588,0.7554,0.7286,0.8085,0.821,0.7617,0.7928,0.8606,0.0,0.0,0.0,0.0,0.0,0.0,0.0,0.0,0.0,0.0,0.0,0.0,0.0,0.0,0.0,1.3411,1.3544,1.3649,1.4559,1.4986,1.5297,1.5628,1.5815,1.5913,1.6206,1.5549,1.5192,1.5558,1.5968,1.6227,1.6101,1.6858,1.7267,1.7326,1.7326,1.7419,1.7606,1.7246,1.716,1.7347,1.6958,0.0,1.7044,1.6951,1.7044,1.7318,1.7044,1.7239,1.7613,1.7254,1.6958,1.6713,1.6992,1.6743,1.6243,1.5935,1.5633,1.549,1.5231,1.5054,1.4873,1.4873,1.4461,1.4041,1.4041,1.3626,0.0,1.3209,1.3124,1.3039,1.3209,1.3002,1.2741,1.2609,1.2599,1.2494,1.2221,1.2148,1.2056,1.1999,1.1872,1.1477,1.0864,1.1471,1.215,1.2298,1.2298,1.2358,1.251,1.2155,1.1589,1.0823,1.0453,0.9808,0.8952,0.8572,0.8292,0.8003,0.7838,0.7724,0.7575,0.7575,0.7506,0.7323,0.7491,0.7486,0.7116,0.758,0.7756,0.7798,0.8839,0.887,0.0,0.0,0.0,0.0,0.0,0.0,0.0,0.0,0.0,0.0,0.0,1.0118,1.1357,0.0,1.1468,1.3068,1.3445,1.3627,1.3854,1.3995,1.4285,1.4829,1.4892,1.5046,1.5214,1.5041,1.4841,1.4835,1.5347,1.5622,1.5622,1.6379,1.6857,1.7153,1.7153,1.7059,1.6958,1.6292,1.6298,1.6784,1.6103,1.6103,1.6588,1.6588,1.6683,1.6784,1.6784,1.6965,1.7153,1.677,1.6197,1.5704,1.5933,1.578,1.5479,1.5096,1.4886,1.4751,1.4455,1.4176,1.3893,1.3835,1.3457,1.3033,1.3203,1.2954,1.2705,1.2705,1.2705,1.2705,1.2705,1.2705,1.2583,1.1945,1.1916,1.1758,1.1002,1.086,1.0701,1.0539,1.0385,1.0182,0.969,1.0126,1.0651,1.1174,1.17,1.1855,1.1471,1.1279,1.0791,0.9876,0.953,0.897,0.7959,0.725,0.6822,0.6822,0.6698,0.6588,0.6588,0.6717,0.6653,0.6464,0.6628,0.6621,0.6371,0.6963,0.7129,0.6903,0.8245,0.8567,0.0,0.0,0.0,0.0,0.0,0.0,0.0,0.0,0.9589,1.062,1.0703,1.0753,1.1142,1.1375,1.1626,1.2003,1.2667,1.2836,1.2215,1.2666,1.3303,1.3881,1.4047,1.4285,1.4428,1.4539,1.4478,1.3908,1.4376,1.4669,1.4669,1.552,1.6197,1.6588,1.6784,1.6784,1.6588,1.5717,1.5629,1.6494,1.5622,1.5622,1.6393,1.6393,1.6588,1.6885,1.6791,1.6878,1.6958,1.6285,1.5527,1.486,1.486,1.4627,1.4216,1.4214,1.4113,1.3985,1.3711,1.3264,1.2868,1.2868,1.2611,1.2433,1.2552,1.2705,1.2705,1.2705,1.2705,1.2705,1.2705,1.2534,1.2272,1.1499,1.1149,1.0752,0.98,0.9559,0.9433,0.91,0.8969,0.8788,0.8635,0.8799,0.9301,1.0115,1.0801,1.1025,1.034,1.0265,0.9867,0.8743,0.8578,0.8126,0.6979,0.6148,0.5656,0.5687,0.5685,0.5674,0.5674,0.5805,0.5805,0.5674,0.5876,0.5818,0.5619,0.6396,0.649,0.5937,0.7113,0.7771,0.6984,0.6861,0.7873,0.8811,0.9588,1.0356,0.0,0.0,1.1187,1.1671,1.1774,1.1799,1.2095,1.1258,1.0652,1.0908,1.0154,0.9528,0.9617,1.0366,1.092,1.1166,1.205,1.2964,1.3933,1.3414,1.3335,1.3908,1.3511,1.3312,1.3312,1.4465,1.514,1.5235,1.6103,1.6588,1.6588,1.6218,1.6123,1.6224,1.5927,1.573,1.5927,1.5927,1.6021,1.6319,1.6021,1.5927,1.592,1.5439,1.4765,1.3998,1.3998,1.3601,1.3171,1.4129,1.413,1.3635,1.3282,1.2734,1.224,1.2087,1.2275,1.2411,1.2433,1.2534,1.2705,1.2705,1.2705,1.2705,1.2705,1.21,1.1408,1.1322,1.0626,1.0005,0.9894,0.9658,0.9517,0.9475,0.9166,0.8755,0.8194,0.859,0.9074,0.915,0.9372,0.9523,0.9448,0.9448,0.9055,0.8024,0.7928,0.7415,0.6302,0.6104,0.6022,0.587,0.5844,0.5836,0.5836,0.5902,0.5902,0.5836,0.6048,0.5986,0.5588,0.6071,0.6093,0.583,0.6177,0.6451,0.7115,0.7274,0.0,0.0,0.894,0.958,0.9802,0.991,1.0187,1.108,1.1401,1.1473,1.1403,1.1074,1.072,0.0,0.9693,0.938,0.9665,0.9767,0.9888,0.9982,1.0801,1.1624,1.2522,1.2262,1.2128,1.2349,1.216,1.2155,1.263,1.3113,1.3884,1.4758,1.5235,1.5717,1.6116,1.5445,1.5356,1.5927,1.4663,1.4663,1.5825,1.5343,1.5445,1.5927,1.5242,1.486,1.4675,1.4478,1.3908,1.3238,1.3238,1.305,1.2845,1.3408,1.3368,1.3059,1.2813,1.2543,1.2314,1.2252,1.235,1.2392,1.2546,1.2659,1.2705,1.2705,1.2705,1.2705,1.2705,1.2443,1.1837,1.0707,1.0188,0.9575,0.8532,0.8214,0.8053,0.8041,0.7824,0.7542,0.7205,0.7285,0.7403,0.7403,0.8389,0.8922,0.8318,0.8241,0.7905,0.6995,0.6821,0.6559,0.6071,0.5976,0.5895,0.5828,0.5967,0.5996,0.583,0.5966,0.5966,0.5827,0.5891,0.587,0.5752,0.5891,0.5996,0.5997,0.5927,0.6115,0.6586,0.0,0.0,0.754,0.8259,0.8958,0.8655,0.8937,0.9432,1.0258,1.0817,1.093,1.0463,1.0492,1.0324,0.9315,0.8859,0.8765,0.9004,0.8922,0.8878,0.8783,0.9427,1.0214,1.0768,1.1328,1.1456,1.1179,1.1194,1.1385,1.176,1.2052,1.2727,1.3692,1.398,1.4567,1.535,1.4682,1.4682,1.535,1.3992,1.3992,1.5153,1.486,1.4962,1.5445,1.4567,1.4088,1.3908,1.3715,1.3238,1.2764,1.2764,1.2764,1.2764,1.2764,1.2764,1.2737,1.2571,1.2316,1.2078,1.2029,1.1882,1.1589,1.1787,1.186,1.1832,1.1832,1.1923,1.1918,1.1918,1.1746,1.123,0.984,0.9314,0.8794,0.7401,0.7139,0.7109,0.7007,0.6865,0.6729,0.6695,0.6524,0.64,0.64,0.7512,0.8089,0.7253,0.7176,0.6949,0.6338,0.6162,0.6074,0.6034,0.5928,0.5847,0.5803,0.5731,0.5688,0.5787,0.5713,0.5717,0.5853,0.5853,0.5906,0.5875,0.5875,0.5971,0.6089,0.6009,0.6166,0.0,0.0,0.5617,0.6906,0.8139,0.902,0.9131,0.9362,0.9595,0.9431,1.0181,1.0463,0.9435,0.9165,0.8859,0.7962,0.7036,0.641,0.652,0.7099,0.749,0.7201,0.7858,0.8422,0.8773,1.0481,1.1456,1.1179,1.1194,1.0998,1.0511,1.1473,1.1755,1.1365,1.2242,1.3312,1.4298,1.4298,1.4298,1.4394,1.479,1.449,1.3607,1.4394,1.4688,1.4688,1.4196,1.3908,1.3806,1.3147,1.2861,1.2764,1.2764,1.2764,1.2764,1.2764,1.2764,1.2764,1.2754,1.2155,1.1225,1.1211,1.0435,0.949,0.9479,0.9553,0.9666,0.9666,0.984,1.0009,1.0009,0.9318,0.8627,0.854,0.7841,0.7139,0.7139,0.7139,0.7139,0.7136,0.7017,0.6919,0.7165,0.6998,0.6795,0.6795,0.6741,0.6563,0.6338,0.6338,0.6338,0.6338,0.6257,0.6193,0.604,0.6027,0.5959,0.581,0.5081,0.5009,0.5796,0.5078,0.5078,0.609,0.609,0.6093,0.6097,0.6097,0.6026,0.6023,0.6165,0.6328,0.0,0.0,0.5104,0.6019,0.6827,0.7451,0.7382,0.7453,0.7667,0.8142,0.8328,0.8337,0.807,0.7978,0.7567,0.6783,0.65,0.6309,0.6124,0.6298,0.6263,0.5992,0.6839,0.7379,0.7014,0.8559,0.0,1.0083,1.0095,0.9981,0.9916,1.0212,1.0694,1.1175,1.156,1.2242,1.3221,1.3221,1.3221,1.3216,1.3414,1.2926,1.195,1.2247,1.2737,1.3335,1.2457,1.2554,1.3141,1.2856,1.2365,1.1765,1.1765,1.1277,1.069,1.069,1.069,1.0788,1.1473,1.1077,1.0186,1.0121,0.987,0.9489,0.9397,0.9388,0.9473,0.934,0.9483,0.9666,0.9666,0.9579,0.9231,0.8627,0.8281,0.7841,0.7228,0.7139,0.7139,0.7139,0.7024,0.6929,0.7011,0.6843,0.6675,0.6652,0.651,0.6412,0.6338,0.6338,0.6338,0.6338,0.6338,0.6005,0.541,0.5328,0.5078,0.45,0.4197,0.4169,0.4249,0.4024,0.4024,0.4395,0.4395,0.443,0.4576,0.4576,0.4596,0.4711,0.4709,0.473,0.1148,0.2007,0.309,0.4559,0.5344,0.5821,0.604,0.6089,0.618,0.6731,0.6821,0.6757,0.6538,0.6566,0.6455,0.594,0.5903,0.5955,0.5955,0.5917,0.5749,0.5295,0.5916,0.6283,0.0,0.0,0.0,0.9095,0.9221,0.9401,0.962,0.992,1.031,1.0592,1.0788,1.1272,1.2145,1.2145,1.2242,1.2436,1.2052,1.1668,1.1179,1.1179,1.1575,1.217,1.1487,1.1585,1.2273,1.2467,1.1873,1.0979,1.117,1.0583,0.9608,0.9608,0.9312,0.9209,1.0293,0.9895,0.9011,0.9011,0.88,0.8449,0.835,0.8255,0.823,0.8209,0.8312,0.8444,0.8444,0.8528,0.8528,0.8017,0.7933,0.7757,0.7228,0.7139,0.7139,0.7139,0.7065,0.683,0.6567,0.6364,0.6222,0.6081,0.5949,0.6006,0.6268,0.6025,0.5867,0.5867,0.5553,0.516,0.4613,0.4535,0.4377,0.383,0.3521,0.342,0.3597,0.329,0.3291,0.3595,0.3595,0.3697,0.383,0.383,0.3832,0.3988,0.391,0.391,-0.074,-0.0843,-0.0173,0.2579,0.3472,0.4014,0.5153,0.531,0.5192,0.5137,0.5567,0.575,0.4771,0.0,0.5508,0.5281,0.5383,0.5496,0.5825,0.5876,0.5684,0.0,0.0,0.0,0.0,0.0,0.0,0.8113,0.8814,0.9312,0.9529,1.0609,1.0703,0.9628,1.0117,1.06,1.1077,1.1077,1.1365,1.1858,1.0895,1.0605,1.1096,1.1096,1.1096,1.1194,1.1194,1.1194,1.1194,1.1683,1.1282,1.0293,1.0877,1.0391,0.941,0.941,0.8814,0.8021,0.9114,0.8814,0.7925,0.7925,0.715,0.6276,0.6271,0.6295,0.6285,0.6279,0.6361,0.6343,0.6343,0.6428,0.6432,0.6704,0.6795,0.6792,0.7054,0.7054,0.7054,0.7054,0.7051,0.6786,0.5808,0.5531,0.5411,0.5296,0.5183,0.5474,0.6132,0.5479,0.4927,0.4927,0.4222,0.3752,0.3752,0.3752,0.3752,0.3677,0.2898,0.2821,0.3675,0.2899,0.2821,0.3675,0.3677,0.3677,0.3677,0.3677,0.3677,0.3677,0.3834,0.3832,-0.1281,-0.1429,-0.1209,-0.0477,0.0096,0.0661,0.1291,0.2875,0.4074,0.3585,0.4103,0.438,0.3617,0.3469,0.0,0.4659,0.4557,0.0,0.5255,0.5353,0.0,0.4812,0.0,0.5049,0.5005,0.5138,0.0,0.0,0.8115,0.8886,0.8722,0.9916,1.0314,0.9628,0.9727,0.992,1.0015,1.0015,1.0113,1.0212,0.992,0.992,1.0019,1.0019,1.0216,1.0609,1.0609,1.0502,1.0297,1.069,0.9801,0.8319,0.8711,0.8117,0.7229,0.7229,0.703,0.6833,0.7129,0.703,0.6833,0.6833,0.6614,0.6377,0.6293,0.6258,0.6114,0.6023,0.6088,0.6169,0.6169,0.6257,0.6432,0.652,0.652,0.652,0.6609,0.67,0.6881,0.6881,0.6432,0.5985,0.5719,0.5007,0.4411,0.4385,0.4888,0.5352,0.5476,0.4663,0.4142,0.4142,0.3908,0.3521,0.2899,0.2821,0.2586,0.1961,0.1727,0.1727,0.1961,0.1727,0.1727,0.1961,0.1961,0.1961,0.1961,0.1961,0.1961,0.1961,0.1961,0.1961,-0.1436,-0.1591,-0.1643,-0.1643,-0.1144,-0.0742,-0.0529,0.0759,0.1999,0.235,0.2583,0.0,0.2441,0.2158,0.0,0.0,0.0,0.0,0.4317,0.4818,0.5072,0.0,0.4908,0.0,0.4769,0.4908,0.5138,0.0,0.6764,0.7838,0.8329,0.9023,0.9418,0.9628,0.9525,0.9525,0.9628,0.9628,0.9628,0.9628,0.9628,0.9426,0.9031,0.9031,0.9027,0.9023,0.9023,0.892,0.8814,0.9304,0.8616,0.7335,0.7826,0.7329,0.6437,0.6437,0.6437,0.6437,0.6437,0.6437,0.6437,0.6437,0.6437,0.6426,0.6361,0.626,0.614,0.6018,0.599,0.6068,0.5922,0.5997,0.6174,0.6343,0.6346,0.6352,0.6621,0.6624,0.6536,0.6171,0.5636,0.5099,0.4563,0.3631,0.3077,0.3519,0.3968,0.4147,0.4182,0.3974,0.372,0.3292,0.2898,0.2508,0.2041,0.1962,0.1805,0.1335,0.1335,0.1335,0.1335,0.1335,0.1335,0.1335,0.1335,0.1335,0.1335,0.1335,0.1335,0.1335,0.1335,0.1335,-0.1222,-0.1549,-0.157,-0.1566,-0.1142,-0.0818,-0.1101,-0.079,-0.0146,0.1106,0.0,0.1248,0.1292,0.102,0.0985,0.1506,0.0,0.2934,0.3291,0.4159,0.4636,0.4524,0.4433,0.4331,0.4331,0.4531,0.4632,0.4632,0.5338,0.6539,0.8035,0.8028,0.8425,0.9426,0.9221,0.9221,0.943,0.9529,0.9529,0.9327,0.943,0.9031,0.8233,0.8233,0.7836,0.7238,0.7235,0.7238,0.7135,0.7925,0.763,0.6742,0.7531,0.7232,0.6439,0.6439,0.6439,0.6442,0.6442,0.6442,0.6442,0.6439,0.6439,0.6439,0.6442,0.6363,0.6246,0.6219,0.6007,0.589,0.5405,0.5471,0.5744,0.608,0.6086,0.6189,0.6634,0.6275,0.5824,0.528,0.4926,0.4391,0.3226,0.2149,0.1701,0.2598,0.2734,0.2785,0.2605,0.3253,0.3299,0.2448,0.1731,0.1335,0.1335,0.1335,0.1335,0.1335,0.1335,0.1335,0.1335,0.1335,0.1335,0.1335,0.1335,0.1335,0.1335,0.1335,0.1335,0.1335,0.1335,0.1335,-0.0947,-0.1258,-0.1566,-0.1637,-0.0847,-0.0271,-0.0815,-0.0901,0.0,0.0,0.057,0.1141,0.0376,0.0228,0.0376,0.114,0.0,0.0,0.0,0.0,0.2467,0.0,0.0,0.0,0.2116,0.2922,0.0,0.0,0.4431,0.5436,0.6342,0.7428,0.8226,0.863,0.8531,0.8531,0.863,0.9229,0.8931,0.7637,0.8333,0.8233,0.7437,0.7437,0.7338,0.7238,0.7434,0.7132,0.6537,0.7135,0.6936,0.6142,0.6537,0.6545,0.6358,0.6358,0.6364,0.6369,0.6369,0.6369,0.6369,0.6361,0.6358,0.6361,0.6366,0.6388,0.6365,0.6337,0.6024,0.5344,0.3783,0.4576,0.5484,0.4837,0.4837,0.502,0.4837,0.4115,0.3846,0.501,0.475,0.4218,0.3587,0.2331,0.1435,0.1614,0.2323,0.2567,0.1741,0.1756,0.1706,0.1538,0.1351,0.1335,0.1335,0.1335,0.1335,0.1335,0.1335,0.1335,0.1335,0.1335,0.1335,0.1335,0.1335,0.1335,0.1335,0.1335,0.1335,0.1335,0.1335,0.1335,-0.1214,-0.1334,-0.1444,-0.0943,-0.0728,-0.0688,-0.062,0.0,0.0,0.0,-0.0212,0.0153,-0.0296,0.0,0.0,0.0,0.0,0.0,0.0,0.0,0.0,0.0,0.0,0.0,0.0,0.2016,0.262,0.3123,0.3726,0.4531,0.5942,0.7036,0.7434,0.7138,0.7537,0.7733,0.7733,0.8134,0.7935,0.7238,0.7633,0.7335,0.6539,0.6539,0.6337,0.5934,0.6134,0.5934,0.5636,0.6044,0.605,0.5749,0.6255,0.6364,0.6266,0.5144,0.474,0.4744,0.4744,0.4744,0.4947,0.6067,0.5658,0.474,0.4742,0.4714,0.4759,0.4766,0.5351,0.5531,0.3477,0.3525,0.4131,0.3671,0.4844,0.5302,0.2601,0.206,0.2238,0.2774,0.3406,0.3588,0.2601,0.1883,0.1436,0.1436,0.1793,0.1965,0.1503,0.1376,0.1343,0.1328,0.1299,0.1281,0.1281,0.1266,0.1335,0.1335,0.1335,0.1335,0.1335,0.1335,0.1335,0.1335,0.1335,0.1335,0.1335,0.1021,0.11,0.1336,0.1273,0.1281,-0.1369,-0.1306,-0.1039,-0.0464,-0.0707,-0.0905,-0.0597,-0.0735,0.0,0.0,-0.0797,-0.0776,-0.0736,0.0,0.0,0.0,0.0,0.0,0.0,0.0,0.0,0.0,0.0,0.0,0.0908,0.1109,0.0,0.2417,0.2922,0.3927,0.5639,0.6337,0.6439,0.6042,0.6639,0.6939,0.6939,0.7138,0.7036,0.6736,0.6839,0.6539,0.5739,0.5739,0.5238,0.4431,0.4533,0.4431,0.423,0.464,0.4744,0.4845,0.5354,0.566,0.556,0.3831,0.2923,0.2519,0.2519,0.2822,0.3531,0.5672,0.5262,0.3731,0.2822,0.2519,0.251,0.256,0.3774,0.4563,0.2785,0.2275,0.2243,0.2237,0.4127,0.4858,0.0988,0.0628,0.1077,0.0897,0.1254,0.1254,0.009,0.0179,0.0358,0.0358,0.0717,0.0806,0.0627,0.0707,0.0783,0.0598,0.1,0.1309,0.1303,0.1281,0.1264,0.1336,0.1021,0.0864,0.1021,0.0864,0.0707,0.0707,0.0785,0.0864,0.0942,0.0785,0.0866,0.103,0.121,0.1306,-0.1246,-0.0822,-0.0371,-0.1204,-0.0795,-0.0247,-0.0821,0.0,0.0,-0.0826,-0.0764,-0.0734,-0.0804,-0.082,0.0,0.0,0.0,0.0,0.0,0.0,0.0,0.0,0.0,0.0,-0.1313,-0.0404,0.0202,0.0302,0.2115,0.3726,0.4834,0.4935,0.5336,0.5942,0.6042,0.6142,0.6142,0.6839,0.6437,0.5035,0.5739,0.5639,0.4935,0.4935,0.4331,0.3324,0.3627,0.3122,0.2315,0.2517,0.2718,0.2718,0.2718,0.3025,0.3433,0.323,0.1917,0.0303,0.0303,0.1616,0.3542,0.5684,0.6295,0.5365,0.1515,0.0303,0.0302,0.0296,0.0484,0.0569,0.0279,0.0274,0.0269,0.0269,0.1076,0.1705,0.0807,0.0359,0.0359,0.1166,-0.1974,-0.4864,-0.5046,-0.3857,-0.2861,-0.2861,-0.1699,-0.0984,-0.1697,-0.1429,-0.1337,-0.1777,0.0086,0.1333,0.1305,0.13,0.1286,0.1338,0.0078,-0.0392,0.0079,-0.0627,-0.1097,-0.1097,-0.0784,-0.047,-0.0235,0.0784,0.0873,0.0243,0.0975,0.1317,-0.0681,-0.0702,-0.0803,-0.0714,-0.068,-0.087,-0.1599,0.0,-0.1006,-0.1642,-0.1187,-0.0813,-0.1101,-0.0987,-0.0839,0.0,-0.0905,-0.0979,-0.0994,0.0,0.0,0.0,0.0,0.0,0.0,0.0,-0.0706,-0.0,0.2015,0.3123,0.2922,0.413,0.4935,0.5238,0.5238,0.5238,0.5238,0.5636,0.5436,0.4834,0.4431,0.4128,0.3827,0.3123,0.262,0.2217,0.2318,0.2116,0.1813,0.1914,0.1914,0.1813,0.0504,0.0101,0.0404,0.1009,0.0707,-0.0,-0.0,0.0606,0.1415,0.2224,0.2527,0.2223,0.0505,-0.0,-0.0,-0.0,-0.0,-0.0,-0.0,-0.0,-0.0,-0.0,0.0269,-0.009,-0.2604,-0.3326,-0.3056,-0.17,-0.2956,-0.4216,-0.4216,-0.3762,-0.3669,-0.4576,-0.4216,-0.3496,-0.2685,-0.3405,-0.4037,-0.4214,-0.2181,-0.0768,-0.0846,-0.0835,-0.082,-0.0721,-0.1279,-0.143,-0.1175,-0.1487,-0.1734,-0.1759,-0.2079,-0.2013,-0.1469,-0.1226,-0.074,-0.0,-0.0252,-0.017,-0.0321,-0.0585,-0.0854,-0.0512,-0.1297,-0.2192,0.0,-0.1798,-0.1411,-0.2041,-0.1376,-0.0809,-0.1121,-0.0976,-0.0822,0.0,-0.084,-0.0908,-0.1029,-0.1174,0.0,0.0,0.0,-0.1603,0.0,-0.1506,-0.1111,0.0101,0.1411,0.2116,0.1917,0.3123,0.4029,0.4331,0.4634,0.4834,0.4834,0.4834,0.4634,0.4331,0.3525,0.3022,0.272,0.1916,0.1412,0.1109,0.1109,0.0907,0.0605,0.0605,0.0605,0.0504,-0.101,-0.1617,-0.1516,-0.1313,-0.1515,-0.1818,-0.1211,-0.0908,-0.0807,-0.0202,-0.0,-0.0,-0.0,-0.0,-0.0,-0.0,-0.0,-0.0,-0.0,-0.0,-0.0,-0.0,-0.0,-0.1078,-0.4867,-0.5684,-0.5407,-0.4214,-0.403,-0.4028,-0.4028,-0.4026,-0.4389,-0.557,-0.5665,-0.5211,-0.3942,-0.4848,-0.5665,-0.5662,-0.4244,-0.3232,-0.3213,-0.3252,-0.3191,-0.3202,-0.3113,-0.3008,-0.272,-0.2717,-0.2737,-0.2865,-0.3359,-0.3386,-0.2935,-0.3023,-0.2358,-0.1017,-0.1292,-0.1307,-0.0598,-0.0314,-0.0244,-0.114,-0.2934,-0.4183,0.0,-0.24,-0.1947,-0.1722,-0.1186,-0.0719,-0.0719,-0.0744,-0.0822,-0.0802,-0.0857,-0.0939,-0.1059,-0.1153,0.0,0.0,0.0,-0.1493,-0.1143,-0.1384,-0.101,0.0403,0.0202,0.0806,0.2623,0.2017,0.2116,0.3224,0.423,0.4834,0.4834,0.4834,0.423,0.3224,0.3224,0.262,0.1613,0.1613,0.1008,-0.0,-0.0,-0.0605,-0.1617,-0.1617,-0.1617,-0.1617,-0.1617,-0.1617,-0.1819,-0.3334,-0.4958,-0.608,-0.3934,-0.3123,-0.282,-0.0705,-0.0,-0.0,-0.0,-0.0,-0.0,-0.0,-0.0,-0.0,-0.0,-0.0,-0.0,-0.0,-0.0,-0.1078,-0.4867,-0.5684,-0.5681,-0.5673,-0.5665,-0.5657,-0.5657,-0.5649,-0.5644,-0.5733,-0.5741,-0.5654,-0.5646,-0.5652,-0.5744,-0.5735,-0.5644,-0.5689,-0.5675,-0.5667,-0.5698,-0.5658,-0.5555,-0.5215,-0.4711,-0.4703,-0.4699,-0.4701,-0.4701,-0.4701,-0.4703,-0.411,-0.356,-0.3029,-0.1993,-0.158,-0.1471,-0.1813,-0.2068,-0.1749,-0.246,-0.3289,-0.3525,-0.2643,-0.1983,-0.2547,-0.1627,-0.0809,-0.1121,-0.0954,-0.0763,-0.0854,-0.0885,0.0,0.0,0.0,0.0,-0.25,-0.1754,-0.2063,0.0,0.0,-0.1817,-0.2418,-0.1411,-0.0605,-0.0303,0.0908,0.1714,0.2116,0.2418,0.262,0.262,0.262,0.2418,0.2116,0.1411,0.0806,0.0504,-0.0303,-0.0808,-0.1111,-0.1111,-0.1716,-0.2722,-0.3025,-0.3123,-0.3118,-0.3218,-0.3219,-0.3219,-0.3422,-0.474,-0.6271,-0.5658,-0.5354,-0.5253,-0.4643,-0.3428,-0.2216,-0.2217,-0.323,-0.3731,-0.0794,-0.0,-0.0,-0.0,-0.1915,-0.387,-0.387,-0.2875,-0.269,-0.5124,-0.5665,-0.5662,-0.5744,-0.5741,-0.5738,-0.5738,-0.5735,-0.5733,-0.5733,-0.5735,-0.5735,-0.5733,-0.5735,-0.5735,-0.5733,-0.5733,-0.5722,-0.5689,-0.5687,-0.5632,-0.5598,-0.5499,-0.5376,-0.521,-0.5204,-0.5241,-0.5235,-0.5238,-0.5276,-0.5357,-0.4913,-0.4399,-0.3899,-0.3544,-0.3469,0.0,-0.2816,-0.3192,-0.2627,-0.259,-0.2881,-0.3413,-0.2595,-0.1865,-0.2448,-0.1568,-0.0809,-0.1077,-0.0921,-0.0776,-0.0851,-0.0883,0.0,0.0,0.0,0.0,-0.4486,0.0,0.0,0.0,-0.3715,-0.2623,-0.2722,-0.2117,-0.1716,-0.1617,-0.0303,0.0202,-0.0201,0.1008,0.1613,0.1613,0.1613,0.1412,0.1008,0.0302,-0.0202,-0.0605,-0.1313,-0.1818,-0.222,-0.222,-0.2822,0.0,-0.4026,-0.4327,-0.4622,-0.4722,-0.5027,-0.5434,-0.5029,-0.6037,-0.7559,-0.6862,-0.6959,-0.7356,-0.7363,-0.6039,-0.4423,-0.4632,-0.5454,-0.5655,-0.2186,-0.1166,-0.1139,-0.1125,-0.284,-0.486,-0.5497,-0.4766,-0.4308,-0.5476,-0.5657,-0.5744,-0.5735,-0.5733,-0.5733,-0.5733,-0.5733,-0.5733,-0.5733,-0.5733,-0.5733,-0.5733,-0.5733,-0.5733,-0.5733,-0.5733,-0.5733,-0.5733,-0.5733,-0.57,-0.5624,-0.5531,-0.5586,-0.551,-0.5507,-0.5542,-0.5619,-0.5531,-0.5657,-0.5733,-0.5371,-0.5013,-0.4565,-0.4746,-0.4656,0.0,-0.3273,-0.3595,-0.3587,-0.3278,-0.2959,-0.2918,-0.2301,0.0,-0.1709,-0.1153,-0.072,-0.0725,-0.0768,-0.0807,-0.0818,0.0,0.0,0.0,-0.3655,0.0,0.0,-0.6156,0.0,-0.5003,-0.4491,-0.3426,-0.1713,-0.2421,-0.2725,-0.1919,-0.1818,-0.2321,-0.3324,-0.0403,0.1108,0.1108,0.131,0.0806,-0.0202,-0.0202,-0.0706,-0.1718,-0.1818,-0.2422,-0.3324,-0.3324,-0.3924,-0.5022,-0.5022,-0.5527,-0.6237,-0.6237,-0.7054,-0.8182,-0.7862,-0.8553,-0.9442,-0.7935,-0.812,-0.8905,-0.9023,-0.7918,-0.6614,-0.6851,-0.667,-0.5967,-0.4026,-0.323,-0.3136,-0.3132,-0.3137,-0.3496,-0.5305,-0.567,-0.5668,-0.566,-0.5657,-0.5744,-0.5735,-0.5733,-0.5733,-0.5733,-0.5733,-0.5733,-0.5733,-0.5733,-0.5733,-0.5733,-0.5733,-0.5733,-0.5733,-0.5733,-0.5733,-0.5733,-0.5733,-0.5733,-0.5733,-0.5733,-0.5733,-0.5733,-0.5733,-0.5733,-0.5733,-0.5733,-0.5733,-0.5733,-0.5733,-0.5463,-0.5099,-0.5463,-0.5196,-0.3028,0.0,-0.3579,-0.3422,-0.3478,-0.3471,0.0,-0.2544,-0.2076,0.0,0.0,-0.0733,-0.0778,-0.078,-0.0813,-0.0927,0.0,0.0,-0.231,0.0,0.0,-0.7133,-0.6243,-0.5872,-0.6594,-0.5724,-0.534,-0.5942,-0.5438,-0.5138,-0.4935,-0.4327,-0.4124,-0.4423,-0.3718,-0.3316,-0.3316,-0.1713,-0.1412,-0.2417,-0.2417,-0.262,-0.2822,-0.3725,-0.4225,-0.4425,-0.4425,-0.552,-0.7211,-0.7211,-0.8301,-0.9989,-0.9989,-1.0194,-1.0404,-1.0105,-1.0199,-1.0395,-0.9887,-0.9784,-0.9882,-0.8909,-0.8315,-0.7816,-0.7042,-0.6662,-0.6253,-0.5654,-0.5439,-0.5322,-0.5053,-0.5031,-0.5116,-0.557,-0.5744,-0.5738,-0.5738,-0.5735,-0.5735,-0.5733,-0.5733,-0.5733,-0.5733,-0.5733,-0.5733,-0.5733,-0.5733,-0.5733,-0.5733,-0.5733,-0.5733,-0.5733,-0.5733,-0.5733,-0.5733,-0.5733,-0.5733,-0.5733,-0.5733,-0.5733,-0.5733,-0.5733,-0.5733,-0.5733,-0.5733,-0.5733,-0.5733,-0.5733,-0.5644,-0.5552,-0.5644,-0.5555,-0.2681,-0.2918,-0.3249,-0.339,-0.3083,-0.2738,-0.2677,0.0,0.0,0.0,0.0,0.0,-0.0782,-0.111,0.0,0.0,-0.1441,0.0,0.0,0.0,-0.625,-0.6487,-0.6442,-0.6645,-0.6942,-0.6542,-0.6342,-0.6745,-0.6237,-0.5834,-0.5432,-0.5027,-0.5027,-0.5529,-0.5024,-0.4824,-0.4824,-0.3624,-0.3324,-0.3924,-0.3924,-0.3924,-0.3924,-0.4524,-0.5024,-0.5529,-0.6019,-0.7211,-0.8803,-0.9292,-1.0181,-1.117,-1.117,-1.117,-1.117,-1.1072,-1.0974,-1.0877,-1.0284,-0.9989,-0.9792,-0.8421,-0.8319,-0.8315,-0.7138,-0.6651,-0.6445,-0.6473,-0.6371,-0.6157,-0.5938,-0.5818,-0.5806,-0.5752,-0.5738,-0.5733,-0.5733,-0.5733,-0.5733,-0.5733,-0.5733,-0.5733,-0.5733,-0.5733,-0.5733,-0.5733,-0.5733,-0.5733,-0.5733,-0.5733,-0.5733,-0.5733,-0.5733,-0.5733,-0.5733,-0.5733,-0.5733,-0.5733,-0.5733,-0.5733,-0.5733,-0.5733,-0.5733,-0.5733,-0.5733,-0.5733,-0.5733,-0.5733,-0.5733,-0.5733,-0.5733,-0.5733,-0.2194,-0.2381,-0.2747,-0.3243,-0.2539,-0.1824,-0.2159,0.0,0.0,0.0,0.0,0.0,0.0,0.0,0.0,0.0,0.0,0.0,-0.5349,-0.5555,-0.5586,-0.58,-0.6848,-0.7253,-0.6942,-0.7138,-0.6936,-0.6331,-0.6331,-0.6029,-0.5325,-0.5325,-0.5729,-0.6637,-0.5727,-0.5325,-0.5325,-0.4924,-0.4924,-0.5024,-0.5024,-0.5024,-0.5024,-0.5225,-0.5829,-0.6736,-0.7617,-0.8609,-0.9706,-1.0779,-1.1268,-1.1463,-1.1658,-1.1658,-1.1658,-1.1658,-1.1658,-1.156,-1.0583,-1.0194,-0.9899,-0.8531,-0.8425,-0.8612,-0.7338,-0.6739,-0.6537,-0.6842,-0.6642,-0.6208,-0.607,-0.5956,-0.5852,-0.5757,-0.5733,-0.5733,-0.5733,-0.5733,-0.5733,-0.5733,-0.5733,-0.5733,-0.5733,-0.5733,-0.5733,-0.5733,-0.5733,-0.5733,-0.5733,-0.5733,-0.5733,-0.5819,-0.5733,-0.5822,-0.5997,-0.5908,-0.5908,-0.6083,-0.5819,-0.5733,-0.5733,-0.5733,-0.5733,-0.5733,-0.5733,-0.5733,-0.5733,-0.5733,-0.5733,-0.5733,-0.5733,-0.5733,-0.2204,-0.2298,-0.2408,-0.2197,-0.2488,-0.2643,0.0,0.0,0.0,0.0,0.0,0.0,0.0,0.0,0.0,0.0,0.0,-0.4642,0.0,0.0,-0.6911,-0.6904,0.0,-0.7241,-0.7138,-0.7344,-0.7444,-0.7344,-0.754,-0.7637,-0.7537,-0.7537,-0.7537,-0.7739,-0.7637,-0.7537,-0.7537,-0.5727,-0.5227,-0.6134,-0.6134,-0.6134,-0.6234,-0.7135,-0.7637,-0.7739,-0.7935,-0.8623,-0.9706,-1.0779,-1.1658,-1.2533,-1.3511,-1.3806,-1.3806,-1.3806,-1.3806,-1.3806,-1.3613,-1.3022,-1.2047,-1.0681,-0.9801,-0.892,-0.7839,-0.7241,-0.7138,-0.7444,-0.6872,-0.6064,-0.5844,-0.5773,-0.5754,-0.5738,-0.5908,-0.5997,-0.5733,-0.5911,-0.5997,-0.5733,-0.5733,-0.5733,-0.5733,-0.5733,-0.5733,-0.5733,-0.5733,-0.5733,-0.5733,-0.5733,-0.5905,-0.6605,-0.6083,-0.6171,-0.7397,-0.6956,-0.7041,-0.8002,-0.6609,-0.5733,-0.5733,-0.5733,-0.5733,-0.5733,-0.5733,-0.5733,-0.5733,-0.5733,-0.5733,-0.5733,-0.5733,-0.5733,-0.1711,-0.1929,-0.2169,-0.1832,-0.2409,-0.3056,0.0,0.0,0.0,0.0,0.0,0.0,0.0,0.0,0.0,-0.4169,0.0,-0.488,-0.6236,-0.6446,-0.644,0.0,-0.7144,-0.7553,-0.7444,-0.7643,-0.7842,-0.7842,-0.7942,-0.8038,-0.8038,-0.8038,-0.8038,-0.8038,-0.8038,-0.8038,-0.8038,-0.7033,-0.6731,-0.7238,-0.7238,-0.7238,-0.7238,-0.7739,-0.8333,-0.8924,-0.9509,-1.0293,-1.1365,-1.2441,-1.3125,-1.3607,-1.41,-1.4298,-1.4202,-1.3613,-1.3414,-1.3318,-1.2829,-1.2339,-1.1755,-1.1072,-1.0489,-0.9899,-0.9304,-0.9004,-0.8788,-0.8325,-0.733,-0.6331,-0.6152,-0.5962,-0.5809,-0.5746,-0.5822,-0.5819,-0.5733,-0.5908,-0.6083,-0.5908,-0.6435,-0.6786,-0.6526,-0.6871,-0.7132,-0.6871,-0.6871,-0.6871,-0.6871,-0.6871,-0.6959,-0.7305,-0.7044,-0.7136,-0.7746,-0.7482,-0.7654,-0.8436,-0.7654,-0.7217,-0.7217,-0.6605,-0.6257,-0.6257,-0.5908,-0.5733,-0.5733,-0.5733,-0.5733,-0.5733,-0.5733,-0.5733,-0.1249,-0.1584,-0.1978,-0.171,0.0,0.0,-0.3488,0.0,0.0,0.0,0.0,0.0,0.0,0.0,0.0,-0.5578,-0.5294,-0.5167,-0.611,-0.6227,-0.6309,-0.6418,-0.735,-0.7959,-0.7746,-0.7842,-0.8038,-0.8038,-0.8038,-0.8038,-0.8038,-0.8038,-0.8038,-0.8038,-0.8038,-0.8038,-0.8038,-0.8237,-0.8333,-0.8333,-0.8333,-0.8528,-0.8726,-0.8726,-0.9217,-0.9998,-1.0877,-1.1658,-1.2436,-1.3511,-1.3902,-1.3908,-1.4196,-1.4298,-1.4196,-1.3414,-1.3022,-1.2926,-1.2145,-1.1755,-1.156,-1.1268,-1.1072,-1.0877,-1.0672,-1.0569,-1.0342,-0.9433,-0.8408,-0.7472,-0.6735,-0.6343,-0.6056,-0.5936,-0.6083,-0.626,-0.6086,-0.6435,-0.6697,-0.652,-0.7309,-0.7834,-0.7485,-0.8006,-0.8348,-0.8006,-0.783,-0.7834,-0.7834,-0.7834,-0.7834,-0.8009,-0.8006,-0.8093,-0.8352,-0.8532,-0.879,-0.9135,-0.8869,-0.8694,-0.8694,-0.7822,-0.739,-0.739,-0.6694,-0.6346,-0.6346,-0.6083,-0.5997,-0.5997,-0.5822,-0.5733,-0.1172,-0.1497,-0.1803,-0.1692,0.0,0.0,-0.2938,0.0,0.0,0.0,0.0,0.0,0.0,-0.4729,-0.4763,-0.4405,-0.5202,-0.6199,-0.7279,0.0,-0.7674,-0.7819,-0.7939,-0.8041,-0.7942,-0.7939,-0.8038,-0.8038,-0.8038,-0.8038,-0.8038,-0.8038,-0.8038,-0.8038,-0.8038,-0.8038,-0.8038,-0.9019,-0.9509,-0.9509,-0.9509,-0.9998,-1.0979,-1.0979,-1.0974,-1.1072,-1.117,-1.1268,-1.1365,-1.2436,-1.2829,-1.2926,-1.3908,-1.4298,-1.4298,-1.4196,-1.4196,-1.4196,-1.41,-1.3414,-1.263,-1.2533,-1.195,-1.117,-1.117,-1.117,-1.1165,-1.1053,-1.072,-0.9725,-0.7359,-0.6645,-0.6603,-0.6373,-0.7217,-0.783,-0.7139,-0.7929,-0.854,-0.7834,-0.8089,-0.8436,-0.8436,-0.8436,-0.8524,-0.8436,-0.8089,-0.7834,-0.7834,-0.7834,-0.8097,-0.8715,-0.8615,-0.8873,-1.0005,-1.0712,-1.1063,-1.1063,-0.9831,-0.9122,-0.9122,-0.9039,-0.9039,-0.9039,-0.8519,-0.8261,-0.8261,-0.7214,-0.6691,-0.6691,-0.5994,-0.5733,-0.0812,-0.1285,-0.1756,-0.1646,0.0,0.0,0.0,0.0,0.0,0.0,0.0,0.0,0.0,0.0,-0.5872,-0.5758,-0.6367,-0.7018,-0.7448,-0.7587,-0.7702,-0.776,-0.7767,-0.7801,-0.7889,-0.7896,-0.7936,-0.8031,-0.8038,-0.8038,-0.8038,-0.8038,-0.8333,-0.9019,-0.9019,-0.9312,-0.9998,-1.0391,-1.0877,-1.1556,-1.0877,-1.0783,-1.117,-1.117,-1.156,-1.2145,-1.2145,-1.2538,-1.3125,-1.3511,-1.3709,-1.3709,-1.41,-1.4298,-1.4298,-1.4298,-1.4298,-1.4298,-1.4298,-1.4004,-1.368,-1.3524,-1.329,-1.3097,-1.2947,-1.3008,-1.2995,-1.2076,-1.1879,-1.1431,-0.9431,-0.8702,-0.8481,-0.8212,-0.8519,-0.8782,-0.8436,-0.8882,-0.9235,-0.8969,-0.9666,-1.0188,-0.984,-1.0269,-1.0616,-1.0269,-1.0101,-0.984,-0.9584,-0.9584,-0.9589,-0.9593,-0.9676,-1.0014,-1.0453,-1.1235,-1.1757,-1.1757,-1.0966,-1.0529,-1.0529,-1.0091,-0.9918,-0.9918,-0.9218,-0.8952,-0.8952,-0.8519,-0.8173,-0.7826,-0.7566,-0.7305,-0.0884,-0.1293,-0.1789,0.0,0.0,0.0,0.0,0.0,0.0,0.0,0.0,0.0,0.0,0.0,0.0,0.0,-0.689,-0.7316,-0.7363,-0.7461,-0.7546,-0.7594,-0.76,-0.7638,-0.7736,-0.7743,-0.7787,-0.7892,-0.7899,-0.7997,-0.8282,-0.8282,-0.8766,-0.9824,-0.9976,-1.0299,-1.1075,-1.1429,-1.2047,-1.2727,-1.2344,-1.215,-1.215,-1.215,-1.2538,-1.3221,-1.3409,-1.3992,-1.4675,-1.4962,-1.5057,-1.4962,-1.4771,-1.4771,-1.4962,-1.449,-1.449,-1.458,-1.4394,-1.4298,-1.4256,-1.399,-1.4026,-1.4123,-1.3863,-1.3912,-1.382,-1.2978,-1.277,-1.2703,-1.1466,-1.0486,-0.9813,-0.9542,-0.9653,-0.9826,-0.9657,-1.0009,-1.0274,-1.0193,-1.0885,-1.1413,-1.1068,-1.158,-1.1929,-1.158,-1.1408,-1.1149,-1.0895,-1.0809,-1.0809,-1.0641,-1.0895,-1.1068,-1.1235,-1.1757,-1.2015,-1.2015,-1.1671,-1.1585,-1.1757,-1.1144,-1.088,-1.1052,-1.0438,-1.0086,-1.0086,-0.974,-0.9392,-0.9043,-0.8869,-0.8524,-0.1488,-0.1603,0.0,0.0,0.0,0.0,0.0,0.0,0.0,0.0,0.0,0.0,0.0,0.0,0.0,-0.5781,-0.6518,-0.7193,-0.735,-0.737,-0.7424,-0.7577,-0.7597,-0.7597,-0.7597,-0.7597,-0.7597,-0.76,-0.76,-0.8063,-0.8979,-0.8979,-0.9444,-1.0376,-1.0665,-1.0863,-1.0863,-1.2128,-1.2721,-1.2721,-1.38,-1.4292,-1.4298,-1.4298,-1.4292,-1.4394,-1.5057,-1.5439,-1.5439,-1.6298,-1.6588,-1.6487,-1.5724,-1.5913,-1.6393,-1.4873,-1.4771,-1.5337,-1.458,-1.4292,-1.425,-1.3984,-1.39,-1.3851,-1.3592,-1.3513,-1.3513,-1.3513,-1.3513,-1.3453,-1.3188,-1.1855,-1.0534,-1.0022,-1.0621,-1.1149,-1.0722,-1.1327,-1.1843,-1.1408,-1.1671,-1.2015,-1.2015,-1.2015,-1.2015,-1.2015,-1.1585,-1.1327,-1.1327,-1.1327,-1.1499,-1.1929,-1.2015,-1.2186,-1.2619,-1.2272,-1.2015,-1.2015,-1.2015,-1.2186,-1.2705,-1.2272,-1.2186,-1.2705,-1.2272,-1.2015,-1.2015,-1.088,-1.0356,-1.0269,-0.9561,-0.9209,-0.0871,-0.1636,0.0,0.0,0.0,0.0,0.0,0.0,0.0,0.0,0.0,0.0,-0.642,0.0,0.0,-0.6573,-0.687,-0.7156,-0.7204,-0.721,-0.7224,-0.7272,-0.7275,-0.7319,-0.7428,-0.7441,-0.7756,-0.8512,-0.8613,-0.8983,-0.9912,-1.0005,-1.0468,-1.139,-1.1544,-1.195,-1.2699,-1.3049,-1.3454,-1.4001,-1.4283,-1.4676,-1.5057,-1.5057,-1.5343,-1.5913,-1.6109,-1.6204,-1.6298,-1.6487,-1.6588,-1.6588,-1.6298,-1.6393,-1.6581,-1.6109,-1.6015,-1.6075,-1.5117,-1.4765,-1.4596,-1.3683,-1.3477,-1.3586,-1.332,-1.3369,-1.3477,-1.3296,-1.3369,-1.3405,-1.2946,-1.2587,-1.2248,-1.1911,-1.2095,-1.2272,-1.21,-1.2272,-1.2443,-1.2272,-1.2363,-1.2534,-1.2534,-1.2534,-1.2534,-1.2534,-1.2357,-1.2186,-1.1843,-1.1494,-1.1322,-1.1494,-1.1843,-1.21,-1.2186,-1.2357,-1.2534,-1.2534,-1.2186,-1.21,-1.2186,-1.2357,-1.2534,-1.2705,-1.2534,-1.2534,-1.2534,-1.218,-1.1837,-1.1488,-1.1311,-1.0966,-0.169,0.0,0.0,0.0,0.0,0.0,0.0,0.0,0.0,0.0,0.0,-0.6248,-0.6827,-0.6966,0.0,-0.7004,-0.7085,-0.7139,-0.7139,-0.7139,-0.7139,-0.7139,-0.7139,-0.7265,-0.7807,-0.7814,-0.8301,-0.9302,-0.9401,-0.9763,-1.0675,-1.0765,-1.1215,-1.2199,-1.2299,-1.2806,-1.3709,-1.3814,-1.4224,-1.493,-1.493,-1.5298,-1.5927,-1.5557,-1.5742,-1.6211,-1.6494,-1.6842,-1.7235,-1.7235,-1.7309,-1.7426,-1.7138,-1.7159,-1.7228,-1.6579,-1.6501,-1.6465,-1.5538,-1.5197,-1.5033,-1.4222,-1.4014,-1.4008,-1.348,-1.3423,-1.3516,-1.3088,-1.3073,-1.3115,-1.2789,-1.2831,-1.2916,-1.2741,-1.2705,-1.2705,-1.2705,-1.2705,-1.2705,-1.2705,-1.2705,-1.2705,-1.2705,-1.2705,-1.2705,-1.2705,-1.296,-1.296,-1.2705,-1.2443,-1.2272,-1.2272,-1.2528,-1.2705,-1.2705,-1.3209,-1.3385,-1.313,-1.279,-1.2534,-1.2272,-1.2357,-1.2528,-1.2705,-1.2705,-1.2705,-1.2705,-1.2705,-1.2528,-1.2272,-1.2272,-1.21,0.0,0.0,0.0,0.0,0.0,0.0,0.0,0.0,0.0,0.0,0.0,-0.6966,-0.7099,-0.7024,-0.699,-0.7119,-0.7139,-0.7139,-0.7139,-0.7139,-0.7139,-0.7228,-0.7228,-0.7577,-0.854,-0.8627,-0.9061,-0.9923,-1.0009,-1.0448,-1.1408,-1.1408,-1.1843,-1.2705,-1.3039,-1.343,-1.4115,-1.4369,-1.4856,-1.556,-1.556,-1.5913,-1.6638,-1.5977,-1.5644,-1.5725,-1.6455,-1.7343,-1.8247,-1.8247,-1.8438,-1.864,-1.7972,-1.7972,-1.8068,-1.6701,-1.6436,-1.672,-1.5881,-1.5602,-1.5553,-1.5158,-1.506,-1.4926,-1.4064,-1.3815,-1.3646,-1.3045,-1.2875,-1.2875,-1.2875,-1.2875,-1.2875,-1.2875,-1.279,-1.2705,-1.2705,-1.2705,-1.2705,-1.2705,-1.279,-1.279,-1.279,-1.2875,-1.2875,-1.2875,-1.3392,-1.3815,-1.3815,-1.3815,-1.3815,-1.3815,-1.3815,-1.3815,-1.3815,-1.4321,-1.4398,-1.3822,-1.3815,-1.3561,-1.2875,-1.2357,-1.2272,-1.2705,-1.2705,-1.2705,-1.2705,-1.2705,-1.2705,-1.2705,-1.2705,-1.2705,0.0,0.0,0.0,0.0,0.0,0.0,0.0,0.0,0.0,0.0,-0.6329,-0.6939,-0.697,-0.7041,-0.7105,-0.7136,-0.7139,-0.7139,-0.7139,-0.7139,-0.7404,-0.8105,-0.8193,-0.8536,-0.9492,-0.9579,-1.0014,-1.0885,-1.0971,-1.1408,-1.2357,-1.2363,-1.2534,-1.2705,-1.3284,-1.3815,-1.4298,-1.4549,-1.5184,-1.6187,-1.5859,-1.6027,-1.6727,-1.6488,-1.672,-1.7327,-1.7509,-1.7723,-1.7882,-1.7882,-1.793,-1.7993,-1.7817,-1.7858,-1.7882,-1.7523,-1.7484,-1.747,-1.6428,-1.6166,-1.5943,-1.5106,-1.4747,-1.474,-1.4587,-1.4489,-1.4482,-1.4314,-1.4314,-1.4314,-1.4314,-1.4314,-1.4314,-1.4314,-1.3464,-1.2705,-1.2705,-1.2705,-1.2705,-1.2705,-1.313,-1.3476,-1.3476,-1.3893,-1.4314,-1.4314,-1.4398,-1.4489,-1.4489,-1.4489,-1.4489,-1.4489,-1.4489,-1.4489,-1.4489,-1.465,-1.465,-1.4482,-1.4489,-1.4398,-1.4314,-1.3124,-1.2619,-1.2705,-1.2705,-1.2705,-1.2705,-1.2705,-1.2705,-1.2705,-1.2705,-1.2705,0.0,0.0,0.0,0.0,0.0,0.0,0.0,0.0,0.0,-0.5901,-0.6331,-0.682,-0.682,-0.6878,-0.6953,-0.7027,-0.7041,-0.7061,-0.7132,-0.7492,-0.7929,-0.8456,-0.8973,-0.9753,-1.0707,-1.088,-1.1311,-1.2272,-1.2186,-1.2448,-1.296,-1.296,-1.313,-1.362,-1.3964,-1.4629,-1.5621,-1.5711,-1.6304,-1.7131,-1.6886,-1.6968,-1.7318,-1.686,-1.6939,-1.727,-1.727,-1.7374,-1.7533,-1.7533,-1.7628,-1.7771,-1.7771,-1.7676,-1.7533,-1.7533,-1.7421,-1.7162,-1.6653,-1.6507,-1.6392,-1.5876,-1.5401,-1.5151,-1.5151,-1.4985,-1.4734,-1.4734,-1.4734,-1.4734,-1.4734,-1.4734,-1.4734,-1.4734,-1.4146,-1.3633,-1.3633,-1.3633,-1.3633,-1.3633,-1.3977,-1.4153,-1.4153,-1.4482,-1.4734,-1.4734,-1.4985,-1.5151,-1.5151,-1.5151,-1.5151,-1.5151,-1.5151,-1.5151,-1.5151,-1.5484,-1.5484,-1.5235,-1.5151,-1.5068,-1.4734,-1.4055,-1.347,-1.3215,-1.3222,-1.3045,-1.2705,-1.2705,-1.2705,-1.2705,-1.2705,-1.2705,0.0,0.0,0.0,0.0,0.0,0.0,0.0,0.0,0.0,-0.6254,-0.6474,-0.6661,-0.6661,-0.6681,-0.6739,-0.6868,-0.6888,-0.7015,-0.7219,-0.7929,-0.8533,-0.8879,-0.9819,-1.0862,-1.1861,-1.2037,-1.2486,-1.3307,-1.3222,-1.3222,-1.3392,-1.3222,-1.3633,-1.4699,-1.4789,-1.5613,-1.7115,-1.7123,-1.7456,-1.8121,-1.804,-1.804,-1.7959,-1.7221,-1.6902,-1.682,-1.673,-1.6905,-1.7183,-1.7183,-1.7342,-1.7588,-1.7588,-1.7421,-1.7183,-1.7183,-1.6992,-1.673,-1.673,-1.673,-1.673,-1.673,-1.6319,-1.5899,-1.5899,-1.5484,-1.5068,-1.5068,-1.5068,-1.5068,-1.5068,-1.5068,-1.5068,-1.5068,-1.5068,-1.4985,-1.4734,-1.4734,-1.4734,-1.4734,-1.4817,-1.4901,-1.5068,-1.5068,-1.5068,-1.5068,-1.5484,-1.5899,-1.5899,-1.5899,-1.5899,-1.5899,-1.5899,-1.5899,-1.5899,-1.6402,-1.6484,-1.5899,-1.5899,-1.565,-1.5068,-1.5068,-1.4734,-1.4068,-1.3899,-1.3561,-1.3045,-1.3045,-1.3045,-1.3045,-1.3045,-1.3045,0.0,0.0,0.0,0.0,0.0,0.0,0.0,0.0,-0.6098,0.0,-0.639,-0.6502,-0.6502,-0.677,-0.695,-0.6729,-0.6892,-0.7145,-0.7745,-0.8077,-0.8812,-1.0284,-1.0773,-1.1514,-1.268,-1.287,-1.2971,-1.3379,-1.3398,-1.3398,-1.3398,-1.3398,-1.3802,-1.4699,-1.5282,-1.6183,-1.7577,-1.7772,-1.8121,-1.8612,-1.8201,-1.804,-1.804,-1.7878,-1.7635,-1.731,-1.6894,-1.6762,-1.681,-1.681,-1.6833,-1.6873,-1.6873,-1.6849,-1.681,-1.681,-1.6778,-1.673,-1.673,-1.673,-1.673,-1.673,-1.6648,-1.6566,-1.6566,-1.6484,-1.6402,-1.6402,-1.6402,-1.6402,-1.6402,-1.6402,-1.6402,-1.6402,-1.6402,-1.6147,-1.4985,-1.4734,-1.4734,-1.4734,-1.5151,-1.5733,-1.6319,-1.6402,-1.6402,-1.6402,-1.6484,-1.6566,-1.6566,-1.6566,-1.6566,-1.6566,-1.6566,-1.6566,-1.6566,-1.6648,-1.6656,-1.6566,-1.6566,-1.6566,-1.6402,-1.6402,-1.6147,-1.5484,-1.4817,-1.4482,-1.4398,-1.4398,-1.4398,-1.4398,-1.4398,-1.4398,0.0,0.0,0.0,0.0,0.0,0.0,0.0,0.0,-0.5922,-0.6141,-0.6273,-0.6402,-0.6567,-0.6641,-0.6795,-0.6884,-0.6979,-0.733,-0.8151,-0.8737,-0.9629,-1.0836,-1.1656,-1.2357,-1.2904,-1.3078,-1.3131,-1.3254,-1.3179,-1.3251,-1.3489,-1.3897,-1.462,-1.5779,-1.6601,-1.7496,-1.8559,-1.8656,-1.8834,-1.9002,-1.8834,-1.8754,-1.8745,-1.8523,-1.804,-1.7392,-1.7147,-1.6902,-1.673,-1.673,-1.673,-1.673,-1.673,-1.673,-1.673,-1.673,-1.673,-1.673,-1.673,-1.673,-1.673,-1.673,-1.6484,-1.6237,-1.6574,-1.6402,-1.6237,-1.6566,-1.673,-1.673,-1.673,-1.673,-1.673,-1.673,-1.673,-1.6566,-1.5982,-1.5816,-1.5816,-1.5816,-1.6072,-1.6319,-1.6648,-1.673,-1.673,-1.673,-1.673,-1.673,-1.673,-1.673,-1.681,-1.7016,-1.704,-1.7111,-1.7294,-1.7143,-1.704,-1.704,-1.6849,-1.673,-1.673,-1.673,-1.6566,-1.6237,-1.5567,-1.5068,-1.4734,-1.4734,-1.4734,-1.4734,-1.4734,-1.4734,0.0,0.0,0.0,0.0,0.0,0.0,0.0,0.0,-0.5853,0.0,-0.6182,-0.637,-0.6572,-0.6663,-0.6832,-0.7029,-0.7284,-0.772,-0.8564,-0.9547,-1.0423,-1.1207,-1.2173,-1.2772,-1.2844,-1.3014,-1.3126,-1.32,-1.32,-1.3446,-1.375,-1.446,-1.5443,-1.6669,-1.7317,-1.8118,-1.8999,-1.91,-1.9279,-1.9539,-1.9539,-1.9618,-1.9766,-1.9469,-1.8904,-1.8175,-1.7627,-1.7229,-1.6902,-1.6738,-1.673,-1.673,-1.673,-1.673,-1.673,-1.673,-1.673,-1.673,-1.673,-1.673,-1.673,-1.673,-1.6319,-1.6064,-1.6566,-1.6319,-1.6072,-1.6566,-1.673,-1.673,-1.673,-1.673,-1.673,-1.673,-1.673,-1.673,-1.673,-1.673,-1.673,-1.673,-1.673,-1.673,-1.673,-1.673,-1.673,-1.673,-1.673,-1.673,-1.673,-1.673,-1.6873,-1.7239,-1.7278,-1.7413,-1.7747,-1.7469,-1.7278,-1.7278,-1.6937,-1.673,-1.673,-1.673,-1.673,-1.673,-1.6237,-1.5733,-1.5235,-1.5235,-1.5235,-1.5235,-1.5235,-1.5235,0.0,0.0,0.0,0.0,0.0,0.0,0.0,0.0,-0.5865,-0.6037,-0.6241,-0.6391,-0.655,-0.6888,-0.7107,-0.6953,-0.771,-0.8556,-0.918,-1.0154,-1.1055,-1.19,-1.2197,-1.2458,-1.2746,-1.2849,-1.2893,-1.3186,-1.3803,-1.4258,-1.4279,-1.5057,-1.5843,-1.6809,-1.6809,-1.7264,-1.8183,-1.8559,-1.9235,-2.0167,-2.0167,-2.0469,-2.1088,-2.1088,-2.0837,-2.0265,-1.8247,-1.74,-1.731,-1.6894,-1.673,-1.673,-1.673,-1.673,-1.673,-1.673,-1.673,-1.673,-1.673,-1.673,-1.673,-1.673,-1.6656,-1.6648,-1.6648,-1.6656,-1.6656,-1.6648,-1.673,-1.673,-1.673,-1.673,-1.673,-1.673,-1.673,-1.673,-1.673,-1.673,-1.673,-1.673,-1.673,-1.673,-1.673,-1.673,-1.673,-1.673,-1.673,-1.673,-1.673,-1.673,-1.6873,-1.7239,-1.7278,-1.7413,-1.7747,-1.7469,-1.7278,-1.7278,-1.6937,-1.673,-1.673,-1.673,-1.673,-1.673,-1.6648,-1.6648,-1.6566,-1.6566,-1.6566,-1.6566,-1.6566,-1.6566,0.0,0.0,0.0,0.0,0.0,0.0,0.0,-0.5047,-0.5639,-0.5932,-0.6123,-0.6294,-0.6614,-0.6765,-0.7032,-0.7729,-0.8193,-0.8906,-1.0254,-1.0807,-1.1329,-1.2077,-1.2224,-1.2345,-1.2452,-1.298,-1.3319,-1.3365,-1.4096,-1.4626,-1.4774,-1.5608,-1.6329,-1.6817,-1.7362,-1.7961,-1.8627,-1.9129,-1.9632,-2.0365,-2.0365,-2.0665,-2.1165,-2.1165,-2.1078,-2.0914,-1.9806,-1.9186,-1.8816,-1.8479,-1.8078,-1.7521,-1.7521,-1.7204,-1.673,-1.673,-1.673,-1.673,-1.673,-1.673,-1.673,-1.673,-1.673,-1.673,-1.673,-1.673,-1.673,-1.673,-1.673,-1.673,-1.673,-1.673,-1.673,-1.673,-1.673,-1.673,-1.673,-1.673,-1.673,-1.673,-1.673,-1.673,-1.673,-1.673,-1.673,-1.673,-1.673,-1.673,-1.673,-1.673,-1.6873,-1.7239,-1.7278,-1.7413,-1.7747,-1.7469,-1.7278,-1.7278,-1.6937,-1.673,-1.673,-1.673,-1.673,-1.673,-1.673,-1.673,-1.673,-1.673,-1.673,-1.673,-1.673,-1.673,0.0,0.0,0.0,0.0,0.0,0.0,-0.4021,0.0,-0.5408,-0.5751,-0.5962,-0.629,-0.6792,-0.6865,-0.7121,-0.8078,-0.8707,-0.9414,-1.0603,-1.1064,-1.1458,-1.2072,-1.2158,-1.2337,-1.2659,-1.3171,-1.36,-1.3818,-1.4609,-1.5072,-1.5308,-1.6131,-1.6757,-1.7087,-1.7697,-1.8278,-1.8981,-1.934,-1.9847,-2.051,-2.051,-2.081,-2.1331,-2.1487,-2.1559,-2.1569,-2.1303,-2.0672,-1.9747,-1.9502,-1.9027,-1.8479,-1.8479,-1.8078,-1.7602,-1.7602,-1.7367,-1.7131,-1.7131,-1.7131,-1.7131,-1.7131,-1.7131,-1.7212,-1.7448,-1.7367,-1.7131,-1.7131,-1.7131,-1.7049,-1.6812,-1.673,-1.673,-1.673,-1.673,-1.673,-1.673,-1.673,-1.673,-1.673,-1.673,-1.673,-1.673,-1.673,-1.673,-1.673,-1.673,-1.673,-1.673,-1.673,-1.6873,-1.7239,-1.7278,-1.7413,-1.7747,-1.7469,-1.7278,-1.7278,-1.6937,-1.673,-1.673,-1.673,-1.673,-1.673,-1.673,-1.673,-1.673,-1.673,-1.673,-1.673,-1.673,-1.673,0.0,0.0,0.0,0.0,0.0,0.0,-0.3963,0.0,-0.5156,-0.5506,-0.5735,-0.6159,-0.7026,-0.7188,-0.7388,-0.7938,-0.9243,-1.017,-1.0251,-1.0942,-1.153,-1.1824,-1.1928,-1.2322,-1.3404,-1.3513,-1.3875,-1.4585,-1.5392,-1.5833,-1.5833,-1.6551,-1.7176,-1.7706,-1.7706,-1.8184,-1.9103,-1.9103,-1.9675,-2.0684,-2.0684,-2.1058,-2.1603,-2.2084,-2.2302,-2.2324,-2.2561,-2.1745,-2.0178,-1.9825,-1.9511,-1.9335,-1.9335,-1.9335,-1.9335,-1.9335,-1.8789,-1.8078,-1.8078,-1.7997,-1.7997,-1.7997,-1.7997,-1.8158,-1.9027,-1.8709,-1.8078,-1.8078,-1.8078,-1.7836,-1.6968,-1.6812,-1.6812,-1.6812,-1.6812,-1.673,-1.673,-1.673,-1.673,-1.673,-1.673,-1.673,-1.673,-1.673,-1.673,-1.673,-1.673,-1.673,-1.673,-1.673,-1.6873,-1.7223,-1.7262,-1.739,-1.7715,-1.7445,-1.7262,-1.7262,-1.6929,-1.673,-1.673,-1.673,-1.673,-1.673,-1.673,-1.673,-1.673,-1.673,-1.673,-1.673,-1.673,-1.673,-0.1131,0.0,0.0,0.0,0.0,0.0,0.0,0.0,-0.465,-0.5136,-0.5571,-0.6101,-0.6699,-0.7571,-0.8242,-0.8387,-0.9326,-1.0301,-1.0979,-1.1286,-1.1456,-1.1543,-1.1957,-1.2398,-1.2691,-1.3955,-1.48,-1.5016,-1.5965,-1.6621,-1.6621,-1.7166,-1.7579,-1.7706,-1.8442,-1.8962,-1.923,-1.9663,-2.0175,-2.0841,-2.0841,-2.1094,-2.1592,-2.1723,-2.1789,-2.1822,-2.2219,-2.2039,-2.1512,-2.1415,-2.1001,-2.0362,-2.0216,-1.9816,-1.9335,-1.9335,-1.9177,-1.8939,-1.8939,-1.855,-1.8078,-1.8709,-1.855,-1.8158,-1.9027,-1.9097,-1.8939,-1.8939,-1.8939,-1.8859,-1.863,-1.855,-1.855,-1.855,-1.855,-1.839,-1.7764,-1.7602,-1.744,-1.6812,-1.673,-1.673,-1.673,-1.673,-1.673,-1.673,-1.673,-1.673,-1.673,-1.673,-1.6778,-1.6873,-1.6881,-1.6921,-1.7016,-1.6937,-1.6881,-1.6881,-1.6786,-1.673,-1.673,-1.673,-1.673,-1.673,-1.673,-1.673,-1.673,-1.673,-1.673,-1.673,-1.673,-1.673,0.0,0.0,0.0,0.0,0.0,0.0,-0.3678,-0.4128,-0.4666,0.0,-0.582,-0.6241,-0.7028,-0.7818,-0.8468,-0.8989,-0.9492,-1.0098,-1.077,-1.0989,-1.1242,-1.1632,-1.1973,-1.2491,-1.322,-1.4296,-1.51,-1.5375,-1.599,-1.6545,-1.6983,-1.7254,-1.7726,-1.8365,-1.8967,-1.9375,-1.9649,-1.9933,-2.0293,-2.0566,-2.0566,-2.0708,-2.0992,-2.1199,-2.1286,-2.1308,-2.18,-2.1925,-2.1804,-2.1987,-2.1525,-2.0837,-2.1088,-2.0615,-1.9816,-1.9816,-1.958,-1.9265,-1.8859,-1.839,-1.8078,-1.863,-1.839,-1.8238,-1.9423,-1.9344,-1.8868,-1.958,-1.958,-1.9335,-1.9335,-1.9335,-1.9335,-1.9335,-1.9335,-1.9177,-1.863,-1.855,-1.8158,-1.6968,-1.673,-1.673,-1.673,-1.673,-1.673,-1.673,-1.673,-1.673,-1.673,-1.673,-1.673,-1.673,-1.673,-1.673,-1.673,-1.673,-1.673,-1.673,-1.6894,-1.6976,-1.6976,-1.6976,-1.7066,-1.7221,-1.7066,-1.7057,-1.7221,-1.6894,-1.673,-1.673,-1.673,-1.673,0.0,0.0,0.0,0.0,-0.3011,0.0,-0.4264,-0.4521,-0.4865,-0.5749,-0.6008,-0.639,-0.7493,-0.7774,-0.8221,-0.9289,-0.9519,-0.9699,-1.002,-1.0356,-1.087,-1.171,-1.1968,-1.2739,-1.4281,-1.4577,-1.4962,-1.5625,-1.579,-1.6233,-1.7125,-1.721,-1.7855,-1.9215,-1.9291,-1.9596,-2.0074,-2.0085,-2.0085,-2.0085,-2.0085,-2.0085,-2.0096,-2.0587,-2.0784,-2.0806,-2.1297,-2.1505,-2.1538,-2.1865,-2.1502,-2.1008,-2.1776,-2.1482,-2.0459,-2.0459,-1.9982,-1.9177,-1.839,-1.8158,-1.8158,-1.8158,-1.8238,-1.8559,-2.006,-1.9502,-1.8709,-2.0226,-2.0138,-1.958,-1.958,-1.958,-1.958,-1.958,-1.958,-1.958,-1.9413,-1.9413,-1.8948,-1.7286,-1.6894,-1.6812,-1.673,-1.673,-1.673,-1.673,-1.673,-1.673,-1.673,-1.673,-1.673,-1.673,-1.673,-1.673,-1.673,-1.673,-1.673,-1.673,-1.7147,-1.7392,-1.7392,-1.7473,-1.7635,-1.7951,-1.7635,-1.7635,-1.804,-1.7139,-1.682,-1.6812,-1.6812,-1.6812,-0.3582,-0.3584,-0.3619,-0.373,-0.3912,0.0,-0.375,-0.3807,-0.3978,0.0,-0.4868,-0.549,-0.6113,-0.6963,-0.7669,-0.7876,-0.851,-0.9165,-0.9693,-1.021,-1.0617,-1.0792,-1.1925,-1.2847,-1.322,-1.4329,-1.5087,-1.5337,-1.6263,-1.7106,-1.7812,-1.7998,-1.8343,-1.9062,-1.9285,-1.9608,-2.0074,-2.0085,-2.0085,-2.0085,-2.0085,-2.0085,-2.0085,-2.0183,-2.0293,-2.0314,-2.0795,-2.107,-2.1035,-2.1516,-2.1629,-2.1565,-2.1954,-2.1482,-2.0459,-2.0459,-1.9982,-1.9256,-1.9097,-1.9027,-1.9027,-1.9027,-1.9502,-2.006,-2.0382,-2.0769,-2.1165,-2.1482,-2.1405,-2.1328,-2.1328,-2.1328,-2.1328,-2.1328,-2.1328,-2.1088,-2.0382,-2.0304,-1.9982,-1.8939,-1.8238,-1.7521,-1.6812,-1.673,-1.673,-1.673,-1.673,-1.673,-1.673,-1.673,-1.673,-1.673,-1.673,-1.673,-1.673,-1.673,-1.673,-1.673,-1.7147,-1.7392,-1.7392,-1.7716,-1.7959,-1.804,-1.7959,-1.7959,-1.804,-1.7473,-1.7392,-1.7716,-1.7716,-1.7716,-0.4571,-0.4582,-0.4582,-0.4637,-0.4563,0.0,0.0,-0.4463,-0.4604,-0.5391,-0.5608,-0.5863,-0.6662,-0.7273,-0.765,-0.7754,-0.87,-0.9418,-0.9421,-1.0057,-1.0743,-1.1302,-1.2092,-1.2728,-1.3085,-1.3956,-1.4749,-1.5415,-1.6228,-1.7098,-1.8046,-1.8067,-1.8354,-1.9015,-1.9288,-1.9539,-1.9715,-1.9966,-2.0085,-2.0085,-2.0085,-2.0085,-2.0085,-2.0085,-2.0085,-2.0096,-2.0402,-2.05,-2.0544,-2.1024,-2.1224,-2.1214,-2.1775,-2.136,-2.0311,-2.0526,-2.0294,-1.9816,-1.9423,-1.9335,-1.9335,-1.9335,-1.958,-1.9982,-2.0382,-2.1098,-2.1731,-2.1252,-2.1492,-2.1807,-2.1807,-2.1807,-2.1807,-2.1807,-2.1807,-2.1645,-2.1252,-2.1175,-2.0934,-2.006,-1.959,-1.8868,-1.761,-1.6976,-1.673,-1.673,-1.6894,-1.6984,-1.6738,-1.6894,-1.6984,-1.6738,-1.673,-1.673,-1.673,-1.6902,-1.7066,-1.7066,-1.7716,-1.8049,-1.8049,-1.8201,-1.8371,-1.8371,-1.8371,-1.8442,-1.8665,-1.8201,-1.804,-1.804,-1.804,-1.804,-0.5507,-0.5412,-0.5394,-0.5323,-0.5137,-0.506,0.0,0.0,0.0,-0.6662,-0.6543,-0.6518,0.0,0.0,-0.7646,-0.7752,-0.8815,-0.9445,-0.8966,-0.9755,-1.0747,-1.1828,-1.2241,-1.2625,-1.3057,-1.3505,-1.4267,-1.5485,-1.5877,-1.6665,-1.8126,-1.7899,-1.8118,-1.9059,-1.9171,-1.9284,-1.9419,-1.9812,-1.9987,-2.0085,-2.0085,-2.0085,-2.0085,-2.0085,-2.0085,-2.0085,-2.0085,-2.0085,-2.0107,-2.0566,-2.0651,-2.0614,-2.1485,-2.1105,-2.0093,-2.0374,-2.0409,-2.0101,-1.939,-1.9358,-1.9502,-1.9335,-1.9423,-1.9659,-2.0537,-2.1252,-2.1645,-2.0934,-2.1252,-2.1807,-2.1807,-2.1807,-2.1807,-2.1807,-2.1807,-2.1807,-2.1807,-2.1807,-2.1568,-2.0857,-2.0615,-1.9982,-1.847,-1.7521,-1.6976,-1.6976,-1.7139,-1.7147,-1.6902,-1.7147,-1.731,-1.6976,-1.6976,-1.6976,-1.6976,-1.731,-1.7554,-1.7554,-1.829,-1.87,-1.87,-1.8772,-1.8851,-1.8851,-1.8851,-1.9002,-1.9301,-1.9002,-1.8612,-1.8273,-1.8273,-1.8273,0.0,-0.5828,-0.5646,-0.5299,-0.5603,-0.5854,-0.5232,0.0,-0.5889,-0.5815,0.0,-0.6521,0.0,0.0,0.0,0.0,-0.758,-0.8004,-0.7893,-0.8933,-0.991,-1.0554,-1.2017,-1.2856,-1.2541,-1.2938,-1.3831,-1.5372,-1.5235,-1.599,-1.8084,-1.796,-1.8151,-1.8885,-1.8678,-1.8773,-1.9408,-1.9473,-1.9714,-2.0085,-2.0085,-2.0085,-2.0085,-2.0085,-2.0085,-2.0085,-2.0085,-2.0085,-2.0085,-2.014,-2.0162,-2.026,-2.1079,-2.0718,-1.97,-1.9584,-1.9322,-1.9049,-1.8751,-1.9446,-2.0226,-1.9502,-1.9816,-2.0537,-2.1405,-2.1721,-2.1807,-2.1645,-2.1721,-2.1807,-2.1807,-2.1807,-2.1807,-2.1807,-2.1807,-2.1807,-2.1807,-2.1807,-2.1807,-2.1645,-2.1021,-2.0216,-1.9344,-1.839,-1.7836,-1.7836,-1.7204,-1.6902,-1.731,-1.7392,-1.7554,-1.7789,-1.7878,-1.7878,-1.7878,-1.7878,-1.7951,-1.7951,-1.8451,-1.87,-1.87,-1.9073,-1.9231,-1.9231,-1.9231,-1.9222,-1.9301,-1.9222,-1.9222,-1.9143,-1.9143,-1.9143,-0.7176,-0.7278,-0.7342,-0.6654,-0.6828,-0.6984,-0.6152,-0.6073,-0.6271,-0.6636,0.0,0.0,0.0,0.0,0.0,0.0,-0.784,-0.8277,-0.7664,-0.8975,-1.0065,-1.0213,-1.1047,-1.1762,-1.2258,-1.2712,-1.3693,-1.5305,-1.5269,-1.6045,-1.807,-1.795,-1.8072,-1.8701,-1.8487,-1.8561,-1.8795,-1.9197,-1.9528,-1.9725,-1.9944,-2.0085,-2.0085,-2.0085,-2.0085,-2.0085,-2.0085,-2.0085,-2.0085,-2.0085,-2.0085,-2.0118,-2.0454,-2.0439,-2.0268,-2.0459,-2.0319,-2.0159,-2.0188,-2.0547,-2.0974,-2.0844,-2.1011,-2.1328,-2.1721,-2.1807,-2.1807,-2.1807,-2.1807,-2.1807,-2.1807,-2.1807,-2.1807,-2.1807,-2.1807,-2.1807,-2.1807,-2.1807,-2.1807,-2.1807,-2.1492,-2.1175,-2.0769,-1.9659,-1.8789,-1.8877,-1.8789,-1.863,-1.8327,-1.8496,-1.8505,-1.8031,-1.804,-1.804,-1.804,-1.8282,-1.8371,-1.8371,-1.8843,-1.9082,-1.9082,-1.9222,-1.9301,-1.9301,-1.9618,-1.9854,-1.9854,-2.0235,-2.0235,-1.9844,-1.946,-1.9301,-0.8178,-0.8376,-0.8495,-0.7546,-0.7601,-0.7689,-0.6936,-0.6805,-0.6985,-0.7555,-0.7435,0.0,0.0,0.0,0.0,0.0,0.0,-0.8617,0.0,-0.8685,-0.9744,-0.9808,-1.0274,-1.1037,-1.2101,-1.2232,-1.3059,-1.4963,-1.4823,-1.5567,-1.7664,-1.7704,-1.7922,-1.839,-1.8403,-1.8442,-1.8406,-1.8895,-1.9219,-1.9419,-1.9779,-1.9955,-2.0085,-2.0085,-2.0085,-2.0085,-2.0085,-2.0085,-2.0085,-2.0085,-2.0085,-2.0085,-2.0085,-2.0226,-2.0506,-2.0784,-2.093,-2.0881,-2.0997,-2.1125,-2.1334,-2.1652,-2.1807,-2.1807,-2.1807,-2.1807,-2.1807,-2.1807,-2.1807,-2.1807,-2.1807,-2.1807,-2.1807,-2.1807,-2.1807,-2.1807,-2.1807,-2.1807,-2.1807,-2.1807,-2.1807,-2.1807,-2.1883,-2.0692,-1.9737,-1.9913,-2.0051,-1.9972,-1.9502,-1.9668,-1.959,-1.8975,-1.8895,-1.8895,-1.8895,-1.8993,-1.9082,-1.9082,-1.939,-1.9608,-1.9844,-1.9844,-1.9844,-1.9844,-2.0235,-2.0469,-2.0469,-2.0934,-2.0934,-2.0469,-1.9854,-1.946,-0.8992,-0.8678,-0.8442,-0.7376,-0.7475,-0.7643,-0.7125,-0.7565,-0.8143,-0.815,-0.8685,-0.9116,-0.9124,0.0,0.0,0.0,0.0,0.0,0.0,0.0,-0.8447,0.0,0.0,0.0,-1.2105,-1.1218,-1.1605,-1.4152,-1.3391,-1.3912,-1.6488,-1.7111,-1.7528,-1.7796,-1.8313,-1.8545,-1.8406,-1.844,-1.8766,-1.9419,-1.943,-1.9692,-2.0085,-2.0085,-2.0085,-2.0085,-2.0085,-2.0085,-2.0085,-2.0085,-2.0085,-2.0085,-2.0085,-2.0096,-2.0107,-1.9976,-2.0212,-2.0543,-2.0154,-2.0521,-2.1197,-2.1652,-2.1807,-2.1807,-2.1807,-2.1807,-2.1807,-2.1807,-2.1807,-2.1807,-2.1807,-2.1807,-2.1807,-2.1807,-2.1807,-2.1807,-2.1807,-2.1807,-2.1807,-2.1807,-2.1807,-2.1883,-2.2035,-2.1318,-2.076,-2.076,-2.0294,-2.0051,-2.042,-2.0498,-2.0663,-2.1078,-2.1088,-2.1088,-2.1088,-2.0547,-2.0167,-2.0167,-2.0157,-2.0469,-2.1088,-2.1165,-2.1165,-2.1165,-2.1165,-2.1165,-2.1165,-2.1165,-2.1165,-2.1165,-2.0469,-1.9854,-1.0458,-1.0661,-1.0656,-0.9324,-0.9228,-0.9172,-0.8034,-0.799,-0.829,-0.8671,-0.8814,-0.9084,-0.9776,0.0,0.0,0.0,0.0,0.0,0.0,0.0,-0.8264,0.0,0.0,0.0,0.0,-1.0882,-1.1763,-1.3493,-1.3376,-1.4201,-1.6498,-1.6751,-1.7243,-1.8017,-1.7833,-1.7917,-1.8214,-1.8169,-1.8269,-1.849,-1.8796,-1.9189,-1.9659,-1.9659,-1.9781,-2.0085,-2.0085,-2.0085,-2.0085,-2.0085,-2.0085,-2.0085,-2.0085,-2.0085,-2.0074,-2.0074,-2.0118,-2.0346,-2.0711,-2.1108,-2.1555,-2.2029,-2.2111,-2.2035,-2.2035,-2.2035,-2.2035,-2.2035,-2.2101,-2.2187,-2.2187,-2.2101,-2.2035,-2.2035,-2.1883,-2.1807,-2.1807,-2.1807,-2.1807,-2.1949,-2.2035,-2.2035,-2.2252,-2.2166,-2.208,-2.208,-2.1842,-2.169,-2.1548,-2.1538,-2.1471,-2.1242,-2.1165,-2.1165,-2.1165,-2.1011,-2.0857,-2.0857,-2.0857,-2.0934,-2.1165,-2.1165,-2.1165,-2.1165,-2.1558,-2.1797,-2.1797,-2.2166,-2.2166,-2.1787,-2.1558,-2.1165,-1.156,-1.1819,-1.1828,-1.0611,-1.0381,-1.0194,-0.9196,-0.904,-0.9255,-0.9779,-0.9711,-0.9915,-1.0973,0.0,0.0,0.0,0.0,0.0,0.0,-0.7656,0.0,0.0,0.0,0.0,0.0,0.0,-1.1242,-1.3242,-1.3,-1.3751,0.0,-1.6322,-1.692,-1.7893,-1.7627,-1.7663,-1.8084,-1.798,-1.795,-1.801,-1.8305,-1.8698,-1.9168,-1.9342,-1.9594,-1.9835,-2.0009,-2.0085,-2.0085,-2.0085,-2.0085,-2.0085,-2.0085,-2.0085,-2.0085,-2.0085,-2.0085,-2.0129,-2.0773,-2.1214,-2.153,-2.1998,-2.2189,-2.2176,-2.2176,-2.2176,-2.2176,-2.2176,-2.2327,-2.2402,-2.2402,-2.2327,-2.2176,-2.2176,-2.2101,-2.2025,-2.2025,-2.2025,-2.2025,-2.2176,-2.2176,-2.2252,-2.2478,-2.2628,-2.2703,-2.2703,-2.2777,-2.2703,-2.2478,-2.2402,-2.2241,-2.1852,-2.1852,-2.1776,-2.1558,-2.1558,-2.1558,-2.1558,-2.1558,-2.1634,-2.1852,-2.1852,-2.1852,-2.1852,-2.2241,-2.2402,-2.2402,-2.2777,-2.2777,-2.2402,-2.2402,-2.2241]},{"header":{"parameterUnit":"m.s-1","parameterCategory":1,"la1":30.6,"la2":29.2853,"lo1":-89.7004,"lo2":-87.6739,"dy":0.0162,"dx":0.0183,"nx":112,"ny":82,"refTime":"2024-08-07T18:00:00:Z","depth":0,"parameterNumber":3,"parameterNumberName":"V-component_of_WINDS"},"data":[0.0,0.0,0.0,0.0,0.0,0.0,0.0,0.0,0.0,0.0,0.0,0.0,0.0,0.0,0.0,0.0,0.0,0.0,0.0,0.0,0.0,0.0,0.0,0.0,0.0,0.0,0.0,0.0,0.0,0.0,0.0,0.0,0.0,0.0,0.0,0.0,0.0,0.0,0.0,0.0,0.0,0.0,0.0,0.0,0.0,0.0,0.0,0.0,0.0,0.0,0.0,0.0,0.0,0.0,0.0,0.0,0.0,0.0,0.0,0.0,0.0,0.0,0.0,0.0,0.0,0.0,0.0,0.0,0.0,0.0,0.0,0.0,0.0,0.0,0.0,0.0,0.0,0.0,0.0,0.0,0.0,0.0,0.0,0.0,0.0,0.0,0.0,0.0,0.0,0.0,-1.6903,-1.9421,-2.0993,-2.1879,-2.1877,-2.1263,-1.9415,-1.6055,0.0,0.0,0.0,0.0,0.0,0.0,0.0,0.0,0.0,0.0,0.0,0.0,0.0,0.0,0.0,0.0,0.0,0.0,0.0,0.0,0.0,0.0,0.0,0.0,0.0,0.0,0.0,0.0,0.0,0.0,0.0,0.0,0.0,0.0,0.0,0.0,0.0,0.0,0.0,0.0,0.0,0.0,0.0,0.0,0.0,0.0,0.0,0.0,0.0,0.0,0.0,0.0,0.0,0.0,0.0,0.0,0.0,0.0,0.0,0.0,0.0,0.0,0.0,0.0,0.0,0.0,0.0,0.0,0.0,0.0,0.0,0.0,0.0,0.0,0.0,0.0,0.0,0.0,0.0,0.0,0.0,0.0,0.0,0.0,0.0,0.0,0.0,0.0,0.0,0.0,0.0,0.0,0.0,0.0,0.0,0.0,0.0,0.0,0.0,0.0,0.0,0.0,0.0,0.0,-1.6638,-2.1316,-2.2258,-2.2561,-2.2623,-2.1949,-2.0197,-1.7076,0.0,0.0,0.0,0.0,0.0,0.0,0.0,0.0,0.0,0.0,0.0,0.0,0.0,0.0,0.0,0.0,0.0,0.0,0.0,0.0,0.0,0.0,0.0,0.0,0.0,0.0,0.0,0.0,0.0,0.0,0.0,0.0,0.0,0.0,0.0,0.0,0.0,0.0,0.0,0.0,0.0,0.0,0.0,0.0,0.0,0.0,0.0,0.0,0.0,0.0,0.0,0.0,0.0,0.0,0.0,0.0,0.0,0.0,0.0,0.0,0.0,0.0,0.0,0.0,0.0,0.0,0.0,0.0,0.0,0.0,0.0,0.0,0.0,0.0,0.0,0.0,0.0,0.0,0.0,0.0,0.0,0.0,0.0,0.0,0.0,0.0,0.0,0.0,0.0,0.0,0.0,0.0,0.0,0.0,0.0,0.0,0.0,0.0,0.0,0.0,0.0,0.0,0.0,-1.6818,-1.8718,-2.2129,-2.2455,-2.2391,-2.221,-2.1583,-1.9771,-1.6503,-1.4666,0.0,0.0,0.0,0.0,0.0,0.0,0.0,0.0,0.0,0.0,0.0,0.0,0.0,0.0,0.0,0.0,0.0,0.0,0.0,0.0,0.0,0.0,0.0,0.0,0.0,0.0,0.0,0.0,0.0,0.0,0.0,0.0,0.0,0.0,0.0,0.0,0.0,0.0,0.0,0.0,0.0,0.0,0.0,0.0,0.0,0.0,0.0,0.0,0.0,0.0,0.0,0.0,0.0,0.0,0.0,0.0,0.0,0.0,0.0,0.0,0.0,0.0,0.0,0.0,0.0,0.0,0.0,0.0,0.0,0.0,0.0,0.0,0.0,0.0,0.0,0.0,0.0,0.0,0.0,0.0,0.0,0.0,0.0,0.0,0.0,0.0,0.0,0.0,0.0,0.0,0.0,0.0,0.0,0.0,0.0,0.0,0.0,0.0,0.0,0.0,0.0,0.0,-1.9388,-2.0938,-2.2699,-2.2481,-2.2156,-2.2133,-2.0971,-1.8957,-1.5905,-1.415,0.0,0.0,0.0,0.0,0.0,0.0,0.0,0.0,0.0,0.0,0.0,0.0,0.0,0.0,0.0,0.0,0.0,0.0,0.0,0.0,0.0,0.0,0.0,0.0,0.0,0.0,0.0,0.0,0.0,0.0,0.0,0.0,0.0,0.0,0.0,0.0,0.0,0.0,0.0,0.0,0.0,0.0,0.0,0.0,0.0,0.0,0.0,0.0,0.0,0.0,0.0,0.0,0.0,0.0,0.0,0.0,0.0,0.0,0.0,0.0,0.0,0.0,0.0,0.0,0.0,0.0,0.0,0.0,0.0,0.0,0.0,0.0,0.0,0.0,0.0,0.0,0.0,0.0,0.0,0.0,0.0,0.0,0.0,0.0,0.0,0.0,0.0,0.0,0.0,0.0,0.0,0.0,0.0,0.0,0.0,0.0,0.0,0.0,0.0,0.0,0.0,0.0,-1.9421,-2.2036,-2.3298,-2.2703,-2.2534,-2.3326,-2.0574,-1.8052,-1.6187,-1.341,0.0,0.0,0.0,0.0,0.0,0.0,0.0,0.0,0.0,0.0,0.0,0.0,0.0,0.0,0.0,0.0,0.0,0.0,0.0,0.0,0.0,0.0,0.0,0.0,0.0,0.0,0.0,0.0,0.0,0.0,0.0,0.0,0.0,0.0,0.0,0.0,0.0,0.0,0.0,0.0,0.0,0.0,0.0,0.0,0.0,0.0,0.0,0.0,0.0,0.0,0.0,0.0,0.0,0.0,0.0,0.0,0.0,0.0,0.0,0.0,0.0,0.0,0.0,0.0,0.0,0.0,0.0,0.0,0.0,0.0,0.0,0.0,0.0,0.0,0.0,0.0,0.0,0.0,0.0,0.0,0.0,0.0,0.0,0.0,0.0,0.0,0.0,0.0,0.0,0.0,0.0,0.0,0.0,0.0,0.0,0.0,0.0,0.0,0.0,0.0,0.0,0.0,-1.8706,-2.0876,-2.2571,-2.2061,-2.1761,-2.2032,-2.0586,-1.8533,-1.6005,0.0,0.0,0.0,0.0,0.0,0.0,0.0,0.0,0.0,0.0,0.0,0.0,0.0,0.0,0.0,0.0,0.0,0.0,0.0,0.0,0.0,0.0,0.0,0.0,0.0,0.0,0.0,0.0,0.0,0.0,0.0,0.0,0.0,0.0,0.0,0.0,0.0,0.0,0.0,0.0,0.0,0.0,0.0,0.0,0.0,0.0,0.0,0.0,0.0,0.0,0.0,0.0,0.0,0.0,0.0,0.0,0.0,0.0,0.0,0.0,0.0,0.0,0.0,0.0,0.0,0.0,0.0,0.0,0.0,0.0,0.0,0.0,0.0,0.0,0.0,0.0,0.0,0.0,0.0,0.0,0.0,0.0,0.0,0.0,0.0,0.0,0.0,0.0,0.0,0.0,0.0,0.0,0.0,0.0,0.0,0.0,0.0,0.0,0.0,0.0,0.0,0.0,-1.6486,-1.8724,-2.0721,-2.2329,-2.1778,-2.1392,-2.1553,-2.0345,-1.8527,-1.6034,0.0,0.0,0.0,0.0,0.0,0.0,0.0,0.0,0.0,0.0,0.0,0.0,0.0,0.0,0.0,0.0,0.0,0.0,0.0,0.0,0.0,0.0,0.0,0.0,0.0,0.0,0.0,0.0,0.0,0.0,0.0,0.0,0.0,0.0,0.0,0.0,0.0,0.0,0.0,0.0,0.0,0.0,0.0,0.0,0.0,0.0,0.0,0.0,0.0,0.0,0.0,0.0,0.0,0.0,0.0,0.0,0.0,0.0,0.0,0.0,0.0,0.0,0.0,0.0,0.0,0.0,0.0,0.0,0.0,0.0,0.0,0.0,0.0,0.0,0.0,0.0,0.0,0.0,0.0,0.0,0.0,0.0,0.0,0.0,0.0,0.0,0.0,0.0,0.0,0.0,0.0,0.0,0.0,0.0,0.0,0.0,0.0,0.0,0.0,0.0,0.0,0.0,-1.6639,-1.9727,-2.2079,-2.2808,-2.1951,-2.1584,-2.2313,-1.9894,-1.7729,0.0,0.0,0.0,0.0,0.0,0.0,0.0,0.0,0.0,0.0,0.0,0.0,0.0,0.0,0.0,0.0,0.0,0.0,0.0,0.0,0.0,0.0,0.0,0.0,0.0,0.0,0.0,0.0,0.0,0.0,0.0,0.0,0.0,0.0,0.0,0.0,0.0,0.0,0.0,0.0,0.0,0.0,0.0,0.0,0.0,0.0,0.0,0.0,0.0,0.0,0.0,0.0,0.0,0.0,0.0,0.0,0.0,0.0,0.0,0.0,0.0,0.0,0.0,0.0,0.0,0.0,0.0,0.0,0.0,0.0,0.0,0.0,0.0,0.0,0.0,0.0,0.0,0.0,0.0,0.0,0.0,0.0,0.0,0.0,0.0,0.0,0.0,0.0,0.0,0.0,0.0,0.0,0.0,0.0,0.0,0.0,0.0,0.0,0.0,0.0,0.0,0.0,0.0,-1.6639,-1.9727,-2.1864,-2.2096,-2.1823,-2.1638,-2.1632,-2.0894,-1.9211,-1.644,0.0,0.0,0.0,0.0,0.0,0.0,0.0,0.0,0.0,0.0,0.0,0.0,0.0,0.0,0.0,0.0,0.0,0.0,0.0,0.0,0.0,0.0,0.0,0.0,0.0,0.0,0.0,0.0,0.0,0.0,0.0,0.0,0.0,0.0,0.0,0.0,0.0,0.0,0.0,0.0,0.0,0.0,0.0,0.0,0.0,0.0,0.0,0.0,0.0,0.0,0.0,0.0,0.0,0.0,0.0,0.0,0.0,0.0,0.0,0.0,0.0,0.0,0.0,0.0,0.0,0.0,0.0,0.0,0.0,0.0,0.0,0.0,0.0,0.0,0.0,0.0,0.0,0.0,0.0,0.0,0.0,0.0,0.0,0.0,0.0,0.0,0.0,0.0,0.0,0.0,0.0,0.0,0.0,0.0,0.0,0.0,0.0,0.0,0.0,0.0,0.0,0.0,-1.6674,-1.9738,-2.1811,-2.184,-2.1827,-2.1738,-2.1526,-2.1246,-1.992,-1.723,0.0,0.0,0.0,0.0,0.0,0.0,0.0,0.0,0.0,0.0,0.0,0.0,0.0,0.0,0.0,0.0,0.0,0.0,0.0,0.0,0.0,0.0,0.0,0.0,0.0,0.0,0.0,0.0,0.0,0.0,0.0,0.0,0.0,0.0,0.0,0.0,0.0,0.0,0.0,0.0,0.0,0.0,0.0,0.0,0.0,0.0,0.0,0.0,0.0,0.0,0.0,0.0,0.0,0.0,0.0,0.0,0.0,0.0,0.0,0.0,0.0,0.0,0.0,0.0,0.0,0.0,0.0,0.0,0.0,0.0,0.0,0.0,0.0,0.0,0.0,0.0,0.0,0.0,0.0,0.0,0.0,0.0,0.0,0.0,0.0,0.0,0.0,0.0,0.0,0.0,0.0,0.0,0.0,0.0,0.0,0.0,0.0,0.0,0.0,0.0,0.0,0.0,-1.6708,-1.9794,-2.184,-2.1882,-2.184,-2.1827,-2.1811,-2.123,-2.0128,-1.8404,0.0,0.0,0.0,0.0,0.0,0.0,0.0,0.0,0.0,0.0,0.0,0.0,0.0,0.0,0.0,0.0,0.0,0.0,0.0,0.0,0.0,0.0,0.0,0.0,0.0,0.0,0.0,0.0,0.0,0.0,0.0,0.0,0.0,0.0,0.0,0.0,0.0,0.0,0.0,0.0,0.0,0.0,0.0,0.0,0.0,0.0,0.0,0.0,0.0,0.0,0.0,0.0,0.0,0.0,0.0,0.0,0.0,0.0,0.0,0.0,-1.6079,-1.4868,0.0,0.0,0.0,0.0,0.0,0.0,0.0,0.0,0.0,0.0,0.0,0.0,0.0,0.0,0.0,0.0,0.0,0.0,0.0,0.0,0.0,0.0,0.0,0.0,0.0,0.0,0.0,0.0,0.0,0.0,0.0,0.0,0.0,0.0,0.0,0.0,0.0,0.0,0.0,0.0,-1.6733,-1.986,-2.1969,-2.1969,-2.1969,-2.194,-2.1882,-2.1554,-2.0717,-1.923,-1.7319,0.0,0.0,0.0,0.0,0.0,0.0,0.0,0.0,0.0,0.0,0.0,0.0,0.0,0.0,0.0,0.0,0.0,0.0,0.0,0.0,0.0,0.0,0.0,0.0,0.0,0.0,0.0,0.0,0.0,0.0,0.0,0.0,0.0,0.0,0.0,0.0,0.0,0.0,0.0,0.0,0.0,0.0,0.0,0.0,0.0,0.0,0.0,0.0,0.0,0.0,0.0,0.0,0.0,0.0,0.0,0.0,0.0,0.0,0.0,-1.9219,-1.7891,0.0,0.0,0.0,0.0,0.0,0.0,0.0,0.0,0.0,0.0,0.0,0.0,0.0,0.0,0.0,0.0,0.0,0.0,0.0,0.0,0.0,0.0,0.0,0.0,0.0,0.0,0.0,0.0,0.0,0.0,0.0,0.0,0.0,0.0,0.0,0.0,0.0,0.0,0.0,0.0,-1.7258,-2.0086,-2.2027,-2.2106,-2.2044,-2.1998,-2.194,-2.1658,-2.1124,-2.0251,-1.8431,0.0,0.0,0.0,0.0,0.0,0.0,0.0,0.0,0.0,0.0,0.0,0.0,0.0,0.0,0.0,0.0,0.0,0.0,0.0,0.0,0.0,0.0,0.0,0.0,0.0,0.0,0.0,0.0,0.0,0.0,0.0,0.0,0.0,0.0,0.0,0.0,0.0,0.0,0.0,0.0,0.0,0.0,0.0,0.0,0.0,0.0,0.0,0.0,0.0,0.0,0.0,0.0,0.0,-2.3943,-2.4557,-2.4746,-2.5265,-2.5615,-2.5681,-2.2915,-2.1827,-2.194,-2.0192,0.0,0.0,0.0,0.0,0.0,0.0,0.0,0.0,0.0,0.0,0.0,0.0,0.0,0.0,0.0,0.0,0.0,0.0,0.0,0.0,0.0,0.0,-1.9562,-2.0324,-2.1353,-2.1158,-1.7387,0.0,0.0,0.0,0.0,0.0,0.0,0.0,0.0,0.0,0.0,0.0,-1.8296,-2.0683,-2.2274,-2.2399,-2.232,-2.2207,-2.2061,-2.1735,-2.1444,-2.1211,-1.952,-1.8025,0.0,0.0,0.0,0.0,0.0,0.0,0.0,0.0,0.0,0.0,0.0,0.0,0.0,0.0,0.0,0.0,0.0,0.0,0.0,0.0,0.0,0.0,0.0,0.0,0.0,0.0,0.0,0.0,0.0,0.0,0.0,0.0,-1.0729,-1.2577,0.0,0.0,0.0,0.0,0.0,0.0,0.0,0.0,0.0,0.0,0.0,0.0,0.0,-2.278,-2.3962,-2.633,-2.7387,-2.712,-2.9021,-2.9956,-3.0012,-3.0185,-3.0314,-3.0314,-2.9854,0.0,-2.5017,-2.3786,0.0,0.0,0.0,0.0,0.0,0.0,0.0,0.0,0.0,0.0,0.0,0.0,0.0,0.0,0.0,0.0,0.0,0.0,0.0,0.0,0.0,0.0,-2.4214,-2.4681,-2.4906,-2.481,-2.3867,-2.0607,-1.759,-1.6501,-1.5789,-1.5098,0.0,0.0,0.0,0.0,0.0,0.0,-2.0125,-2.2073,-2.3211,-2.3257,-2.3228,-2.2929,-2.2219,-2.1915,-2.1853,-2.2034,-2.1044,-2.0069,-1.9292,-1.7909,0.0,0.0,0.0,0.0,0.0,0.0,0.0,0.0,0.0,0.0,0.0,0.0,0.0,0.0,0.0,0.0,0.0,0.0,0.0,0.0,0.0,0.0,0.0,0.0,0.0,0.0,0.0,0.0,0.0,-0.9995,-1.2324,-1.4345,-1.4885,-1.5094,0.0,0.0,0.0,0.0,0.0,0.0,0.0,0.0,0.0,-2.5079,-2.6112,-2.7158,-2.8189,-2.9839,-3.0543,-3.0406,-3.1739,-3.2326,-3.2326,-3.2384,-3.2418,-3.2377,-3.2401,-3.1496,-2.9786,-2.7404,-2.5344,-2.3601,0.0,0.0,0.0,0.0,-2.2328,-2.2495,-2.3519,-2.3819,-2.3539,-2.2227,0.0,0.0,0.0,0.0,0.0,0.0,0.0,-2.2808,-2.3887,-2.5173,-2.633,-2.6698,-2.6989,-2.7135,-2.6952,-2.498,-2.262,-2.0475,-1.9576,-1.867,-1.7247,-1.6554,0.0,0.0,0.0,-1.9838,-2.174,-2.3177,-2.4002,-2.4002,-2.3646,-2.3316,-2.3136,-2.2609,-2.2426,-2.2694,-2.2332,-2.1704,-2.0849,-1.9668,-1.7855,0.0,0.0,0.0,0.0,0.0,0.0,0.0,0.0,0.0,0.0,0.0,0.0,0.0,0.0,0.0,0.0,0.0,0.0,0.0,0.0,0.0,0.0,0.0,0.0,0.0,0.0,0.0,0.0,-1.2233,-1.4314,-1.6076,-1.7423,-1.8044,0.0,0.0,0.0,0.0,0.0,0.0,-2.3776,-2.5966,-2.7671,-2.8703,-2.9677,-3.0637,-3.1554,-3.2557,-3.2971,-3.2865,-3.3735,-3.4092,-3.3964,-3.3964,-3.3938,-3.3886,-3.3938,-3.3837,-3.338,-3.052,-2.8414,-2.6978,-2.643,-2.5982,-2.5727,-2.6371,-2.6623,-2.6808,-2.8031,-2.8239,-2.769,-2.6139,-2.5392,-2.4596,-2.2214,0.0,0.0,0.0,0.0,-2.5727,-2.6663,-2.7359,-2.7947,-2.8458,-2.8837,-2.9075,-2.9005,-2.8427,-2.7045,-2.4199,-2.3161,-2.2164,-2.0501,-1.9768,0.0,-1.9945,-2.077,-2.1869,-2.3395,-2.4284,-2.4763,-2.4763,-2.4364,-2.4018,-2.3822,-2.3369,-2.311,-2.3109,-2.3122,-2.2792,-2.2098,-2.1253,-1.9771,-1.7557,0.0,0.0,0.0,0.0,0.0,0.0,0.0,0.0,0.0,0.0,0.0,0.0,0.0,0.0,0.0,0.0,0.0,0.0,0.0,0.0,0.0,0.0,0.0,0.0,0.0,0.0,0.0,0.0,0.0,-1.8371,-2.0085,0.0,0.0,0.0,0.0,-2.4173,-2.5379,-2.6823,-2.8646,-2.9414,-3.0521,-3.2002,-3.2121,-3.2502,-3.3169,-3.4435,-3.4812,-3.4307,-3.554,-3.5925,-3.5504,-3.5504,-3.5504,-3.5459,-3.5504,-3.5098,-3.432,-3.2763,-3.163,-3.0852,-3.0121,-2.9377,-2.8839,-2.96,-2.9796,-2.9782,-3.0476,-3.0172,-2.957,-2.9996,-2.933,-2.826,-2.7655,-2.6945,0.0,0.0,-2.7414,-2.7746,-2.9082,-2.9465,-2.9727,-3.0718,-3.0965,-3.0896,-3.0657,-3.0145,-2.9121,-2.6928,-2.5782,-2.4945,-2.4076,0.0,-2.2998,-2.3619,-2.3204,-2.3429,-2.5223,-2.5492,-2.5541,-2.5541,-2.5805,-2.5385,-2.3908,-2.4051,-2.39,-2.3144,-2.3175,-2.3164,-2.3041,-2.2855,-2.1873,-1.9952,-1.8329,0.0,0.0,0.0,0.0,0.0,0.0,0.0,0.0,0.0,0.0,0.0,0.0,0.0,0.0,0.0,0.0,0.0,0.0,0.0,0.0,0.0,0.0,0.0,0.0,0.0,0.0,0.0,0.0,-2.1233,-2.3803,0.0,-2.4482,-2.5664,-2.7028,-2.8438,-2.9658,-3.0802,-3.1829,-3.308,-3.3981,-3.4424,-3.4886,-3.5526,-3.6364,-3.6074,-3.6061,-3.6388,-3.6017,-3.5739,-3.5622,-3.5622,-3.5622,-3.5622,-3.5622,-3.547,-3.5182,-3.4641,-3.3711,-3.2594,-3.2341,-3.207,-3.185,-3.2138,-3.2181,-3.2191,-3.2444,-3.2211,-3.1834,-3.1641,-3.1112,-3.05,-3.0321,-3.0407,-3.0452,-3.0048,-3.0411,-3.084,-3.0386,-3.0617,-3.1049,-3.1111,-3.149,-3.1844,-3.1742,-3.1585,-3.1133,-3.0109,-2.8613,-2.7328,-2.6607,-2.619,-2.5905,-2.5941,-2.5635,-2.5796,-2.6946,-2.7039,-2.6966,-2.6782,-2.6549,-2.6201,-2.5707,-2.4977,-2.4545,-2.446,-2.4017,-2.3689,-2.3482,-2.345,-2.2797,-2.1474,-2.0211,-1.795,0.0,0.0,0.0,0.0,0.0,0.0,0.0,0.0,0.0,0.0,0.0,0.0,0.0,0.0,0.0,0.0,0.0,0.0,0.0,0.0,0.0,0.0,0.0,0.0,0.0,0.0,-2.3217,-2.3585,-2.6686,-2.8566,-2.7925,-2.9336,-3.0833,-3.2109,-3.3125,-3.4005,-3.4747,-3.598,-3.6714,-3.6843,-3.7311,-3.7796,-3.8238,-3.7749,-3.7624,-3.7845,-3.731,-3.6895,-3.6621,-3.6621,-3.6548,-3.6383,-3.6548,-3.6503,-3.6383,-3.671,-3.6156,-3.5104,-3.4593,-3.4472,-3.4579,-3.4579,-3.4562,-3.4487,-3.4189,-3.3938,-3.3668,-3.3168,-3.2728,-3.2486,-3.2599,-3.298,-3.3235,-3.2569,-3.2945,-3.3335,-3.2207,-3.2262,-3.2492,-3.2056,-3.2213,-3.247,-3.247,-3.247,-3.2378,-3.2103,-3.0679,-2.9313,-2.8749,-2.8554,-2.8316,-2.7935,-2.794,-2.8003,-2.8047,-2.817,-2.8065,-2.7624,-2.7324,-2.7085,-2.6863,-2.5779,-2.5126,-2.5196,-2.4372,-2.3876,-2.3837,-2.3397,-2.2851,-2.2184,-2.0609,-1.8781,-1.6636,0.0,0.0,0.0,0.0,0.0,0.0,0.0,0.0,0.0,0.0,0.0,0.0,0.0,0.0,0.0,0.0,0.0,0.0,0.0,0.0,0.0,0.0,0.0,-2.0628,-2.3834,-2.6116,-2.5586,-2.8697,-3.0855,-3.0654,-3.2252,-3.3862,-3.5221,-3.5702,-3.6425,-3.7523,-3.7966,-3.8526,-3.9282,-3.9359,-3.9108,-3.8711,-3.9522,-3.9481,-3.8666,-3.9522,-3.9423,-3.8632,-3.8632,-3.8351,-3.7953,-3.8425,-3.8351,-3.8031,-3.8955,-3.9023,-3.8493,-3.6947,-3.6591,-3.6935,-3.6917,-3.6803,-3.6601,-3.5737,-3.5335,-3.5088,-3.469,-3.4446,-3.4349,-3.4703,-3.4795,-3.4795,-3.476,-3.4942,-3.5066,-3.4635,-3.4393,-3.4127,-3.3704,-3.3237,-3.2862,-3.2827,-3.2827,-3.2827,-3.2827,-3.1883,-3.0929,-3.0546,-3.0404,-3.0203,-2.9756,-3.0061,0.0,-2.8665,-2.8868,-2.8834,-2.8032,-2.8156,-2.7993,-2.7202,-2.6404,-2.5744,-2.5269,-2.4162,-2.3692,-2.4094,-2.2848,-2.2158,-2.2158,-1.9679,-1.8448,-1.8534,0.0,0.0,0.0,0.0,0.0,0.0,0.0,0.0,0.0,0.0,0.0,0.0,0.0,0.0,0.0,0.0,0.0,0.0,0.0,0.0,0.0,-2.49,-2.7004,-2.5732,-2.742,-2.9152,-3.0309,-3.2277,-3.3741,-3.4229,-3.5952,-3.7285,-3.7972,-3.8762,-3.9355,-3.9644,-3.9787,-3.9929,-4.0145,-4.0163,-4.0394,-4.0835,-4.0203,-4.0085,-4.0394,-3.9787,-3.9359,-3.9108,-3.9108,-3.9023,-3.8894,-3.9066,-3.9023,-3.8955,-3.9193,-3.94,-3.9398,-3.8088,-3.7662,-3.7712,-3.711,-3.6781,-3.6563,-3.6238,-3.6162,-3.622,-3.6012,-3.6247,-3.6608,-3.6699,-3.6916,-3.7054,-3.6461,-3.6314,-3.6155,-3.5477,-3.5205,-3.495,-3.4225,-3.4101,-3.3997,-3.337,-3.3214,-3.3243,-3.3494,-3.3063,-3.2558,-3.2219,-3.1823,-3.1564,-3.1428,-3.1219,-3.0974,-3.0604,-3.015,-2.9663,-2.9233,-2.8869,-2.8511,-2.8142,-2.7006,-2.6293,-2.6219,-2.4842,-2.4054,-2.417,-2.3815,-2.3529,-2.3346,-2.1502,-2.0204,0.0,0.0,0.0,0.0,0.0,0.0,0.0,0.0,0.0,0.0,0.0,0.0,0.0,0.0,0.0,0.0,0.0,0.0,0.0,0.0,0.0,0.0,-2.893,-3.1114,-3.1679,-3.1858,-3.2372,-3.3402,-3.5053,-3.6313,-3.6823,-3.8338,-3.9425,-3.9822,-4.0256,-4.069,-4.1159,-4.1071,-4.1162,-4.1488,-4.1506,-4.1649,-4.1911,-4.1423,-4.1289,-4.1538,-4.1034,-4.0699,-4.0518,-4.0559,-4.0477,-4.0225,-4.0477,-4.0435,-4.0267,-4.0641,-4.082,-4.0735,0.0,0.0,0.0,0.0,-3.7356,-3.7243,-3.7188,-3.7206,-3.7261,-3.7206,-3.7432,-3.7756,-3.7756,-3.7913,-3.7993,-3.7522,-3.7461,-3.7384,-3.6798,-3.6531,-3.6261,-3.5659,-3.5483,-3.5209,-3.4385,-3.4164,-3.4082,-3.3915,-3.3734,0.0,-3.3343,-3.3037,-3.2756,-3.2586,-3.2456,-3.2214,-3.1709,-3.1349,-3.0844,-2.9999,-2.96,-2.9247,-2.8863,-2.7684,0.0,0.0,0.0,-2.4395,-2.3768,-2.3731,0.0,0.0,0.0,0.0,0.0,0.0,0.0,0.0,-2.0386,-1.9938,0.0,0.0,0.0,0.0,0.0,0.0,0.0,0.0,0.0,0.0,0.0,0.0,0.0,0.0,0.0,0.0,-3.2575,-3.4388,-3.7202,-3.647,-3.5623,-3.5583,-3.7185,-3.8436,-3.8716,-3.9858,-4.0672,-4.1016,-4.0921,-4.1214,-4.2187,-4.1978,0.0,0.0,0.0,-4.2711,-4.2279,-4.2711,-4.2711,-4.2297,-4.2711,-4.2711,-4.2338,-4.2436,-4.2198,-4.1743,-4.2239,-4.2198,-4.1743,-4.2577,-4.2673,-4.2177,-4.0692,-3.9876,-3.9423,-3.8627,-3.8352,-3.8334,-3.8244,0.0,0.0,-3.8117,-3.8117,-3.8168,-3.8168,-3.8201,-3.8201,-3.8201,-3.8396,-3.8523,-3.8249,-3.8041,-3.7774,-3.7441,-3.7006,-3.6426,-3.5613,-3.5373,-3.5077,-3.4293,-3.4072,-3.3998,-3.403,-3.3921,-3.3707,-3.3332,-3.3578,-3.3424,-3.2332,-3.2438,-3.2027,-3.0527,-3.027,0.0,-2.937,-2.8313,-2.7559,-2.7281,-2.6207,-2.4983,-2.3619,-2.3563,-2.3563,-2.3561,-2.4251,-2.5099,-2.6051,-2.6652,-2.7063,-2.7236,-2.2864,-2.1989,0.0,0.0,0.0,0.0,0.0,0.0,0.0,0.0,0.0,0.0,0.0,0.0,0.0,0.0,0.0,-3.3194,-3.5283,-3.6996,-3.7927,-3.8536,-3.8834,-3.8681,-3.89,-3.9387,-4.0111,-4.1311,-4.2026,-4.1891,-4.2426,-4.283,-4.3065,-4.2795,-4.2737,-4.2882,-4.2882,-4.2844,-4.2768,-4.2956,-4.3012,-4.2936,-4.305,0.0,-4.2995,-4.3032,-4.2995,-4.2864,-4.2995,-4.2938,-4.2786,-4.2974,-4.305,-4.2978,-4.1795,-4.0926,-4.0202,-3.9441,-3.9184,-3.9073,-3.8419,-3.8216,-3.8245,-3.8245,-3.8423,-3.8579,-3.8579,-3.8748,0.0,-3.8913,-3.8942,-3.897,-3.8913,-3.8859,-3.8637,-3.796,-3.7655,-3.734,-3.6525,-3.5787,-3.5262,-3.5095,-3.4478,-3.4055,-3.4195,-3.4037,-3.3842,-3.3788,-3.3788,-3.3725,-3.346,-3.2947,-3.2279,-3.1431,-3.0794,-3.0185,-2.9512,-2.8708,-2.8221,-2.8142,-2.7336,-2.6718,-2.6416,-2.6416,-2.6395,-2.6406,-2.6561,-2.6766,-2.7028,-2.7104,-2.7501,-2.8118,-2.6226,-2.5762,0.0,0.0,0.0,0.0,0.0,0.0,0.0,0.0,0.0,0.0,0.0,-2.8574,-3.0784,0.0,-3.4779,-3.6397,-3.8232,-3.9575,-3.9951,-4.0357,-4.0338,-3.9662,-4.0368,-4.106,-4.1519,-4.2474,-4.3102,-4.3084,-4.3339,-4.3511,-4.3511,-4.3232,-4.3069,-4.2994,-4.2994,-4.3031,-4.305,-4.3286,-4.3304,-4.316,-4.3356,-4.3356,-4.3214,-4.3214,-4.3178,-4.316,-4.316,-4.3068,-4.2994,-4.3123,-4.3321,-4.344,-4.2898,-4.2205,-4.14,-4.0646,-4.0349,-4.0253,-3.9447,-3.9215,-3.9234,-3.8799,-3.8807,-3.8952,-3.8894,-3.8998,-3.9101,-3.9101,-3.9101,-3.9101,-3.9101,-3.9101,-3.9017,-3.8768,-3.8674,-3.8458,-3.7746,-3.7258,-3.6714,-3.5866,-3.5342,-3.4933,-3.4647,-3.4461,-3.4302,-3.4136,-3.3979,-3.3947,-3.4037,-3.371,-3.3213,-3.2558,-3.2173,-3.1542,-3.0502,-2.9352,-2.8692,-2.8692,-2.7899,-2.7443,-2.7443,-2.7452,-2.7447,-2.7452,-2.7875,-2.8118,-2.8155,-2.8457,-2.8859,-2.9315,-2.8519,-2.8241,0.0,0.0,0.0,0.0,0.0,0.0,0.0,0.0,-2.7848,-3.0199,-3.1307,-3.2609,-3.507,-3.6634,-3.8028,-3.9567,-4.0793,-4.1661,-4.1908,-4.1754,-4.1248,-4.0314,-4.1681,-4.2693,-4.281,-4.3452,-4.3905,-4.4109,-4.3918,-4.3841,-4.3841,-4.3526,-4.3321,-4.3214,-4.316,-4.316,-4.3214,-4.3477,-4.3529,-4.3251,-4.3511,-4.3511,-4.3268,-4.3268,-4.3214,-4.3141,-4.3178,-4.3123,-4.305,-4.3267,-4.3545,-4.3777,-4.3777,-4.3402,-4.2798,-4.1872,-4.1576,-4.1496,-4.0681,-4.0521,-4.0505,-3.9602,-3.9398,-3.9434,-3.9212,-3.9101,-3.9101,-3.9101,-3.9101,-3.9101,-3.9101,-3.9156,-3.9219,-3.9452,-3.9532,-3.9439,-3.8942,-3.87,-3.8188,-3.6842,-3.6311,-3.5913,-3.5287,-3.4965,-3.4713,-3.4423,-3.4255,-3.4184,-3.4357,-3.4379,-3.413,-3.3507,-3.3469,-3.2898,-3.1482,-3.0221,-2.9442,-2.9257,-2.8581,-2.8204,-2.8204,-2.8218,-2.8218,-2.8204,-2.8881,-2.9251,-2.925,-2.977,-3.0209,-3.0542,-3.0209,-3.0047,-2.1655,-2.2268,-2.3192,-2.541,-2.6523,-2.826,0.0,0.0,-3.3926,-3.6459,-3.7061,-3.7709,-3.956,-4.0252,-4.082,-4.1803,-4.2294,-4.254,-4.25,-4.2363,-4.2224,-4.2038,-4.2728,-4.3418,-4.3855,-4.4221,-4.4306,-4.4109,-4.4192,-4.4231,-4.4231,-4.3868,-4.366,-4.3627,-4.3356,-4.3214,-4.3214,-4.3376,-4.3411,-4.3394,-4.3463,-4.3513,-4.3463,-4.3463,-4.3428,-4.3359,-4.3428,-4.3463,-4.3444,-4.3597,-4.3809,-4.406,-4.406,-4.4143,-4.4111,-4.2848,-4.2539,-4.2597,-4.1808,-4.1651,-4.1657,-4.0806,-4.0464,-4.028,-3.9434,-3.9156,-3.9101,-3.9101,-3.9101,-3.9101,-3.9101,-3.9272,-3.9458,-3.9483,-3.9656,-3.9757,-3.9683,-3.9098,-3.8529,-3.8359,-3.7107,-3.6122,-3.6213,-3.5439,-3.4773,-3.4753,-3.4674,-3.4632,-3.4653,-3.4653,-3.4394,-3.3747,-3.3669,-3.3105,-3.1684,-3.1404,-3.0983,-3.0196,-3.0062,-3.0024,-3.0024,-3.0011,-3.0011,-3.0024,-3.0062,-3.0094,-3.0151,-3.0177,-3.063,-3.1456,-3.141,-3.1355,-2.6098,-2.7148,0.0,0.0,-3.0921,-3.3135,-3.5346,-3.6349,-3.7367,-3.9288,-4.009,-4.0679,-4.1469,-4.2063,-4.2598,0.0,-4.3723,-4.4131,-4.405,-4.3607,-4.3259,-4.3238,-4.292,-4.3007,-4.367,-4.3845,-4.4105,-4.453,-4.4602,-4.4584,-4.4411,-4.427,-4.4035,-4.3791,-4.3627,-4.3477,-4.3393,-4.3615,-4.3667,-4.3463,-4.3823,-4.3823,-4.3479,-4.3631,-4.3615,-4.3463,-4.3646,-4.3777,-4.386,-4.3905,-4.4109,-4.4335,-4.4335,-4.4411,-4.443,-4.3855,-4.3725,-4.3736,-4.2913,-4.2687,-4.2592,-4.1694,-4.1033,-4.0531,-4.0095,-3.9547,-3.9101,-3.9101,-3.9101,-3.9101,-3.9101,-3.9165,-3.9331,-3.9614,-3.975,-3.9882,-4.0138,-3.9925,-3.958,-3.9084,-3.8032,-3.7072,-3.6642,-3.5809,-3.5207,-3.5207,-3.4944,-3.4812,-3.4982,-3.5,-3.4937,-3.4772,-3.4289,-3.3743,-3.316,-3.2641,-3.2199,-3.1834,-3.1808,-3.1584,-3.1079,-3.1053,-3.1053,-3.106,-3.1028,-3.129,-3.1808,-3.1783,-3.1962,-3.2359,-3.2372,-3.2595,-2.9108,0.0,0.0,-3.2336,-3.4735,-3.6957,-3.749,-3.8708,-4.0057,-4.1143,-4.1827,-4.2262,-4.236,-4.2876,-4.3418,-4.3825,-4.4538,-4.5093,-4.5265,-4.4346,-4.3637,-4.3656,-4.2522,-4.2139,-4.3189,-4.341,-4.3901,-4.4838,-4.4895,-4.4827,-4.4669,-4.4591,-4.4383,-4.4095,-4.4004,-4.3855,-4.3649,-4.3878,-4.3878,-4.3649,-4.4042,-4.4042,-4.3697,-4.3777,-4.3763,-4.3615,-4.3855,-4.4011,-4.4109,-4.417,-4.4335,-4.4515,-4.4515,-4.4515,-4.4515,-4.4515,-4.4515,-4.4421,-4.3839,-4.3668,-4.3551,-4.2652,-4.1781,-4.1092,-4.0772,-4.0038,-3.9313,-3.9313,-3.9305,-3.9287,-3.9287,-3.9338,-3.9489,-3.9838,-3.9944,-4.0082,-4.0422,-4.0489,-4.0315,-3.9738,-3.8931,-3.8161,-3.7493,-3.6531,-3.5839,-3.5839,-3.5343,-3.5035,-3.5258,-3.5273,-3.5339,-3.5493,-3.4949,-3.4449,-3.4218,-3.3622,-3.316,-3.291,-3.2923,-3.2673,-3.2,-3.1994,-3.2013,-3.1969,-3.1969,-3.2257,-3.2897,-3.2897,-3.3019,-3.3256,-3.3231,-3.3678,0.0,0.0,-3.2269,-3.5526,-3.7486,-3.907,-4.0767,-4.1796,-4.2404,-4.2541,-4.2408,-4.236,-4.256,-4.2659,-4.3063,-4.4032,-4.4427,-4.4896,-4.567,-4.4199,-4.3025,-4.3034,-4.1389,-4.0939,-4.2642,-4.324,-4.3901,-4.4838,-4.4895,-4.4943,-4.508,-4.4764,-4.465,-4.4751,-4.4519,-4.4231,-4.4005,-4.4005,-4.4005,-4.3974,-4.3883,-4.3942,-4.4162,-4.3974,-4.3897,-4.3897,-4.4017,-4.4109,-4.4121,-4.4383,-4.4487,-4.4515,-4.4515,-4.4515,-4.4515,-4.4515,-4.4515,-4.4515,-4.4477,-4.4584,-4.4605,-4.3742,-4.305,-4.2368,-4.1469,-4.057,-3.988,-3.988,-3.9838,-3.9775,-3.9775,-3.9963,-4.0158,-4.0177,-4.0339,-4.0489,-4.0489,-4.0489,-4.0489,-4.0469,-3.9796,-3.9238,-3.9135,-3.7755,-3.6661,-3.6661,-3.5936,-3.5412,-3.5493,-3.5493,-3.5493,-3.5493,-3.5488,-3.5122,-3.4257,-3.418,-3.3795,-3.2949,-3.301,-3.3021,-3.2872,-3.299,-3.299,-3.2858,-3.2858,-3.2878,-3.2897,-3.2897,-3.3327,-3.416,-3.4095,-3.4562,0.0,0.0,-3.5751,-3.8003,-3.973,-4.1207,-4.2409,-4.2813,-4.2934,-4.2886,-4.2353,-4.1913,-4.2005,-4.2023,-4.2376,-4.3438,-4.4153,-4.4891,-4.5744,-4.4813,-4.3871,-4.3318,-4.2579,-4.239,-4.3065,-4.2546,0.0,-4.5017,-4.4614,-4.456,-4.5194,-4.5129,-4.4976,-4.4819,-4.4701,-4.4519,-4.4279,-4.4279,-4.4279,-4.426,-4.4221,-4.4346,-4.4599,-4.4538,-4.4421,-4.4306,-4.4541,-4.4513,-4.4364,-4.4468,-4.4587,-4.4688,-4.4688,-4.4814,-4.4957,-4.4957,-4.4957,-4.4934,-4.4764,-4.4843,-4.5014,-4.4728,-4.4064,-4.3248,-4.2389,-4.149,-4.0629,-4.0058,-3.9884,-3.988,-3.988,-3.9901,-3.9983,-4.0158,-4.0251,-4.0339,-4.0473,-4.0489,-4.0489,-4.0489,-3.9835,-3.9296,-3.9262,-3.8319,-3.7377,-3.6786,-3.5998,-3.546,-3.5493,-3.5493,-3.5493,-3.5493,-3.5493,-3.5412,-3.5152,-3.5125,-3.5024,-3.4768,-3.4806,-3.4574,-3.3993,-3.4001,-3.4001,-3.3955,-3.3955,-3.4226,-3.4759,-3.4759,-3.4913,-3.5194,-3.5174,-3.5329,-3.5059,-3.6762,-3.8195,-4.0801,-4.2005,-4.277,-4.3666,-4.3324,-4.2621,-4.1904,-4.0761,-3.9841,-3.9601,-3.9239,-3.9634,-4.1609,-4.268,-4.3757,-4.5235,-4.4944,-4.4415,-4.392,-4.3466,-4.3336,0.0,0.0,0.0,-4.5207,-4.4823,-4.4706,-4.5258,-4.5213,-4.5106,-4.4981,-4.4934,-4.4795,-4.4546,-4.4546,-4.4519,-4.4465,-4.4591,-4.4714,-4.4838,-4.4838,-4.4758,-4.464,-4.4821,-4.4796,-4.4632,-4.4578,-4.47,-4.4868,-4.48,-4.4943,-4.5201,-4.5201,-4.5263,-4.5264,-4.503,-4.5099,-4.5304,-4.5304,-4.4748,-4.3981,-4.3463,-4.2467,-4.1377,-4.0803,-4.0404,-4.0157,-4.0157,-4.0119,-4.0119,-4.0304,-4.0341,-4.0375,-4.0473,-4.0489,-4.0489,-4.0489,-4.0065,-3.9749,-3.9774,-3.9075,-3.8207,-3.734,-3.653,-3.5888,-3.5545,-3.5528,-3.5534,-3.5534,-3.5565,-3.5585,-3.564,-3.565,-3.565,-3.5693,-3.5745,-3.5519,-3.4952,-3.4963,-3.4982,-3.4933,-3.4933,-3.5177,-3.5693,-3.5693,-3.5713,-3.5696,-3.5704,-3.5704,-3.7688,-3.8624,-3.9648,-4.3733,-4.4121,-4.3683,-4.437,-4.3249,-4.1532,-3.9688,-3.7815,-3.6305,-3.5639,0.0,-3.5276,-3.8802,-4.0208,-4.1749,-4.4247,-4.4634,-4.4679,0.0,0.0,0.0,0.0,0.0,0.0,-4.5433,-4.5343,-4.5263,-4.5317,-4.5057,-4.5014,-4.5297,-4.517,-4.5019,-4.4843,-4.4843,-4.4751,-4.4643,-4.4948,-4.5038,-4.4919,-4.4919,-4.4919,-4.4895,-4.4895,-4.4895,-4.4895,-4.477,-4.4833,-4.503,-4.4872,-4.5007,-4.5243,-4.5243,-4.5343,-4.549,-4.5303,-4.5343,-4.5526,-4.5526,-4.514,-4.4659,-4.462,-4.3413,-4.2052,-4.2014,-4.133,-4.0621,-4.0621,-4.0588,-4.0607,-4.0603,-4.0607,-4.0588,-4.0523,-4.0523,-4.0523,-4.0523,-4.0504,-4.0549,-4.0681,-3.999,-3.912,-3.8288,-3.7475,-3.6624,-3.5688,-3.5596,-3.5618,-3.5618,-3.5669,-3.5702,-3.5702,-3.5702,-3.5702,-3.5729,-3.582,-3.5846,-3.571,-3.584,-3.5846,-3.571,-3.5729,-3.5729,-3.5729,-3.5729,-3.5729,-3.5729,-3.5732,-3.5713,-3.9139,-4.0912,-4.2619,-4.3708,-4.3789,-4.3296,-4.2265,-4.111,-3.9596,-3.723,-3.5329,-3.3839,-3.3025,-3.3709,0.0,-3.7268,-3.9995,0.0,-4.4397,-4.5231,0.0,-4.484,0.0,-4.5187,-4.4799,-4.5099,0.0,0.0,-4.4878,-4.4672,-4.54,-4.5194,-4.5125,-4.5297,-4.5275,-4.5213,-4.5173,-4.5173,-4.5151,-4.5129,-4.5213,-4.5213,-4.5192,-4.5192,-4.5148,-4.5057,-4.5057,-4.5042,-4.5049,-4.4957,-4.514,-4.5436,-4.5343,-4.5453,-4.5642,-4.5642,-4.5673,-4.5723,-4.5658,-4.5673,-4.5723,-4.5723,-4.5617,-4.5374,-4.4775,-4.3833,-4.2827,-4.2189,-4.1351,-4.0668,-4.0668,-4.0654,-4.0607,-4.0593,-4.0593,-4.0593,-4.0579,-4.0583,-4.0573,-4.0573,-4.0607,-4.0655,-4.0694,-4.0059,-3.9481,-3.9248,-3.8421,-3.7491,-3.6644,-3.6028,-3.5659,-3.5659,-3.5685,-3.5745,-3.584,-3.5846,-3.5864,-3.5923,-3.5955,-3.5955,-3.5923,-3.5955,-3.5955,-3.5923,-3.5923,-3.5923,-3.5923,-3.5923,-3.5923,-3.5923,-3.5923,-3.5923,-4.1127,-4.2881,-4.4266,-4.4266,-4.3676,-4.2532,-4.0446,-3.8664,-3.6606,-3.3609,-3.1927,0.0,-2.9371,-3.0862,0.0,0.0,0.0,0.0,-4.3831,-4.4898,-4.5401,0.0,-4.5733,0.0,-4.5375,-4.5733,-4.5983,0.0,-4.5259,-4.5026,-4.5494,-4.5361,-4.5281,-4.5297,-4.5298,-4.5298,-4.5297,-4.5297,-4.5297,-4.5297,-4.5297,-4.5319,-4.54,-4.54,-4.538,-4.5361,-4.5361,-4.5362,-4.5343,-4.5225,-4.5381,-4.5665,-4.5543,-4.5626,-4.58,-4.58,-4.58,-4.58,-4.58,-4.58,-4.58,-4.58,-4.58,-4.5722,-4.5258,-4.4543,-4.3692,-4.2821,-4.1957,-4.1216,-4.0842,-4.0733,-4.0706,-4.0621,-4.064,-4.0679,-4.0656,-4.0675,-4.0689,-4.0687,-4.0745,-4.0796,-4.084,-4.0482,-4.0214,-4.0217,-3.941,-3.8645,-3.819,-3.7033,-3.6157,-3.5826,-3.582,-3.5869,-3.5938,-3.5942,-3.5951,-3.5991,-3.5991,-3.5991,-3.5991,-3.5991,-3.5991,-3.5991,-3.5991,-3.5991,-3.5991,-3.5991,-3.5991,-3.5991,-3.5991,-3.5991,-4.3069,-4.4348,-4.4972,-4.4855,-4.3598,-4.1652,-3.8812,-3.6183,-3.3359,-2.9804,0.0,-2.7217,-2.5729,-2.7481,-3.0081,-3.2856,0.0,-3.9481,-4.3019,-4.4199,-4.5055,-4.593,-4.6037,-4.6027,-4.6027,-4.6008,-4.5998,-4.5998,-4.596,-4.5805,-4.5566,-4.5528,-4.5456,-4.5319,-4.5321,-4.5321,-4.5338,-4.5317,-4.5317,-4.5339,-4.5338,-4.54,-4.5531,-4.5531,-4.5601,-4.57,-4.568,-4.57,-4.5696,-4.5526,-4.5596,-4.5795,-4.5613,-4.5661,-4.5819,-4.5819,-4.5819,-4.5838,-4.5838,-4.5838,-4.5838,-4.5819,-4.5819,-4.5819,-4.5838,-4.5278,-4.4446,-4.3562,-4.2744,-4.1912,-4.1052,-4.0866,-4.0868,-4.0681,-4.072,-4.0803,-4.0733,-4.077,-4.0797,-4.0792,-4.0856,-4.0917,-4.0986,-4.0998,-4.1019,-4.1011,-4.0357,-3.9825,-3.9739,-3.8143,-3.6786,-3.6148,-3.6033,-3.5991,-3.5991,-3.5991,-3.5991,-3.5991,-3.5991,-3.5991,-3.5991,-3.5991,-3.5991,-3.5991,-3.5991,-3.5991,-3.5991,-3.5991,-3.5991,-3.5991,-3.5991,-3.5991,-4.3388,-4.4338,-4.4836,-4.411,-4.3156,-4.1347,-3.7354,-3.4422,0.0,0.0,-2.6127,-2.4896,-2.4646,-2.6151,-2.8728,-3.2656,0.0,0.0,0.0,0.0,-4.5187,0.0,0.0,0.0,-4.6162,-4.6118,0.0,0.0,-4.6018,-4.5929,-4.5852,-4.561,-4.5493,-4.5457,-4.5476,-4.5476,-4.5457,-4.536,-4.5419,-4.5635,-4.5513,-4.5531,-4.5668,-4.5668,-4.5684,-4.57,-4.5648,-4.5677,-4.5786,-4.5696,-4.5727,-4.588,-4.5786,-4.5844,-4.5969,-4.5969,-4.6007,-4.6046,-4.6046,-4.6046,-4.6046,-4.5988,-4.5969,-4.5988,-4.6027,-4.5452,-4.4587,-4.3703,-4.286,-4.2005,-4.1174,-4.0956,-4.0963,-4.0867,-4.0867,-4.0884,-4.0867,-4.0867,-4.0874,-4.0807,-4.0897,-4.0994,-4.0996,-4.1047,-4.1088,-4.1081,-4.0911,-4.0524,-3.9864,-3.83,-3.7207,-3.7077,-3.642,-3.5991,-3.5991,-3.5991,-3.5991,-3.5991,-3.5991,-3.5991,-3.5991,-3.5991,-3.5991,-3.5991,-3.5991,-3.5991,-3.5991,-3.5991,-3.5991,-3.5991,-3.5991,-3.5991,-4.2795,-4.3651,-4.4117,-4.3232,-4.1712,-3.9408,-3.5522,0.0,0.0,0.0,-2.4276,-2.3417,-2.2576,0.0,0.0,0.0,0.0,0.0,0.0,0.0,0.0,0.0,0.0,0.0,0.0,-4.6167,-4.6137,-4.6105,-4.606,-4.6008,-4.5906,-4.5712,-4.5648,-4.5715,-4.5651,-4.5599,-4.5599,-4.5549,-4.5584,-4.57,-4.5616,-4.5665,-4.5805,-4.5805,-4.5814,-4.5848,-4.5822,-4.5848,-4.5905,-4.5912,-4.5951,-4.599,-4.5963,-4.6007,-4.604,-4.6042,-4.6065,-4.6104,-4.6104,-4.6104,-4.6102,-4.6087,-4.608,-4.6065,-4.6085,-4.5813,-4.5278,-4.4413,-4.3579,-4.2729,-4.1848,-4.1334,-4.1023,-4.0929,-4.0925,-4.0967,-4.105,-4.1022,-4.0994,-4.0961,-4.0991,-4.1015,-4.105,-4.107,-4.1108,-4.1108,-4.1074,-4.091,-4.0519,-3.9409,-3.8473,-3.8024,-3.7204,-3.6677,-3.6677,-3.6267,-3.5991,-3.5991,-3.5991,-3.5991,-3.5991,-3.5991,-3.5991,-3.5991,-3.5991,-3.5991,-3.5991,-3.6001,-3.5999,-3.601,-3.6462,-3.6677,-4.1833,-4.2753,-4.3269,-4.2575,-4.0482,-3.7684,-3.4194,-3.0616,0.0,0.0,-2.2818,-2.2213,-2.1081,0.0,0.0,0.0,0.0,0.0,0.0,0.0,0.0,0.0,0.0,0.0,-4.6221,-4.6217,0.0,-4.6128,-4.6118,-4.6044,-4.5925,-4.5814,-4.5819,-4.5893,-4.5791,-4.5746,-4.5746,-4.5715,-4.5712,-4.5757,-4.5761,-4.5805,-4.5912,-4.5912,-4.5972,-4.6018,-4.6027,-4.6018,-4.6036,-4.6075,-4.6104,-4.6094,-4.6096,-4.6099,-4.6111,-4.6111,-4.6138,-4.6142,-4.6142,-4.6144,-4.6154,-4.6196,-4.6185,-4.6119,-4.6144,-4.6142,-4.5967,-4.5084,-4.4253,-4.3413,-4.2487,-4.1676,-4.1091,-4.0974,-4.0984,-4.1042,-4.116,-4.1147,-4.1119,-4.1103,-4.1055,-4.1035,-4.1094,-4.1074,-4.1053,-4.1053,-4.1068,-4.1066,-4.1069,-4.0521,-3.9875,-3.9175,-3.817,-3.7497,-3.7321,-3.6677,-3.6208,-3.601,-3.5982,-3.5986,-3.6001,-3.5986,-3.5989,-3.5989,-3.5987,-3.5986,-3.5984,-3.5987,-3.6083,-3.6294,-3.6972,-3.7399,-4.0782,-4.1867,-4.2498,-4.2424,-4.048,-3.7694,-3.4189,0.0,0.0,-2.3657,-2.1881,-2.1022,-2.1665,-2.2094,0.0,0.0,0.0,0.0,0.0,0.0,0.0,0.0,0.0,0.0,-4.629,-4.6248,-4.6191,-4.619,-4.6123,-4.606,-4.5997,-4.5986,-4.5941,-4.5906,-4.5893,-4.588,-4.588,-4.5761,-4.58,-4.5975,-4.5912,-4.5925,-4.5986,-4.5986,-4.6027,-4.6091,-4.6088,-4.6086,-4.6094,-4.6103,-4.6092,-4.6092,-4.6092,-4.6151,-4.6201,-4.6196,-4.623,-4.6288,-4.6288,-4.628,-4.629,-4.6293,-4.6253,-4.6193,-4.6264,-4.6288,-4.6093,-4.5233,-4.4353,-4.3492,-4.2616,-4.1796,-4.1171,-4.1093,-4.1099,-4.1097,-4.1105,-4.1151,-4.117,-4.1116,-4.1105,-4.11,-4.1098,-4.0991,-4.0916,-4.0916,-4.0961,-4.0984,-4.0922,-4.0912,-4.0837,-4.0703,-3.9355,-3.816,-3.7379,-3.7223,-3.6833,-3.6049,-3.5937,-3.5935,-3.5996,-3.5932,-3.5901,-3.5901,-3.5909,-3.5915,-3.5917,-3.5909,-3.6357,-3.7187,-3.7253,-3.7711,-3.8998,-4.0228,-4.089,-4.0892,-3.8959,-3.6259,-3.3282,0.0,-2.5605,-2.3478,-2.1745,-2.0687,-2.1006,-2.152,-2.2621,0.0,-2.5902,-2.803,-3.2543,0.0,0.0,0.0,0.0,0.0,0.0,0.0,-4.6245,-4.6191,-4.6147,-4.6105,-4.6118,-4.6046,-4.5986,-4.5972,-4.5972,-4.5972,-4.5972,-4.5905,-4.5929,-4.5997,-4.6018,-4.6026,-4.6052,-4.6105,-4.6137,-4.6158,-4.6153,-4.6162,-4.6156,-4.6152,-4.6152,-4.6156,-4.6208,-4.623,-4.6268,-4.6258,-4.6284,-4.6308,-4.6308,-4.6305,-4.6306,-4.6294,-4.6279,-4.6275,-4.6286,-4.6308,-4.623,-4.5879,-4.4785,-4.3613,-4.3262,-4.2207,-4.1191,-4.1172,-4.1151,-4.1152,-4.1109,-4.1116,-4.1117,-4.1,-4.0987,-4.0975,-4.0975,-4.0941,-4.091,-4.0956,-4.0975,-4.0984,-4.0967,-4.0972,-4.0993,-4.0956,-3.994,-3.9113,-3.876,-3.8253,-3.7589,-3.6712,-3.6638,-3.6398,-3.5899,-3.5848,-3.6091,-3.6618,-3.6621,-3.6879,-3.7393,-3.7441,-3.7668,-3.8027,-3.8554,-3.8984,-3.6815,-3.8277,-3.9131,-3.9137,-3.7145,-3.4599,0.0,-2.8381,-2.4843,-2.3329,-2.1714,-2.059,-2.0536,-2.1286,-2.2153,0.0,-2.4048,-2.6,-2.9474,-3.1638,0.0,0.0,0.0,-4.3212,0.0,-4.601,-4.6276,-4.6211,-4.617,-4.6143,-4.621,-4.6105,-4.6054,-4.6027,-4.6017,-4.5997,-4.5997,-4.5997,-4.6017,-4.6027,-4.6076,-4.6112,-4.6131,-4.6191,-4.6209,-4.6198,-4.6198,-4.6202,-4.6226,-4.6226,-4.6226,-4.6228,-4.6278,-4.63,-4.6303,-4.627,-4.6264,-4.6273,-4.6254,-4.6241,-4.6243,-4.6269,-4.6269,-4.6269,-4.6289,-4.6308,-4.6308,-4.6308,-4.5039,-4.3633,-4.3379,-4.2266,-4.1191,-4.1191,-4.1191,-4.1177,-4.1119,-4.1093,-4.1071,-4.0956,-4.0915,-4.0896,-4.0896,-4.0876,-4.0898,-4.0931,-4.0958,-4.0959,-4.0943,-4.0964,-4.0958,-4.0938,-4.0383,-3.9948,-3.9714,-3.9142,-3.8403,-3.7539,-3.7468,-3.7183,-3.6598,-3.6559,-3.6832,-3.7449,-3.7447,-3.7759,-3.8364,-3.8416,-3.8561,-3.8834,-3.9471,-3.992,-3.4253,-3.6014,-3.7323,-3.7326,-3.5308,-3.2879,0.0,-2.7434,-2.4062,-2.3178,-2.1725,-2.0593,-2.0593,-2.1315,-2.2153,-2.2974,-2.4555,-2.6878,-3.0313,-3.3027,0.0,0.0,0.0,-4.2747,-4.3637,-4.5291,-4.6278,-4.6209,-4.6191,-4.6204,-4.6195,-4.6206,-4.6162,-4.6098,-4.6036,-4.5997,-4.5997,-4.5997,-4.6036,-4.6098,-4.6098,-4.6137,-4.6202,-4.6202,-4.62,-4.6191,-4.6191,-4.6246,-4.63,-4.63,-4.63,-4.63,-4.63,-4.63,-4.6292,-4.6227,-4.6199,-4.6183,-4.6122,-4.6105,-4.6105,-4.6186,-4.6191,-4.6211,-4.6289,-4.6308,-4.6308,-4.6308,-4.5039,-4.3496,-4.2637,-4.1816,-4.1191,-4.1191,-4.1191,-4.1177,-4.1119,-4.1093,-4.1074,-4.1016,-4.0958,-4.09,-4.09,-4.0842,-4.0803,-4.079,-4.0848,-4.088,-4.0822,-4.0861,-4.0868,-4.081,-4.0803,-4.0481,-3.9753,-3.9695,-3.9296,-3.8433,-3.831,-3.8319,-3.8364,-3.8306,-3.8267,-3.8287,-3.8287,-3.8287,-3.8306,-3.8296,-3.8743,-3.9591,-3.9676,-4.0203,-3.0629,-3.1921,-3.2649,-3.2042,-3.1251,-3.0035,-2.7706,-2.5685,-2.3863,-2.2355,-2.1266,-2.059,-2.0536,-2.0798,-2.1862,-2.4458,-2.5336,0.0,0.0,0.0,0.0,-3.8141,-4.2288,-4.4992,0.0,0.0,-4.6253,-4.6147,-4.617,-4.6226,-4.6268,-4.6221,-4.6199,-4.6162,-4.6147,-4.6137,-4.6137,-4.6137,-4.6147,-4.6162,-4.617,-4.6184,-4.6208,-4.6249,-4.6262,-4.6276,-4.6276,-4.6238,-4.615,-4.6151,-4.6105,-4.6027,-4.602,-4.604,-4.604,-4.6045,-4.6065,-4.6079,-4.608,-4.6096,-4.6108,-4.6114,-4.6123,-4.6138,-4.6158,-4.6196,-4.6119,-4.5501,-4.4551,-4.3496,-4.2637,-4.1772,-4.1127,-4.1127,-4.111,-4.1045,-4.099,-4.0958,-4.0938,-4.0868,-4.0848,-4.0829,-4.0829,-4.081,-4.079,-4.079,-4.081,-4.081,-4.079,-4.081,-4.081,-4.079,-4.079,-4.0713,-4.0481,-4.0462,-4.0075,-3.9212,-3.9127,-3.8868,-3.828,-3.8241,-3.8512,-3.9104,-3.9124,-3.9414,-4.0014,-4.0012,-4.017,-4.0496,-4.0509,-4.0673,0.0,-2.8592,-2.9142,-2.859,-2.8182,-2.7408,-2.5495,-2.4178,-2.305,-2.1914,-2.1094,-2.059,-2.0558,-2.1093,-2.2232,-2.438,-2.5278,0.0,0.0,0.0,0.0,-3.9374,0.0,0.0,0.0,-4.5924,-4.6195,-4.615,-4.6182,-4.6238,-4.63,-4.6268,-4.621,-4.6152,-4.618,-4.6202,-4.6202,-4.6202,-4.6209,-4.62,-4.619,-4.621,-4.6246,-4.627,-4.6273,-4.6216,-4.6216,-4.6144,0.0,-4.6016,-4.5988,-4.5901,-4.589,-4.5897,-4.591,-4.5917,-4.5854,-4.5786,-4.5916,-4.5881,-4.58,-4.5838,-4.5874,-4.594,-4.5998,-4.6084,-4.606,-4.5514,-4.4516,-4.3501,-4.2954,-4.1935,-4.1061,-4.1059,-4.1033,-4.0985,-4.0905,-4.09,-4.0868,-4.081,-4.079,-4.079,-4.079,-4.079,-4.079,-4.079,-4.079,-4.079,-4.079,-4.079,-4.079,-4.079,-4.079,-4.079,-4.079,-4.079,-4.0558,-4.0017,-3.999,-3.9746,-3.9204,-3.9185,-3.9437,-3.9978,-3.999,-4.0249,-4.079,-4.08,-4.0826,-4.0859,-4.0858,-4.0868,0.0,-2.573,-2.6417,-2.6359,-2.5769,-2.5001,-2.42,-2.2853,0.0,-2.171,-2.1121,-2.0632,-2.0769,-2.1998,-2.3111,-2.3423,0.0,0.0,0.0,-3.2078,0.0,0.0,-4.3117,0.0,-4.478,-4.56,-4.6103,-4.616,-4.6187,-4.6209,-4.6269,-4.6273,-4.6211,-4.6091,-4.615,-4.6178,-4.6178,-4.6192,-4.6204,-4.6191,-4.6191,-4.6225,-4.6296,-4.6273,-4.6206,-4.6091,-4.6091,-4.6005,-4.5859,-4.5859,-4.584,-4.5827,-4.5827,-4.5827,-4.5818,-4.5755,-4.5591,-4.5395,-4.5584,-4.5472,-4.5285,-4.5361,-4.5488,-4.5617,-4.5838,-4.6003,-4.61,-4.6016,-4.4786,-4.3481,-4.3422,-4.2208,-4.0984,-4.0986,-4.0996,-4.0977,-4.0919,-4.09,-4.0868,-4.081,-4.079,-4.079,-4.079,-4.079,-4.079,-4.079,-4.079,-4.079,-4.079,-4.079,-4.079,-4.079,-4.079,-4.079,-4.079,-4.079,-4.079,-4.079,-4.079,-4.079,-4.079,-4.079,-4.079,-4.079,-4.079,-4.079,-4.079,-4.079,-4.0808,-4.0796,-4.0808,-4.0843,-1.9117,0.0,-2.1679,-2.1012,-2.1656,-2.2231,0.0,-2.1491,-2.156,0.0,0.0,-2.0983,-2.2272,-2.233,-2.3267,-2.6546,0.0,0.0,-3.2026,0.0,0.0,-4.4411,-4.5137,-4.5364,-4.5481,-4.5796,-4.598,-4.5906,-4.5949,-4.5983,-4.5986,-4.5988,-4.5987,-4.594,-4.5963,-4.5974,-4.5974,-4.616,-4.6228,-4.6128,-4.6128,-4.6137,-4.6144,-4.6041,-4.5978,-4.5959,-4.5959,-4.5782,-4.5526,-4.5526,-4.534,-4.5058,-4.5058,-4.5052,-4.5065,-4.5113,-4.5071,-4.5026,-4.5061,-4.5063,-4.5042,-4.5304,-4.5417,-4.5486,-4.575,-4.5945,-4.5944,-4.5234,-4.4296,-4.3346,-4.269,-4.1729,-4.0931,-4.0931,-4.0868,-4.0829,-4.0829,-4.081,-4.081,-4.079,-4.079,-4.079,-4.079,-4.079,-4.079,-4.079,-4.079,-4.079,-4.079,-4.079,-4.079,-4.079,-4.079,-4.079,-4.079,-4.079,-4.079,-4.079,-4.079,-4.079,-4.079,-4.079,-4.079,-4.079,-4.079,-4.079,-4.079,-4.079,-4.0803,-4.0796,-4.0803,-4.0815,-1.6463,-1.8423,-2.0229,-1.973,-2.063,-2.1526,-2.1041,0.0,0.0,0.0,0.0,0.0,-2.2389,-2.3118,0.0,0.0,-2.8694,0.0,0.0,0.0,-4.2452,-4.5438,-4.5838,-4.5829,-4.5765,-4.5824,-4.5852,-4.5815,-4.5827,-4.5861,-4.5891,-4.5897,-4.5897,-4.5859,-4.5878,-4.5899,-4.5899,-4.6049,-4.6091,-4.6005,-4.6005,-4.6005,-4.6005,-4.593,-4.5878,-4.5859,-4.5719,-4.5526,-4.5285,-4.5167,-4.4995,-4.48,-4.48,-4.48,-4.48,-4.4825,-4.4849,-4.4872,-4.4992,-4.5058,-4.5101,-4.5437,-4.5436,-4.5417,-4.5715,-4.5868,-4.5858,-4.5341,-4.4626,-4.3808,-4.2931,-4.206,-4.1313,-4.0926,-4.0829,-4.079,-4.079,-4.079,-4.079,-4.079,-4.079,-4.079,-4.079,-4.079,-4.079,-4.079,-4.079,-4.079,-4.079,-4.079,-4.079,-4.079,-4.079,-4.079,-4.079,-4.079,-4.079,-4.079,-4.079,-4.079,-4.079,-4.079,-4.079,-4.079,-4.079,-4.079,-4.079,-4.079,-4.079,-4.079,-4.079,-4.079,-1.5608,-1.8086,-2.052,-2.019,-2.1058,-2.1956,-2.1925,0.0,0.0,0.0,0.0,0.0,0.0,0.0,0.0,0.0,0.0,0.0,-3.8063,-4.0815,-4.3156,-4.5589,-4.5819,-4.5796,-4.5765,-4.5715,-4.5727,-4.5775,-4.5775,-4.5796,-4.5844,-4.5844,-4.5835,-4.5771,-4.5815,-4.5844,-4.5844,-4.5889,-4.5889,-4.5878,-4.5878,-4.5878,-4.5878,-4.5856,-4.5822,-4.5757,-4.5519,-4.5342,-4.518,-4.4896,-4.4776,-4.4726,-4.4676,-4.4676,-4.4676,-4.4676,-4.4676,-4.4701,-4.4943,-4.5052,-4.5118,-4.5476,-4.5456,-4.5361,-4.5684,-4.5776,-4.5786,-4.5781,-4.5119,-4.4175,-4.3189,-4.2376,-4.1641,-4.0965,-4.079,-4.079,-4.079,-4.079,-4.079,-4.079,-4.079,-4.079,-4.079,-4.079,-4.079,-4.079,-4.079,-4.079,-4.079,-4.079,-4.079,-4.0759,-4.079,-4.0778,-4.0733,-4.0746,-4.0746,-4.07,-4.0759,-4.079,-4.079,-4.079,-4.079,-4.079,-4.079,-4.079,-4.079,-4.079,-4.079,-4.079,-4.079,-4.079,-1.7026,-1.9415,-2.1133,-1.9663,-2.1025,-2.2757,0.0,0.0,0.0,0.0,0.0,0.0,0.0,0.0,0.0,0.0,0.0,-3.7133,0.0,0.0,-4.3636,-4.5514,0.0,-4.5719,-4.5715,-4.5722,-4.5706,-4.5722,-4.5671,-4.5635,-4.5651,-4.5651,-4.5651,-4.5637,-4.5635,-4.5651,-4.5651,-4.5815,-4.5875,-4.5822,-4.5822,-4.5822,-4.5808,-4.5696,-4.5635,-4.5637,-4.5584,-4.5419,-4.518,-4.4896,-4.4676,-4.4438,-4.4192,-4.4121,-4.4121,-4.4121,-4.4121,-4.4121,-4.4181,-4.4318,-4.4572,-4.4919,-4.514,-4.5362,-4.562,-4.5719,-4.5715,-4.5706,-4.465,-4.315,-4.1583,-4.1081,-4.0945,-4.0829,-4.0746,-4.0733,-4.079,-4.0765,-4.0733,-4.079,-4.079,-4.079,-4.079,-4.079,-4.079,-4.079,-4.079,-4.079,-4.079,-4.079,-4.0726,-4.0559,-4.07,-4.0687,-4.0403,-4.0481,-4.0446,-4.0227,-4.0579,-4.079,-4.079,-4.079,-4.079,-4.079,-4.079,-4.079,-4.079,-4.079,-4.079,-4.079,-4.079,-4.079,-1.6277,-1.8356,-2.0216,-1.9936,-2.2449,-2.4891,0.0,0.0,0.0,0.0,0.0,0.0,0.0,0.0,0.0,-3.3354,0.0,-3.9741,-4.1724,-4.3134,-4.4418,0.0,-4.5754,-4.5748,-4.5706,-4.5673,-4.564,-4.564,-4.5622,-4.5586,-4.5586,-4.5586,-4.5586,-4.5586,-4.5586,-4.5586,-4.5586,-4.5692,-4.5718,-4.57,-4.57,-4.57,-4.57,-4.5637,-4.5513,-4.5381,-4.5222,-4.503,-4.4751,-4.4484,-4.4308,-4.4162,-4.4048,-4.4005,-4.4036,-4.4181,-4.4221,-4.425,-4.4374,-4.4493,-4.465,-4.4825,-4.4985,-4.5118,-4.5225,-4.5265,-4.5208,-4.4919,-4.4399,-4.3664,-4.2427,-4.1764,-4.1332,-4.0887,-4.0778,-4.0759,-4.079,-4.0746,-4.07,-4.0746,-4.0626,-4.0549,-4.0631,-4.0515,-4.045,-4.0515,-4.0515,-4.0515,-4.0515,-4.0515,-4.05,-4.0399,-4.0466,-4.0469,-4.0317,-4.0367,-4.0315,-4.0119,-4.0315,-4.0415,-4.0415,-4.0559,-4.0654,-4.0654,-4.0746,-4.079,-4.079,-4.079,-4.079,-4.079,-4.079,-4.079,-1.5869,-1.7663,-1.9647,-2.0574,0.0,0.0,-2.6057,0.0,0.0,0.0,0.0,0.0,0.0,0.0,0.0,-3.5719,-3.8899,-4.1338,-4.2137,-4.362,-4.4891,-4.5664,-4.5761,-4.5719,-4.5676,-4.564,-4.5586,-4.5586,-4.5586,-4.5586,-4.5586,-4.5586,-4.5586,-4.5586,-4.5586,-4.5586,-4.5586,-4.555,-4.5513,-4.5513,-4.5513,-4.5457,-4.5419,-4.5419,-4.5302,-4.5096,-4.4872,-4.4676,-4.4465,-4.4192,-4.4091,-4.4109,-4.4017,-4.4005,-4.4017,-4.4221,-4.4318,-4.4346,-4.4546,-4.465,-4.4701,-4.4776,-4.4825,-4.4872,-4.4881,-4.4886,-4.4798,-4.438,-4.4287,-4.4058,-4.313,-4.2439,-4.177,-4.0939,-4.07,-4.0673,-4.072,-4.0626,-4.0564,-4.0593,-4.0419,-4.03,-4.0386,-4.0247,-4.0137,-4.0247,-4.0281,-4.03,-4.03,-4.03,-4.03,-4.0266,-4.0247,-4.0229,-4.0156,-4.0138,-4.0063,-3.9965,-4.0005,-4.0043,-4.0043,-4.0243,-4.0364,-4.0364,-4.0545,-4.064,-4.064,-4.07,-4.0733,-4.0733,-4.0778,-4.079,-1.7304,-1.9023,-2.0605,-2.1496,0.0,0.0,-2.7382,0.0,0.0,0.0,0.0,0.0,0.0,-3.4186,-3.6802,-3.7929,-4.0192,-4.2105,-4.2922,0.0,-4.4658,-4.5505,-4.5603,-4.5605,-4.5622,-4.5603,-4.5586,-4.5586,-4.5586,-4.5586,-4.5586,-4.5586,-4.5586,-4.5586,-4.5586,-4.5586,-4.5586,-4.5342,-4.5222,-4.5222,-4.5222,-4.5096,-4.4868,-4.4868,-4.4849,-4.4825,-4.48,-4.4776,-4.4751,-4.4465,-4.4374,-4.4346,-4.4109,-4.4005,-4.4005,-4.4017,-4.4017,-4.4017,-4.4048,-4.4221,-4.4411,-4.4438,-4.4599,-4.48,-4.48,-4.48,-4.4781,-4.4749,-4.4227,-4.3416,-4.2274,-4.1957,-4.1687,-4.0814,-4.0415,-4.0281,-4.0489,-4.0321,-4.0177,-4.03,-4.021,-4.0119,-4.0119,-4.0119,-4.01,-4.0119,-4.021,-4.03,-4.03,-4.03,-4.0248,-4.0139,-4.0101,-4.0024,-3.9757,-3.9632,-3.9556,-3.9556,-3.98,-3.9908,-3.9908,-3.9947,-3.9947,-3.9947,-4.0081,-4.0155,-4.0155,-4.0396,-4.0526,-4.0526,-4.0713,-4.079,-1.6171,-1.8373,-2.0589,-2.0912,0.0,0.0,0.0,0.0,0.0,0.0,0.0,0.0,0.0,0.0,-3.7077,-3.7964,-4.0202,-4.1936,-4.2239,-4.3028,-4.3682,-4.4008,-4.4047,-4.4239,-4.4739,-4.4778,-4.5009,-4.5547,-4.5586,-4.5586,-4.5586,-4.5586,-4.5513,-4.5342,-4.5342,-4.5263,-4.5096,-4.5007,-4.4872,-4.4682,-4.4872,-4.4915,-4.48,-4.48,-4.4701,-4.4546,-4.4546,-4.4457,-4.4308,-4.4192,-4.4151,-4.4151,-4.4048,-4.4005,-4.4005,-4.4005,-4.4005,-4.4005,-4.4005,-4.4079,-4.4058,-4.3554,-4.381,-4.4214,-4.3709,-4.3915,-4.4224,-4.3917,-4.395,-4.3806,-4.2541,-4.1839,-4.1226,-4.0364,-4.0081,-4.0024,-4.0119,-4.0062,-4.0002,-4.0043,-3.988,-3.975,-3.9838,-3.9709,-3.9618,-3.9709,-3.9772,-3.9838,-3.992,-3.992,-3.9939,-3.9958,-3.9918,-3.9794,-3.9702,-3.9508,-3.9376,-3.9376,-3.9543,-3.9641,-3.9641,-3.9735,-3.9778,-3.9778,-3.9926,-3.9967,-3.9967,-4.0081,-4.0173,-4.0262,-4.0332,-4.0399,-1.6187,-1.849,-2.0978,0.0,0.0,0.0,0.0,0.0,0.0,0.0,0.0,0.0,0.0,0.0,0.0,0.0,-4.0096,-4.1489,-4.1758,-4.2316,-4.2797,-4.3066,-4.3104,-4.3316,-4.3874,-4.3912,-4.4162,-4.4759,-4.4797,-4.478,-4.4688,-4.4688,-4.4576,-4.4315,-4.4541,-4.4608,-4.4421,-4.4594,-4.4572,-4.4383,-4.4511,-4.4565,-4.4565,-4.4565,-4.4457,-4.4279,-4.4202,-4.4042,-4.386,-4.3763,-4.373,-4.3763,-4.3828,-4.3828,-4.3763,-4.3942,-4.3942,-4.3892,-4.3974,-4.4005,-4.3875,-4.3058,-4.3169,-4.3466,-4.2667,-4.2816,-4.3174,-4.2782,-4.3109,-4.3231,-4.2059,-4.167,-4.1271,-4.0131,-3.9823,-3.9781,-3.9842,-3.9775,-3.9728,-3.9769,-3.9585,-3.9477,-3.9575,-3.9408,-3.9324,-3.9408,-3.9458,-3.9532,-3.9623,-3.9647,-3.9647,-3.9712,-3.9623,-3.9575,-3.9508,-3.9376,-3.9298,-3.9298,-3.9401,-3.9427,-3.9376,-3.9513,-3.9566,-3.9519,-3.9645,-3.9716,-3.9716,-3.9802,-3.9886,-3.9966,-4.0005,-4.01,-1.7907,-1.9818,0.0,0.0,0.0,0.0,0.0,0.0,0.0,0.0,0.0,0.0,0.0,0.0,0.0,-3.9264,-4.002,-4.0796,-4.1681,-4.1797,-4.2104,-4.297,-4.3085,-4.3085,-4.3085,-4.3085,-4.3085,-4.3104,-4.3104,-4.2981,-4.2699,-4.2699,-4.2598,-4.2401,-4.3175,-4.3568,-4.3568,-4.4105,-4.4364,-4.4364,-4.4102,-4.3986,-4.4005,-4.4005,-4.3986,-4.3974,-4.373,-4.3597,-4.3597,-4.3304,-4.3214,-4.3232,-4.3495,-4.3426,-4.3268,-4.3814,-4.3828,-4.3612,-4.3892,-4.3986,-4.3856,-4.3039,-4.2779,-4.263,-4.1832,-4.159,-4.159,-4.159,-4.159,-4.1404,-4.0587,-4.1342,-4.1859,-4.0195,-3.9637,-3.9532,-3.967,-3.9502,-3.935,-3.9458,-3.9401,-3.9298,-3.9298,-3.9298,-3.9298,-3.9298,-3.9427,-3.9502,-3.9502,-3.9502,-3.9452,-3.9324,-3.9298,-3.9245,-3.9129,-3.9219,-3.9298,-3.9298,-3.9298,-3.9245,-3.9101,-3.9219,-3.9245,-3.9101,-3.9219,-3.9298,-3.9298,-3.9566,-3.9687,-3.9709,-3.9825,-3.9888,-1.8143,-2.0227,0.0,0.0,0.0,0.0,0.0,0.0,0.0,0.0,0.0,0.0,-3.8888,0.0,0.0,-3.9278,-3.998,-4.0585,-4.0854,-4.0893,-4.0969,-4.1239,-4.1258,-4.1508,-4.2124,-4.22,-4.2362,-4.2794,-4.2814,-4.2718,-4.2512,-4.249,-4.2379,-4.214,-4.2341,-4.237,-4.2193,-4.2352,-4.2348,-4.2149,-4.2075,-4.2622,-4.373,-4.373,-4.3631,-4.3426,-4.3375,-4.3339,-4.3304,-4.3232,-4.3214,-4.3214,-4.3304,-4.3268,-4.3196,-4.3375,-4.341,-4.3283,-4.2986,-4.2881,-4.2691,-4.1494,-4.1479,-4.1813,-4.0996,-4.1144,-4.1479,-4.0921,-4.1144,-4.1256,-3.9844,-4.0225,-4.0697,-3.9575,-3.9253,-3.9219,-3.9272,-3.9219,-3.9165,-3.9219,-3.921,-3.9156,-3.9156,-3.9156,-3.9156,-3.9156,-3.9192,-3.9245,-3.935,-3.9433,-3.9483,-3.9433,-3.935,-3.9272,-3.9245,-3.9192,-3.9156,-3.9156,-3.9245,-3.9272,-3.9245,-3.9192,-3.9156,-3.9101,-3.9156,-3.9156,-3.9156,-3.9227,-3.9331,-3.9414,-3.9445,-3.9543,-1.9811,0.0,0.0,0.0,0.0,0.0,0.0,0.0,0.0,0.0,0.0,-3.945,-3.973,-3.9508,0.0,-3.9719,-4.0181,-4.0489,-4.0489,-4.0489,-4.0489,-4.0489,-4.0489,-4.0684,-4.1121,-4.1159,-4.1263,-4.1529,-4.1547,-4.1464,-4.1279,-4.1255,-4.1135,-4.0854,-4.1191,-4.1241,-4.097,-4.1285,-4.1311,-4.102,-4.102,-4.1467,-4.2317,-4.2454,-4.2386,-4.223,-4.2141,-4.2214,-4.2392,-4.2392,-4.2573,-4.2862,-4.2957,-4.2739,-4.2374,-4.2632,-4.2432,-4.2068,-4.1837,-4.1754,-4.1585,-4.0443,-4.0413,-4.0683,-3.9997,-4.0118,-4.0396,-3.9983,-4.0234,-4.0364,-3.9361,-3.9491,-3.9751,-3.9212,-3.9101,-3.9101,-3.9101,-3.9101,-3.9101,-3.9101,-3.9101,-3.9101,-3.9101,-3.9101,-3.9101,-3.9101,-3.9017,-3.9017,-3.9101,-3.9165,-3.9219,-3.9219,-3.9137,-3.9101,-3.9101,-3.8913,-3.8873,-3.896,-3.9073,-3.9156,-3.9219,-3.9192,-3.9137,-3.9101,-3.9101,-3.9101,-3.9101,-3.9101,-3.9137,-3.9219,-3.9219,-3.9272,0.0,0.0,0.0,0.0,0.0,0.0,0.0,0.0,0.0,0.0,0.0,-3.9508,-4.0258,-3.9835,-3.9642,-4.0373,-4.0489,-4.0489,-4.0489,-4.0489,-4.0489,-4.0473,-4.0473,-4.0389,-4.0177,-4.0158,-4.0042,-3.9797,-3.9775,-3.9683,-3.9458,-3.9458,-3.935,-3.9101,-3.9834,-4.0137,-3.986,-4.0578,-4.0818,-4.0534,-4.0534,-4.0397,-4.0167,-4.056,-4.0753,-4.07,-4.0474,-4.0612,-4.0985,-4.0985,-4.1413,-4.2114,-4.234,-4.183,-4.1064,-4.1597,-4.1198,-4.0366,-4.0577,-4.0643,-4.0516,-3.9747,-3.9491,-3.9396,-3.8903,-3.8743,-3.8803,-3.8989,-3.9045,-3.9045,-3.9045,-3.9045,-3.9045,-3.9045,-3.9073,-3.9101,-3.9101,-3.9101,-3.9101,-3.9101,-3.9073,-3.9073,-3.9073,-3.9045,-3.9045,-3.9045,-3.8892,-3.8743,-3.8743,-3.8743,-3.8743,-3.8743,-3.8743,-3.8743,-3.8743,-3.8559,-3.851,-3.8762,-3.8743,-3.8833,-3.9045,-3.9192,-3.9219,-3.9101,-3.9101,-3.9101,-3.9101,-3.9101,-3.9101,-3.9101,-3.9101,-3.9101,0.0,0.0,0.0,0.0,0.0,0.0,0.0,0.0,0.0,0.0,-3.8863,-3.9354,-3.9527,-3.9931,-4.0296,-4.0469,-4.0489,-4.0489,-4.0489,-4.0489,-4.0441,-4.0286,-4.0269,-4.0157,-3.9922,-3.9901,-3.9794,-3.9585,-3.9561,-3.9458,-3.9192,-3.921,-3.9156,-3.9101,-3.9135,-3.9013,-3.8755,-3.8912,-3.8794,-3.8366,-3.8524,-3.8454,-3.824,-3.9806,-4.0366,-4.0088,-4.0029,-4.0042,-4.0164,-4.0164,-4.0271,-4.0414,-4.0492,-4.0346,-4.0164,-4.03,-4.0211,-3.994,-3.9662,-3.9516,-3.946,-3.8846,-3.867,-3.8652,-3.8501,-3.8496,-3.8478,-3.8541,-3.8541,-3.8541,-3.8541,-3.8541,-3.8541,-3.8541,-3.8826,-3.9101,-3.9101,-3.9101,-3.9101,-3.9101,-3.896,-3.8862,-3.8862,-3.8695,-3.8541,-3.8541,-3.851,-3.8496,-3.8496,-3.8496,-3.8496,-3.8496,-3.8496,-3.8496,-3.8496,-3.8415,-3.8415,-3.8478,-3.8496,-3.851,-3.8541,-3.8942,-3.9129,-3.9101,-3.9101,-3.9101,-3.9101,-3.9101,-3.9101,-3.9101,-3.9101,-3.9101,0.0,0.0,0.0,0.0,0.0,0.0,0.0,0.0,0.0,-3.6736,-3.7833,-3.8681,-3.8681,-3.9008,-3.9431,-3.9854,-3.9931,-4.0046,-4.045,-4.0425,-4.0321,-4.0214,-4.0062,-3.9859,-3.9614,-3.9566,-3.9445,-3.9219,-3.9245,-3.9183,-3.9017,-3.9017,-3.896,-3.873,-3.8628,-3.836,-3.7946,-3.7929,-3.7721,-3.7374,-3.7485,-3.7449,-3.7352,-3.8544,-3.8957,-3.879,-3.879,-3.9022,-3.9379,-3.9379,-3.9593,-3.9914,-3.9914,-3.97,-3.9379,-3.9379,-3.9129,-3.8774,-3.8528,-3.842,-3.8385,-3.8093,-3.8119,-3.8219,-3.8219,-3.8285,-3.8382,-3.8382,-3.8382,-3.8382,-3.8382,-3.8382,-3.8382,-3.8382,-3.8603,-3.8766,-3.8766,-3.8766,-3.8766,-3.8766,-3.8664,-3.8621,-3.8621,-3.8478,-3.8382,-3.8382,-3.8285,-3.8219,-3.8219,-3.8219,-3.8219,-3.8219,-3.8219,-3.8219,-3.8219,-3.8086,-3.8086,-3.8186,-3.8219,-3.8252,-3.8382,-3.8615,-3.8844,-3.8931,-3.895,-3.8989,-3.9101,-3.9101,-3.9101,-3.9101,-3.9101,-3.9101,0.0,0.0,0.0,0.0,0.0,0.0,0.0,0.0,0.0,-3.5468,-3.6719,-3.7777,-3.7777,-3.7892,-3.8219,-3.895,-3.9065,-3.9281,-3.9919,-3.9863,-3.9719,-3.9643,-3.938,-3.9166,-3.91,-3.9066,-3.9007,-3.8921,-3.895,-3.895,-3.8892,-3.895,-3.8766,-3.8291,-3.8277,-3.7928,-3.7339,-3.7356,-3.7223,-3.6948,-3.6987,-3.6987,-3.7027,-3.7354,-3.7521,-3.7558,-3.7577,-3.7969,-3.8594,-3.8594,-3.895,-3.9504,-3.9504,-3.9129,-3.8594,-3.8594,-3.8165,-3.7577,-3.7577,-3.7577,-3.7577,-3.7577,-3.7757,-3.7915,-3.7915,-3.8086,-3.8252,-3.8252,-3.8252,-3.8252,-3.8252,-3.8252,-3.8252,-3.8252,-3.8252,-3.8285,-3.8382,-3.8382,-3.8382,-3.8382,-3.835,-3.8318,-3.8252,-3.8252,-3.8252,-3.8252,-3.8086,-3.7915,-3.7915,-3.7915,-3.7915,-3.7915,-3.7915,-3.7915,-3.7915,-3.7721,-3.7685,-3.7915,-3.7915,-3.8018,-3.8252,-3.8252,-3.8382,-3.8652,-3.8713,-3.8833,-3.8989,-3.8989,-3.8989,-3.8989,-3.8989,-3.8989,0.0,0.0,0.0,0.0,0.0,0.0,0.0,0.0,-3.4584,0.0,-3.6238,-3.6873,-3.6873,-3.744,-3.7963,-3.8161,-3.8112,-3.8086,-3.8068,-3.7999,-3.7795,-3.7401,-3.7263,-3.7368,-3.7896,-3.7914,-3.821,-3.8855,-3.891,-3.891,-3.891,-3.891,-3.8707,-3.8291,-3.8062,-3.7667,-3.7058,-3.7052,-3.6948,-3.6725,-3.6908,-3.6987,-3.6987,-3.7066,-3.7182,-3.7334,-3.7503,-3.7648,-3.7755,-3.7755,-3.7809,-3.7898,-3.7898,-3.7844,-3.7755,-3.7755,-3.7684,-3.7577,-3.7577,-3.7577,-3.7577,-3.7577,-3.7613,-3.7649,-3.7649,-3.7685,-3.7721,-3.7721,-3.7721,-3.7721,-3.7721,-3.7721,-3.7721,-3.7721,-3.7721,-3.781,-3.8285,-3.8382,-3.8382,-3.8382,-3.8219,-3.7984,-3.7757,-3.7721,-3.7721,-3.7721,-3.7685,-3.7649,-3.7649,-3.7649,-3.7649,-3.7649,-3.7649,-3.7649,-3.7649,-3.7613,-3.7631,-3.7649,-3.7649,-3.7649,-3.7721,-3.7721,-3.781,-3.8086,-3.835,-3.8478,-3.851,-3.851,-3.851,-3.851,-3.851,-3.851,0.0,0.0,0.0,0.0,0.0,0.0,0.0,0.0,-3.3583,-3.3961,-3.4691,-3.5402,-3.5869,-3.6272,-3.6661,-3.7141,-3.7203,-3.7274,-3.7543,-3.7471,-3.7232,-3.6878,-3.6689,-3.6665,-3.6952,-3.6932,-3.708,-3.7429,-3.7477,-3.7679,-3.8092,-3.7924,-3.784,-3.7859,-3.7506,-3.7097,-3.662,-3.6615,-3.6568,-3.6502,-3.6568,-3.6609,-3.6591,-3.6748,-3.6987,-3.7297,-3.741,-3.7521,-3.7577,-3.7577,-3.7577,-3.7577,-3.7577,-3.7577,-3.7577,-3.7577,-3.7577,-3.7577,-3.7577,-3.7577,-3.7577,-3.7577,-3.7685,-3.7792,-3.7667,-3.7721,-3.7792,-3.7649,-3.7577,-3.7577,-3.7577,-3.7577,-3.7577,-3.7577,-3.7577,-3.7649,-3.788,-3.7949,-3.7949,-3.7949,-3.7863,-3.7757,-3.7613,-3.7577,-3.7577,-3.7577,-3.7577,-3.7577,-3.7577,-3.7577,-3.7755,-3.8219,-3.8272,-3.8433,-3.8843,-3.8504,-3.8272,-3.8272,-3.7844,-3.7577,-3.7577,-3.7577,-3.7649,-3.7792,-3.8052,-3.8252,-3.8382,-3.8382,-3.8382,-3.8382,-3.8382,-3.8382,0.0,0.0,0.0,0.0,0.0,0.0,0.0,0.0,-3.2366,0.0,-3.3358,-3.3958,-3.4616,-3.5096,-3.5561,-3.6159,-3.6208,-3.6317,-3.673,-3.6587,-3.6348,-3.6093,-3.5861,-3.5818,-3.6021,-3.6001,-3.6064,-3.6266,-3.6266,-3.6446,-3.7021,-3.6708,-3.6602,-3.679,-3.6511,-3.6142,-3.5732,-3.5921,-3.6069,-3.6174,-3.6174,-3.6131,-3.6028,-3.6233,-3.6509,-3.6856,-3.7164,-3.7372,-3.7521,-3.7594,-3.7577,-3.7577,-3.7577,-3.7577,-3.7577,-3.7577,-3.7577,-3.7577,-3.7577,-3.7577,-3.7577,-3.7577,-3.7757,-3.7845,-3.7649,-3.7757,-3.7863,-3.7649,-3.7577,-3.7577,-3.7577,-3.7577,-3.7577,-3.7577,-3.7577,-3.7577,-3.7577,-3.7577,-3.7577,-3.7577,-3.7577,-3.7577,-3.7577,-3.7577,-3.7577,-3.7577,-3.7577,-3.7577,-3.7577,-3.7577,-3.7898,-3.8719,-3.8808,-3.9111,-3.986,-3.9236,-3.8808,-3.8808,-3.8041,-3.7577,-3.7577,-3.7577,-3.7577,-3.7577,-3.7792,-3.7984,-3.8186,-3.8186,-3.8186,-3.8186,-3.8186,-3.8186,0.0,0.0,0.0,0.0,0.0,0.0,0.0,0.0,-3.0893,-3.257,-3.287,-3.2881,-3.2929,-3.4236,-3.5327,-3.5358,-3.5141,-3.4964,-3.4866,-3.4555,-3.4277,-3.4076,-3.397,-3.4229,-3.5018,-3.5064,-3.5422,-3.6229,-3.5957,-3.5737,-3.5792,-3.5472,-3.517,-3.4849,-3.4849,-3.4626,-3.4197,-3.4904,-3.5427,-3.5827,-3.5827,-3.5633,-3.527,-3.527,-3.5374,-3.5637,-3.6799,-3.7314,-3.7334,-3.7503,-3.7577,-3.7577,-3.7577,-3.7577,-3.7577,-3.7577,-3.7577,-3.7577,-3.7577,-3.7577,-3.7577,-3.7577,-3.7631,-3.7613,-3.7613,-3.7631,-3.7631,-3.7613,-3.7577,-3.7577,-3.7577,-3.7577,-3.7577,-3.7577,-3.7577,-3.7577,-3.7577,-3.7577,-3.7577,-3.7577,-3.7577,-3.7577,-3.7577,-3.7577,-3.7577,-3.7577,-3.7577,-3.7577,-3.7577,-3.7577,-3.7898,-3.8719,-3.8808,-3.9111,-3.986,-3.9236,-3.8808,-3.8808,-3.8041,-3.7577,-3.7577,-3.7577,-3.7577,-3.7577,-3.7613,-3.7613,-3.7649,-3.7649,-3.7649,-3.7649,-3.7649,-3.7649,0.0,0.0,0.0,0.0,0.0,0.0,0.0,-2.7569,-2.9008,-3.0164,-3.0784,-3.1287,-3.18,-3.2885,-3.3808,-3.4156,-3.4128,-3.413,-3.4342,-3.4274,-3.4105,-3.3868,-3.3815,-3.3917,-3.4211,-3.4035,-3.4029,-3.4368,-3.4032,-3.4042,-3.4595,-3.4248,-3.4235,-3.4672,-3.4446,-3.4138,-3.3778,-3.3811,-3.4176,-3.4745,-3.4745,-3.4908,-3.5224,-3.5224,-3.5253,-3.5328,-3.5916,-3.6274,-3.6533,-3.6661,-3.686,-3.715,-3.715,-3.7319,-3.7577,-3.7577,-3.7577,-3.7577,-3.7577,-3.7577,-3.7577,-3.7577,-3.7577,-3.7577,-3.7577,-3.7577,-3.7577,-3.7577,-3.7577,-3.7577,-3.7577,-3.7577,-3.7577,-3.7577,-3.7577,-3.7577,-3.7577,-3.7577,-3.7577,-3.7577,-3.7577,-3.7577,-3.7577,-3.7577,-3.7577,-3.7577,-3.7577,-3.7577,-3.7577,-3.7577,-3.7898,-3.8719,-3.8808,-3.9111,-3.986,-3.9236,-3.8808,-3.8808,-3.8041,-3.7577,-3.7577,-3.7577,-3.7577,-3.7577,-3.7577,-3.7577,-3.7577,-3.7577,-3.7577,-3.7577,-3.7577,-3.7577,0.0,0.0,0.0,0.0,0.0,0.0,-2.4358,0.0,-2.6883,-2.8268,-2.8983,-2.9593,-3.0323,-3.0967,-3.179,-3.301,-3.3072,-3.3101,-3.3376,-3.3308,-3.3278,-3.3393,-3.3403,-3.3441,-3.3634,-3.3437,-3.3243,-3.3154,-3.2813,-3.2882,-3.3397,-3.3073,-3.3066,-3.3534,-3.3283,-3.3146,-3.3042,-3.2833,-3.3031,-3.3634,-3.3634,-3.3794,-3.4137,-3.4386,-3.4502,-3.4518,-3.4935,-3.5448,-3.5994,-3.6105,-3.6357,-3.6661,-3.6661,-3.686,-3.7111,-3.7111,-3.7243,-3.7374,-3.7374,-3.7374,-3.7374,-3.7374,-3.7374,-3.7337,-3.7206,-3.7243,-3.7374,-3.7374,-3.7374,-3.7411,-3.754,-3.7577,-3.7577,-3.7577,-3.7577,-3.7577,-3.7577,-3.7577,-3.7577,-3.7577,-3.7577,-3.7577,-3.7577,-3.7577,-3.7577,-3.7577,-3.7577,-3.7577,-3.7577,-3.7577,-3.7898,-3.8719,-3.8808,-3.9111,-3.986,-3.9236,-3.8808,-3.8808,-3.8041,-3.7577,-3.7577,-3.7577,-3.7577,-3.7577,-3.7577,-3.7577,-3.7577,-3.7577,-3.7577,-3.7577,-3.7577,-3.7577,0.0,0.0,0.0,0.0,0.0,0.0,-2.502,0.0,-2.4522,-2.7063,-2.7574,-2.7782,-2.8442,-2.8563,-2.9358,-3.1838,-3.1972,-3.1771,-3.1786,-3.1555,-3.1678,-3.2485,-3.2551,-3.2738,-3.3176,-3.3237,-3.3087,-3.2759,-3.2453,-3.2283,-3.2283,-3.1965,-3.1634,-3.1295,-3.1295,-3.1495,-3.1951,-3.1951,-3.2107,-3.2467,-3.2467,-3.2272,-3.2028,-3.274,-3.3064,-3.3097,-3.3925,-3.48,-3.5664,-3.595,-3.6122,-3.6172,-3.6172,-3.6172,-3.6172,-3.6172,-3.6481,-3.686,-3.686,-3.69,-3.69,-3.69,-3.69,-3.6821,-3.6357,-3.6522,-3.686,-3.686,-3.686,-3.6978,-3.7449,-3.754,-3.754,-3.754,-3.754,-3.7577,-3.7577,-3.7577,-3.7577,-3.7577,-3.7577,-3.7577,-3.7577,-3.7577,-3.7577,-3.7577,-3.7577,-3.7577,-3.7577,-3.7577,-3.7898,-3.8683,-3.8772,-3.9058,-3.9789,-3.9182,-3.8772,-3.8772,-3.8023,-3.7577,-3.7577,-3.7577,-3.7577,-3.7577,-3.7577,-3.7577,-3.7577,-3.7577,-3.7577,-3.7577,-3.7577,-3.7577,-1.2017,0.0,0.0,0.0,0.0,0.0,0.0,0.0,-2.1875,-2.4427,-2.4872,-2.5411,-2.7376,-2.7533,-2.7604,-2.8315,-2.9805,-3.101,-3.1439,-3.1434,-3.1476,-3.1715,-3.1561,-3.1474,-3.161,-3.1714,-3.1738,-3.1659,-3.1847,-3.1929,-3.1929,-3.1617,-3.1389,-3.1295,-3.0845,-3.0643,-3.0775,-3.057,-3.0773,-3.1339,-3.1339,-3.157,-3.2012,-3.2206,-3.2303,-3.2352,-3.3097,-3.3615,-3.3931,-3.4775,-3.5299,-3.5627,-3.5732,-3.5933,-3.6172,-3.6172,-3.6256,-3.6381,-3.6381,-3.6603,-3.686,-3.6522,-3.6603,-3.6821,-3.6357,-3.6298,-3.6381,-3.6381,-3.6381,-3.6422,-3.6563,-3.6603,-3.6603,-3.6603,-3.6603,-3.6684,-3.7034,-3.7111,-3.7188,-3.754,-3.7577,-3.7577,-3.7577,-3.7577,-3.7577,-3.7577,-3.7577,-3.7577,-3.7577,-3.7577,-3.7684,-3.7898,-3.7916,-3.8005,-3.8219,-3.8041,-3.7916,-3.7916,-3.7702,-3.7577,-3.7577,-3.7577,-3.7577,-3.7577,-3.7577,-3.7577,-3.7577,-3.7577,-3.7577,-3.7577,-3.7577,-3.7577,0.0,0.0,0.0,0.0,0.0,0.0,-1.9142,-1.9629,-2.0211,0.0,-2.3127,-2.3704,-2.5778,-2.5978,-2.6061,-2.6671,-2.7964,-2.9119,-2.9793,-3.0191,-3.0473,-3.0702,-3.0592,-3.0532,-3.0586,-3.0659,-3.062,-3.0504,-3.0716,-3.0953,-3.1116,-3.0967,-3.0857,-3.0868,-3.0502,-3.0267,-3.0113,-2.9973,-3.0085,-3.049,-3.049,-3.07,-3.1121,-3.1429,-3.1558,-3.1591,-3.2319,-3.2659,-3.2787,-3.3695,-3.4615,-3.5374,-3.527,-3.5526,-3.5933,-3.5933,-3.6062,-3.6232,-3.6422,-3.6684,-3.686,-3.6563,-3.6684,-3.6781,-3.6147,-3.619,-3.644,-3.6062,-3.6062,-3.6172,-3.6172,-3.6172,-3.6172,-3.6172,-3.6172,-3.6256,-3.6563,-3.6603,-3.6821,-3.7449,-3.7577,-3.7577,-3.7577,-3.7577,-3.7577,-3.7577,-3.7577,-3.7577,-3.7577,-3.7577,-3.7577,-3.7577,-3.7577,-3.7577,-3.7577,-3.7577,-3.7577,-3.7577,-3.7503,-3.7466,-3.7466,-3.7466,-3.7447,-3.7354,-3.7447,-3.7429,-3.7354,-3.7503,-3.7577,-3.7577,-3.7577,-3.7577,0.0,0.0,0.0,0.0,-1.7298,0.0,-2.0957,-2.0183,-1.9157,-2.1268,-2.1663,-2.2103,-2.3584,-2.3925,-2.4394,-2.5697,-2.6153,-2.6649,-2.753,-2.826,-2.8881,-2.9352,-2.9437,-2.9474,-2.9607,-2.9723,-2.9685,-2.9386,-2.9386,-2.9589,-2.9963,-2.9959,-3.0012,-3.0161,-3.0136,-3.0031,-2.9902,-2.9918,-2.9918,-2.9918,-2.9918,-2.9918,-2.9935,-3.0522,-3.0814,-3.0846,-3.1575,-3.1882,-3.1931,-3.2723,-3.3914,-3.5136,-3.4849,-3.5055,-3.5616,-3.5616,-3.5864,-3.6256,-3.6684,-3.6821,-3.6821,-3.6821,-3.6781,-3.662,-3.582,-3.6105,-3.6522,-3.5749,-3.5776,-3.6062,-3.6062,-3.6062,-3.6062,-3.6062,-3.6062,-3.6062,-3.613,-3.613,-3.6399,-3.7281,-3.7503,-3.754,-3.7577,-3.7577,-3.7577,-3.7577,-3.7577,-3.7577,-3.7577,-3.7577,-3.7577,-3.7577,-3.7577,-3.7577,-3.7577,-3.7577,-3.7577,-3.7577,-3.741,-3.7297,-3.7297,-3.7259,-3.7182,-3.7009,-3.7182,-3.7182,-3.6987,-3.7392,-3.7558,-3.754,-3.754,-3.754,-1.8643,-1.9339,-2.0265,-1.9192,-1.9016,0.0,-1.7833,-1.7721,-1.7943,0.0,-1.8329,-1.8683,-2.0311,-2.0964,-2.136,-2.1639,-2.3382,-2.5181,-2.6631,-2.6772,-2.6781,-2.6879,-2.7102,-2.724,-2.7256,-2.8122,-2.8676,-2.8543,-2.8745,-2.8753,-2.8506,-2.8388,-2.8655,-2.9214,-2.9137,-2.9345,-2.9902,-2.9918,-2.9918,-2.9918,-2.9918,-2.9918,-2.9918,-3.0064,-3.0085,-3.0117,-3.083,-3.1092,-3.1186,-3.1898,-3.2833,-3.3851,-3.446,-3.5055,-3.5616,-3.5616,-3.5864,-3.6215,-3.6298,-3.6357,-3.6357,-3.6357,-3.6105,-3.582,-3.5661,-3.5436,-3.5224,-3.5055,-3.5102,-3.5148,-3.5148,-3.5148,-3.5148,-3.5148,-3.5148,-3.527,-3.5661,-3.5705,-3.5864,-3.6381,-3.6781,-3.715,-3.754,-3.7577,-3.7577,-3.7577,-3.7577,-3.7577,-3.7577,-3.7577,-3.7577,-3.7577,-3.7577,-3.7577,-3.7577,-3.7577,-3.7577,-3.7577,-3.741,-3.7297,-3.7297,-3.7143,-3.7027,-3.6987,-3.7027,-3.7027,-3.6987,-3.7259,-3.7297,-3.7143,-3.7143,-3.7143,-2.1052,-2.133,-2.1789,-2.0918,-2.0374,0.0,0.0,-1.8412,-1.8297,-1.8955,-1.8342,-1.8179,-1.9767,-2.0257,-2.0598,-2.1018,-2.2665,-2.4062,-2.4543,-2.5532,-2.6098,-2.5839,-2.5932,-2.5953,-2.5819,-2.6667,-2.7306,-2.7385,-2.7412,-2.7363,-2.7264,-2.7297,-2.7599,-2.819,-2.8595,-2.8968,-2.9367,-2.974,-2.9918,-2.9918,-2.9918,-2.9918,-2.9918,-2.9918,-2.9918,-2.9935,-3.0247,-3.0393,-3.0457,-3.117,-3.1765,-3.2357,-3.353,-3.4349,-3.5003,-3.5374,-3.5688,-3.5933,-3.6147,-3.6172,-3.6172,-3.6172,-3.6062,-3.5864,-3.5661,-3.5287,-3.4947,-3.5195,-3.5071,-3.4899,-3.4899,-3.4899,-3.4899,-3.4899,-3.4899,-3.4977,-3.5195,-3.5241,-3.5362,-3.582,-3.6079,-3.644,-3.7129,-3.7466,-3.7577,-3.7577,-3.7503,-3.7484,-3.7594,-3.7503,-3.7484,-3.7594,-3.7577,-3.7577,-3.7577,-3.7521,-3.7447,-3.7447,-3.7143,-3.7005,-3.7005,-3.6908,-3.6846,-3.6846,-3.6846,-3.6788,-3.6632,-3.6908,-3.6987,-3.6987,-3.6987,-3.6987,-2.3163,-2.2985,-2.2909,-2.2604,-2.1605,-2.0679,0.0,0.0,0.0,-1.9767,-1.9003,-1.8536,0.0,0.0,-2.0182,-2.0873,-2.2095,-2.2661,-2.1781,-2.3696,-2.5015,-2.4523,-2.4822,-2.4913,-2.4557,-2.5004,-2.5476,-2.5899,-2.5408,-2.5297,-2.5767,-2.6044,-2.6486,-2.7093,-2.7895,-2.8456,-2.879,-2.9372,-2.9772,-2.9918,-2.9918,-2.9918,-2.9918,-2.9918,-2.9918,-2.9918,-2.9918,-2.9918,-2.9951,-3.049,-3.0762,-3.0998,-3.246,-3.3449,-3.4112,-3.4762,-3.5172,-3.5528,-3.5899,-3.6027,-3.6105,-3.6172,-3.6147,-3.602,-3.5571,-3.5195,-3.4977,-3.5362,-3.5195,-3.4899,-3.4899,-3.4899,-3.4899,-3.4899,-3.4899,-3.4899,-3.4899,-3.4899,-3.5024,-3.5407,-3.5526,-3.5864,-3.6643,-3.715,-3.7466,-3.7466,-3.7392,-3.741,-3.7521,-3.741,-3.7334,-3.7466,-3.7466,-3.7466,-3.7466,-3.7334,-3.722,-3.722,-3.6886,-3.6702,-3.6702,-3.6643,-3.6602,-3.6602,-3.6602,-3.6502,-3.6301,-3.6502,-3.6725,-3.6851,-3.6851,-3.6851,0.0,-2.4753,-2.4454,-2.2951,-2.2899,-2.2432,-1.9526,0.0,-1.9113,-1.7764,0.0,-1.8162,0.0,0.0,0.0,0.0,-1.9747,-2.019,-1.8483,-2.0182,-2.1497,-2.1167,-2.2721,-2.3556,-2.286,-2.2638,-2.2906,-2.3785,-2.2376,-2.2109,-2.3568,-2.3834,-2.4642,-2.6113,-2.6429,-2.7315,-2.8773,-2.8871,-2.9227,-2.9918,-2.9918,-2.9918,-2.9918,-2.9918,-2.9918,-2.9918,-2.9918,-2.9918,-2.9918,-2.9999,-3.0032,-3.0178,-3.1697,-3.2677,-3.3278,-3.3414,-3.4151,-3.5084,-3.5266,-3.5446,-3.5749,-3.6105,-3.5933,-3.5571,-3.5102,-3.493,-3.4899,-3.4977,-3.493,-3.4899,-3.4899,-3.4899,-3.4899,-3.4899,-3.4899,-3.4899,-3.4899,-3.4899,-3.4899,-3.4977,-3.5333,-3.5732,-3.619,-3.6684,-3.6978,-3.6978,-3.7319,-3.7521,-3.7334,-3.7297,-3.722,-3.7087,-3.7066,-3.7066,-3.7066,-3.7066,-3.7009,-3.7009,-3.6806,-3.6702,-3.6702,-3.6444,-3.636,-3.636,-3.636,-3.6343,-3.6301,-3.6343,-3.6343,-3.6385,-3.6385,-3.6385,-2.462,-2.457,-2.4204,-2.3205,-2.2686,-2.1984,-2.0279,-1.9711,-1.9443,-1.9136,0.0,0.0,0.0,0.0,0.0,0.0,-1.8696,-1.8699,-1.7112,-1.82,-1.9334,-1.9829,-2.056,-2.1439,-2.2459,-2.1798,-2.1913,-2.3456,-2.1807,-2.1487,-2.3233,-2.3499,-2.4092,-2.5158,-2.5918,-2.6631,-2.7347,-2.8327,-2.8951,-2.9243,-2.9708,-2.9918,-2.9918,-2.9918,-2.9918,-2.9918,-2.9918,-2.9918,-2.9918,-2.9918,-2.9918,-2.9967,-3.0612,-3.1324,-3.1968,-3.2425,-3.2995,-3.355,-3.4101,-3.4365,-3.4564,-3.5211,-3.5316,-3.5148,-3.493,-3.4899,-3.4899,-3.4899,-3.4899,-3.4899,-3.4899,-3.4899,-3.4899,-3.4899,-3.4899,-3.4899,-3.4899,-3.4899,-3.4899,-3.4899,-3.5071,-3.5241,-3.5436,-3.602,-3.6481,-3.6457,-3.6481,-3.6563,-3.6759,-3.6696,-3.6713,-3.697,-3.6987,-3.6987,-3.6987,-3.6869,-3.6846,-3.6846,-3.6585,-3.6461,-3.6461,-3.6343,-3.6301,-3.6301,-3.6131,-3.6002,-3.6002,-3.5766,-3.5766,-3.5985,-3.6216,-3.6301,-2.4264,-2.4155,-2.3824,-2.3054,-2.2233,-2.1415,-2.0581,-2.0048,-1.9862,-2.0342,-1.9886,0.0,0.0,0.0,0.0,0.0,0.0,-1.7766,0.0,-1.6595,-1.7578,-1.8254,-1.8824,-1.9809,-2.1608,-2.0358,-2.0303,-2.2394,-2.059,-2.0379,-2.2609,-2.3072,-2.3569,-2.4293,-2.5329,-2.5974,-2.6286,-2.7492,-2.8359,-2.879,-2.9324,-2.9724,-2.9918,-2.9918,-2.9918,-2.9918,-2.9918,-2.9918,-2.9918,-2.9918,-2.9918,-2.9918,-2.9918,-3.0271,-3.0835,-3.1401,-3.1772,-3.2154,-3.28,-3.3321,-3.3813,-3.4651,-3.4899,-3.4899,-3.4899,-3.4899,-3.4899,-3.4899,-3.4899,-3.4899,-3.4899,-3.4899,-3.4899,-3.4899,-3.4899,-3.4899,-3.4899,-3.4899,-3.4899,-3.4899,-3.4899,-3.4899,-3.4851,-3.5481,-3.5977,-3.5924,-3.5803,-3.5847,-3.6105,-3.6037,-3.6079,-3.6451,-3.6492,-3.6492,-3.6492,-3.6485,-3.6461,-3.6461,-3.6276,-3.6114,-3.5985,-3.5985,-3.5985,-3.5985,-3.5766,-3.5633,-3.5633,-3.5362,-3.5362,-3.5633,-3.6002,-3.6216,-2.3891,-2.4007,-2.3676,-2.237,-2.1863,-2.1287,-1.9709,-1.9837,-2.0282,-2.03,-2.1495,-2.2564,-2.2582,0.0,0.0,0.0,0.0,0.0,0.0,0.0,-1.597,0.0,0.0,0.0,-1.9658,-1.7609,-1.7286,-1.975,-1.7691,-1.7807,-2.1198,-2.2,-2.274,-2.3616,-2.4302,-2.5177,-2.6286,-2.6334,-2.7178,-2.879,-2.8806,-2.9194,-2.9918,-2.9918,-2.9918,-2.9918,-2.9918,-2.9918,-2.9918,-2.9918,-2.9918,-2.9918,-2.9918,-2.9935,-2.9951,-3.0038,-3.0538,-3.1185,-3.1484,-3.2524,-3.3922,-3.4651,-3.4899,-3.4899,-3.4899,-3.4899,-3.4899,-3.4899,-3.4899,-3.4899,-3.4899,-3.4899,-3.4899,-3.4899,-3.4899,-3.4899,-3.4899,-3.4899,-3.4899,-3.4899,-3.4899,-3.4851,-3.4756,-3.5131,-3.5419,-3.5419,-3.5688,-3.5803,-3.5548,-3.5504,-3.5431,-3.5253,-3.527,-3.527,-3.527,-3.5588,-3.5827,-3.5827,-3.581,-3.5633,-3.527,-3.5224,-3.5224,-3.5224,-3.5224,-3.5224,-3.5224,-3.5224,-3.5224,-3.5224,-3.5633,-3.6002,-2.3351,-2.3259,-2.2982,-2.2373,-2.1608,-2.0845,-2.0136,-2.0154,-2.0264,-2.0062,-2.102,-2.1796,-2.1452,0.0,0.0,0.0,0.0,0.0,0.0,0.0,-1.4533,0.0,0.0,0.0,0.0,-1.7082,-1.7439,-1.9092,-1.7751,-1.8177,-2.1116,-2.1538,-2.217,-2.3374,-2.3881,-2.4547,-2.5417,-2.619,-2.6832,-2.7413,-2.7867,-2.845,-2.9146,-2.9146,-2.9464,-2.9918,-2.9918,-2.9918,-2.9918,-2.9918,-2.9918,-2.9918,-2.9918,-2.9918,-2.9902,-2.9902,-3.0108,-3.0449,-3.1589,-3.2659,-3.3672,-3.4412,-3.4707,-3.4756,-3.4756,-3.4756,-3.4756,-3.4756,-3.4691,-3.4659,-3.4659,-3.4691,-3.4756,-3.4756,-3.4851,-3.4899,-3.4899,-3.4899,-3.4899,-3.4787,-3.4756,-3.4756,-3.4594,-3.4626,-3.4658,-3.4658,-3.4785,-3.488,-3.4991,-3.4975,-3.5038,-3.5178,-3.5224,-3.5224,-3.5224,-3.5316,-3.5407,-3.5407,-3.5407,-3.5362,-3.5224,-3.5224,-3.5224,-3.5224,-3.5008,-3.4883,-3.4883,-3.4626,-3.4626,-3.4866,-3.5008,-3.5224,-2.2935,-2.2825,-2.26,-2.2247,-2.1643,-2.1018,-2.0535,-2.0668,-2.0787,-2.0502,-2.1309,-2.1882,-2.1305,0.0,0.0,0.0,0.0,0.0,0.0,-1.3396,0.0,0.0,0.0,0.0,0.0,0.0,-1.6281,-1.8142,-1.7252,-1.776,0.0,-2.108,-2.1852,-2.2902,-2.3498,-2.42,-2.5005,-2.5798,-2.6364,-2.6701,-2.7138,-2.7721,-2.8417,-2.8676,-2.9049,-2.9545,-2.9805,-2.9918,-2.9918,-2.9918,-2.9918,-2.9918,-2.9918,-2.9918,-2.9918,-2.9918,-2.9918,-3.0124,-3.1385,-3.2357,-3.3154,-3.3874,-3.4332,-3.4643,-3.4643,-3.4643,-3.4643,-3.4643,-3.4546,-3.4497,-3.4497,-3.4546,-3.4643,-3.4643,-3.4691,-3.4739,-3.4739,-3.4739,-3.4739,-3.4643,-3.4643,-3.4594,-3.4448,-3.4349,-3.43,-3.43,-3.425,-3.43,-3.4448,-3.4497,-3.4578,-3.4802,-3.4802,-3.4849,-3.5008,-3.5008,-3.5008,-3.5008,-3.5008,-3.4961,-3.4802,-3.4802,-3.4802,-3.4802,-3.4578,-3.4497,-3.4497,-3.425,-3.425,-3.4497,-3.4497,-3.4578]}]]